[[{"header":{"parameterUnit":"m.s-1","parameterCategory":1,"la1":30.6,"la2":28.766,"lo1":-90.7593,"lo2":-88.6598,"dy":0.0162,"dx":0.0183,"nx":116,"ny":114,"refTime":"2023-07-15T12:00:00:Z","depth":0,"parameterNumber":2,"parameterNumberName":"U-component_of_WINDS"},"data":[0.0,0.0,0.0,0.0,0.0,0.0,0.0,0.0,0.0,0.0,0.0,0.0,0.0,0.0,0.0,0.0,0.0,0.0,0.0,0.0,0.0,0.0,0.0,0.0,0.0,0.0,0.0,0.0,0.0,0.0,0.0,0.0,0.0,0.0,0.0,0.0,0.0,0.0,0.0,0.0,0.0,0.0,0.0,0.0,0.0,0.0,0.0,0.0,0.0,0.0,0.0,0.0,0.0,0.0,0.0,0.0,0.0,0.0,0.0,0.0,0.0,0.0,0.0,0.0,0.0,0.0,0.0,0.0,0.0,0.0,0.0,0.0,0.0,0.0,0.0,0.0,0.0,0.0,0.0,0.0,0.0,0.0,0.0,0.0,0.0,0.0,0.0,0.0,0.0,0.0,0.0,0.0,0.0,0.0,0.0,0.0,0.0,0.0,0.0,0.0,0.0,0.0,0.0,0.0,0.0,0.0,0.0,0.0,0.0,0.0,0.0,0.0,0.0,0.0,0.0,0.0,0.0,0.0,0.0,0.0,0.0,0.0,0.0,0.0,0.0,0.0,0.0,0.0,0.0,0.0,0.0,0.0,0.0,0.0,0.0,0.0,0.0,0.0,0.0,0.0,0.0,0.0,0.0,0.0,0.0,0.0,0.0,0.0,0.0,0.0,0.0,0.0,0.0,0.0,0.0,0.0,0.0,0.0,0.0,0.0,0.0,0.0,0.0,0.0,0.0,0.0,0.0,0.0,0.0,0.0,0.0,0.0,0.0,0.0,0.0,0.0,0.0,0.0,0.0,0.0,0.0,0.0,0.0,0.0,0.0,0.0,0.0,0.0,0.0,0.0,0.0,0.0,0.0,0.0,0.0,0.0,0.0,0.0,0.0,0.0,0.0,0.0,0.0,0.0,0.0,0.0,0.0,0.0,0.0,0.0,0.0,0.0,0.0,0.0,0.0,0.0,0.0,0.0,0.0,0.0,0.0,0.0,0.0,0.0,0.0,0.0,0.0,0.0,0.0,0.0,0.0,0.0,0.0,0.0,0.0,0.0,0.0,0.0,0.0,0.0,0.0,0.0,0.0,0.0,0.0,0.0,0.0,0.0,0.0,0.0,0.0,0.0,0.0,0.0,0.0,0.0,0.0,0.0,0.0,0.0,0.0,0.0,0.0,0.0,0.0,0.0,0.0,0.0,0.0,0.0,0.0,0.0,0.0,0.0,0.0,0.0,0.0,0.0,0.0,0.0,0.0,0.0,0.0,0.0,0.0,0.0,0.0,0.0,0.0,0.0,0.0,0.0,0.0,0.0,0.0,0.0,0.0,0.0,0.0,0.0,0.0,0.0,0.0,0.0,0.0,0.0,0.0,0.0,0.0,0.0,0.0,0.0,0.0,0.0,0.0,0.0,0.0,0.0,0.0,0.0,0.0,0.0,0.0,0.0,0.0,0.0,0.0,0.0,0.0,0.0,0.0,0.0,0.0,0.0,0.0,0.0,0.0,0.0,0.0,0.0,0.0,0.0,0.0,0.0,0.0,0.0,0.0,0.0,0.0,0.0,0.0,0.0,0.0,0.0,0.0,0.0,0.0,0.0,0.0,0.0,0.0,0.0,0.0,0.0,0.0,0.0,0.0,0.0,0.0,0.0,0.0,0.0,0.0,0.0,0.0,0.0,0.0,0.0,0.0,0.0,0.0,0.0,0.0,0.0,0.0,0.0,0.0,0.0,0.0,0.0,0.0,0.0,0.0,0.0,0.0,0.0,0.0,0.0,0.0,0.0,0.0,0.0,0.0,0.0,0.0,0.0,0.0,0.0,0.0,0.0,0.0,0.0,0.0,0.0,0.0,0.0,0.0,0.0,0.0,0.0,0.0,0.0,0.0,0.0,0.0,0.0,0.0,0.0,0.0,0.0,0.0,0.0,0.0,0.0,0.0,0.0,0.0,0.0,0.0,0.0,0.0,0.0,0.0,0.0,0.0,0.0,0.0,0.0,0.0,0.0,0.0,0.0,0.0,0.0,0.0,0.0,0.0,0.0,0.0,0.0,0.0,0.0,0.0,0.0,0.0,0.0,0.0,0.0,0.0,0.0,0.0,0.0,0.0,0.0,0.0,0.0,0.0,0.0,0.0,0.0,0.0,0.0,0.0,0.0,0.0,0.0,0.0,0.0,0.0,0.0,0.0,0.0,0.0,0.0,0.0,0.0,0.0,0.0,0.0,0.0,0.0,0.0,0.0,0.0,0.0,0.0,0.0,0.0,0.0,0.0,0.0,0.0,0.0,0.0,0.0,0.0,0.0,0.0,0.0,0.0,0.0,0.0,0.0,0.0,0.0,0.0,0.0,0.0,0.0,0.0,0.0,0.0,0.0,0.0,0.0,0.0,0.0,0.0,0.0,0.0,0.0,0.0,0.0,0.0,0.0,0.0,0.0,0.0,0.0,0.0,0.0,0.0,0.0,0.0,0.0,0.0,0.0,0.0,0.0,0.0,0.0,0.0,0.0,0.0,0.0,0.0,0.0,0.0,0.0,0.0,0.0,0.0,0.0,0.0,0.0,0.0,0.0,0.0,0.0,0.0,0.0,0.0,0.0,0.0,0.0,0.0,0.0,0.0,0.0,0.0,0.0,0.0,0.0,0.0,0.0,0.0,0.0,0.0,0.0,0.0,0.0,0.0,0.0,0.0,0.0,0.0,0.0,0.0,0.0,0.0,0.0,0.0,0.0,0.0,0.0,0.0,0.0,0.0,0.0,0.0,0.0,0.0,0.0,0.0,0.0,0.0,0.0,0.0,0.0,0.0,0.0,0.0,0.0,0.0,0.0,0.0,0.0,0.0,0.0,0.0,0.0,0.0,0.0,0.0,0.0,0.0,0.0,0.0,0.0,0.0,0.0,0.0,0.0,0.0,0.0,0.0,0.0,0.0,0.0,0.0,0.0,0.0,0.0,0.0,0.0,0.0,0.0,0.0,0.0,0.0,0.0,0.0,0.0,0.0,0.0,0.0,0.0,0.0,0.0,0.0,0.0,0.0,0.0,0.0,0.0,0.0,0.0,0.0,0.0,0.0,0.0,0.0,0.0,0.0,0.0,0.0,0.0,0.0,0.0,0.0,0.0,0.0,0.0,0.0,0.0,0.0,0.0,0.0,0.0,0.0,0.0,0.0,0.0,0.0,0.0,0.0,0.0,0.0,0.0,0.0,0.0,0.0,0.0,0.0,0.0,0.0,0.0,0.0,0.0,0.0,0.0,0.0,0.0,0.0,0.0,0.0,0.0,0.0,0.0,0.0,0.0,0.0,0.0,0.0,0.0,0.0,0.0,0.0,0.0,0.0,0.0,0.0,0.0,0.0,0.0,0.0,0.0,0.0,0.0,0.0,0.0,0.0,0.0,0.0,0.0,0.0,0.0,0.0,0.0,0.0,0.0,0.0,0.0,0.0,0.0,0.0,0.0,0.0,0.0,0.0,0.0,0.0,0.0,0.0,0.0,0.0,0.0,0.0,0.0,0.0,0.0,0.0,0.0,0.0,0.0,0.0,0.0,0.0,0.0,0.0,0.0,0.0,0.0,0.0,0.0,0.0,0.0,0.0,0.0,0.0,0.0,0.0,0.0,0.0,0.0,0.0,0.0,0.0,0.0,0.0,0.0,0.0,0.0,0.0,0.0,0.0,0.0,0.0,0.0,0.0,0.0,0.0,0.0,0.0,0.0,0.0,0.0,0.0,0.0,0.0,0.0,0.0,0.0,0.0,0.0,0.0,0.0,0.0,0.0,0.0,0.0,0.0,0.0,0.0,0.0,0.0,0.0,0.0,0.0,0.0,0.0,0.0,0.0,0.0,0.0,0.0,0.0,0.0,0.0,0.0,0.0,0.0,0.0,0.0,0.0,0.0,0.0,0.0,0.0,0.0,0.0,0.0,0.0,0.0,0.0,0.0,0.0,0.0,0.0,0.0,0.0,0.0,0.0,0.0,0.0,0.0,0.0,0.0,0.0,0.0,0.0,0.0,0.0,0.0,0.0,0.0,0.0,0.0,0.0,0.0,0.0,0.0,0.0,0.0,0.0,0.0,0.0,0.0,0.0,0.0,0.0,0.0,0.0,0.0,0.0,0.0,0.0,0.0,0.0,0.0,0.0,0.0,0.0,0.0,0.0,0.0,0.0,0.0,0.0,0.0,0.0,0.0,0.0,0.0,0.0,0.0,0.0,0.0,0.0,0.0,0.0,0.0,0.0,0.0,0.0,0.0,0.0,0.0,0.0,0.0,0.0,0.0,0.0,0.0,0.0,0.0,0.0,0.0,0.0,0.0,0.0,0.0,0.0,0.0,0.0,0.0,0.0,0.0,0.0,0.0,0.0,0.0,0.0,0.0,0.0,0.0,0.0,0.0,0.0,0.0,0.0,0.0,0.0,0.0,0.0,0.0,0.0,0.0,0.0,0.0,0.0,0.0,0.0,0.0,0.0,0.0,0.0,0.0,0.0,0.0,0.0,0.0,0.0,0.0,0.0,0.0,0.0,0.0,0.0,0.0,0.0,0.0,0.0,0.0,0.0,0.0,0.0,0.0,0.0,0.0,0.0,0.0,0.0,0.0,0.0,0.0,0.0,0.0,0.0,0.0,0.0,0.0,0.0,0.0,0.0,0.0,0.0,0.0,0.0,0.0,0.0,0.0,0.0,0.0,0.0,0.0,0.0,0.0,0.0,0.0,0.0,0.0,0.0,0.0,0.0,0.0,0.0,0.0,0.0,0.0,0.0,0.0,0.0,0.0,0.0,0.0,0.0,0.0,0.0,0.0,0.0,0.0,0.0,0.0,0.0,0.0,0.0,0.0,0.0,0.0,0.0,0.0,0.0,0.0,0.0,0.0,0.0,0.0,0.0,0.0,0.0,0.0,0.0,0.0,0.0,0.0,0.0,0.0,0.0,0.0,0.0,0.0,0.0,0.0,0.0,0.0,0.0,0.0,0.0,0.0,0.0,0.0,0.0,0.0,0.0,0.0,0.0,0.0,0.0,0.0,0.0,0.0,0.0,0.0,0.0,0.0,0.0,0.0,0.0,0.0,0.0,0.0,0.0,0.0,0.0,0.0,0.0,0.0,0.0,0.0,0.0,0.0,0.0,0.0,0.0,0.0,0.0,0.0,0.0,0.0,0.0,0.0,0.0,0.0,0.0,0.0,0.0,0.0,0.0,0.0,0.0,0.0,0.0,0.0,0.0,0.0,0.0,0.0,0.0,0.0,0.0,0.0,0.0,0.0,0.0,0.0,0.0,0.0,0.0,0.0,0.0,0.0,0.0,0.0,0.0,0.0,0.0,0.0,0.0,0.0,0.0,0.0,0.0,0.0,0.0,0.0,0.0,0.0,0.0,0.0,0.0,0.0,0.0,0.0,0.0,0.0,0.0,0.0,0.0,0.0,0.0,0.0,0.0,0.0,0.0,0.0,0.0,0.0,0.0,0.0,0.0,0.0,0.0,0.0,0.0,0.0,0.0,0.0,0.0,0.0,0.0,0.0,0.0,0.0,0.0,0.0,0.0,0.0,0.0,0.0,0.0,0.0,0.0,0.0,0.0,0.0,0.0,0.0,0.0,0.0,0.0,0.0,0.0,0.0,0.0,0.0,0.0,0.0,0.0,0.0,0.0,0.0,0.0,0.0,0.0,0.0,0.0,0.0,0.0,0.0,0.0,0.0,0.0,0.0,0.0,0.0,0.0,0.0,0.0,0.0,0.0,0.0,0.0,0.0,0.0,0.0,0.0,0.0,0.0,0.0,0.0,0.0,0.0,0.0,0.0,0.0,0.0,0.0,0.0,0.0,0.0,0.0,0.0,0.0,0.0,0.0,0.0,0.0,0.0,0.0,0.0,0.0,0.0,0.0,0.0,0.0,0.0,0.0,0.0,0.0,0.0,0.0,0.0,0.0,0.0,0.0,0.0,0.0,0.0,0.0,0.0,0.0,0.0,0.0,0.0,0.0,0.0,0.0,0.0,0.0,0.0,0.0,0.0,0.0,0.0,0.0,0.0,0.0,0.0,0.0,0.0,0.0,0.0,0.0,0.0,0.0,0.0,0.0,0.0,0.0,0.0,0.0,0.0,0.0,0.0,0.0,0.0,0.0,0.0,0.0,-2.7854,0.0,0.0,0.0,0.0,0.0,0.0,0.0,0.0,0.0,0.0,0.0,0.0,0.0,0.0,0.0,0.0,0.0,0.0,0.0,0.0,0.0,0.0,0.0,0.0,0.0,0.0,0.0,0.0,0.0,0.0,0.0,0.0,0.0,0.0,0.0,0.0,0.0,0.0,0.0,0.0,0.0,0.0,0.0,0.0,0.0,0.0,0.0,0.0,0.0,0.0,0.0,0.0,0.0,0.0,0.0,0.0,0.0,0.0,0.0,0.0,0.0,0.0,0.0,0.0,0.0,0.0,0.0,0.0,0.0,0.0,0.0,0.0,0.0,0.0,0.0,0.0,0.0,0.0,0.0,0.0,0.0,0.0,0.0,0.0,0.0,0.0,0.0,0.0,0.0,0.0,0.0,0.0,0.0,0.0,0.0,0.0,0.0,0.0,0.0,0.0,0.0,0.0,0.0,0.0,0.0,0.0,0.0,0.0,0.0,0.0,0.0,0.0,0.0,0.0,0.0,0.0,-2.8231,0.0,0.0,0.0,0.0,0.0,0.0,0.0,0.0,0.0,0.0,0.0,0.0,0.0,0.0,0.0,0.0,0.0,0.0,0.0,0.0,0.0,0.0,0.0,0.0,0.0,0.0,0.0,0.0,0.0,0.0,0.0,0.0,0.0,0.0,0.0,0.0,0.0,0.0,0.0,0.0,0.0,0.0,0.0,0.0,0.0,0.0,0.0,0.0,0.0,0.0,0.0,0.0,0.0,0.0,0.0,0.0,0.0,0.0,0.0,0.0,0.0,0.0,0.0,0.0,0.0,0.0,0.0,0.0,0.0,0.0,0.0,0.0,0.0,0.0,0.0,0.0,0.0,0.0,0.0,0.0,0.0,0.0,0.0,0.0,0.0,0.0,0.0,0.0,0.0,0.0,0.0,0.0,0.0,0.0,0.0,0.0,0.0,0.0,0.0,0.0,0.0,0.0,0.0,0.0,0.0,0.0,0.0,0.0,-2.8207,-2.8302,-2.8302,-2.8425,-2.8673,-2.8955,-2.8486,-2.8596,-2.9075,-2.874,0.0,0.0,0.0,0.0,0.0,0.0,0.0,0.0,0.0,0.0,0.0,0.0,0.0,0.0,0.0,0.0,0.0,0.0,0.0,0.0,0.0,0.0,0.0,0.0,0.0,0.0,0.0,0.0,0.0,0.0,0.0,0.0,0.0,0.0,0.0,0.0,0.0,0.0,-2.5934,-2.5934,-2.5892,-2.5821,-2.6397,0.0,0.0,0.0,0.0,0.0,0.0,0.0,0.0,0.0,0.0,0.0,0.0,0.0,0.0,0.0,0.0,0.0,0.0,0.0,0.0,0.0,0.0,0.0,0.0,0.0,0.0,0.0,0.0,0.0,0.0,0.0,0.0,0.0,0.0,0.0,0.0,0.0,0.0,0.0,0.0,0.0,0.0,0.0,-2.6454,-2.6488,0.0,0.0,0.0,0.0,0.0,0.0,0.0,0.0,0.0,0.0,0.0,0.0,0.0,-2.7864,-2.7898,-2.8247,-2.8415,-2.8415,-2.9437,-2.9903,-2.9934,-3.0508,-3.08,-3.0793,-3.017,0.0,-2.9098,-2.9029,0.0,0.0,0.0,0.0,0.0,0.0,0.0,0.0,0.0,0.0,0.0,0.0,0.0,0.0,0.0,0.0,0.0,0.0,0.0,0.0,0.0,0.0,0.0,0.0,0.0,0.0,0.0,0.0,0.0,0.0,0.0,0.0,0.0,0.0,0.0,0.0,-2.5536,-2.5674,-2.5674,-2.5825,-2.5893,-2.5921,-2.6527,-2.6621,-2.6299,-2.6459,0.0,0.0,0.0,0.0,0.0,0.0,0.0,0.0,0.0,0.0,0.0,0.0,0.0,0.0,0.0,0.0,0.0,0.0,0.0,0.0,0.0,0.0,0.0,0.0,0.0,0.0,0.0,0.0,0.0,0.0,0.0,0.0,0.0,0.0,0.0,0.0,0.0,0.0,0.0,-2.7108,-2.7194,-2.7581,-2.7609,-2.7576,0.0,0.0,0.0,0.0,0.0,0.0,0.0,0.0,0.0,-2.8815,-2.887,-2.9138,-2.9748,-2.9935,-3.0009,-3.0009,-3.0534,-3.0765,-3.0765,-3.1081,-3.1198,-3.1167,-3.0891,-3.0591,-3.0219,-2.943,-2.9098,-2.9098,0.0,0.0,0.0,0.0,-2.9098,-2.9098,0.0,0.0,0.0,0.0,0.0,0.0,0.0,0.0,0.0,0.0,0.0,0.0,0.0,0.0,0.0,-2.1688,0.0,0.0,0.0,0.0,0.0,0.0,0.0,0.0,0.0,0.0,0.0,-2.5131,-2.5285,-2.5411,-2.5494,-2.5633,-2.5674,-2.5702,-2.6138,-2.6218,-2.6015,-2.6312,-2.6445,0.0,0.0,0.0,0.0,0.0,0.0,0.0,0.0,0.0,0.0,0.0,0.0,0.0,0.0,0.0,0.0,0.0,0.0,0.0,0.0,0.0,0.0,0.0,0.0,0.0,0.0,0.0,0.0,0.0,0.0,0.0,0.0,0.0,0.0,0.0,0.0,0.0,0.0,-2.8105,-2.8093,-2.8583,-2.8574,-2.8415,0.0,0.0,0.0,0.0,0.0,0.0,-2.8335,-2.8513,-2.9024,-2.9977,-3.0008,-3.0391,-3.1182,-3.1397,-3.1492,-3.1492,-3.1839,-3.1997,-3.2013,-3.2203,-3.2171,-3.1997,-3.1798,-3.165,-3.1397,-3.014,-2.9635,-2.9635,-2.9635,-2.9635,-2.9635,-2.9635,-2.9635,-2.9635,0.0,0.0,0.0,0.0,0.0,0.0,0.0,0.0,0.0,0.0,0.0,0.0,0.0,0.0,-2.1688,-2.1447,-2.2483,-2.3174,0.0,0.0,0.0,0.0,0.0,0.0,0.0,0.0,0.0,-2.5467,-2.5159,-2.5188,-2.5494,-2.5188,-2.5061,-2.5061,-2.509,-2.5536,-2.6297,-2.6633,-2.6779,-2.6779,0.0,0.0,0.0,0.0,0.0,0.0,0.0,0.0,0.0,0.0,0.0,0.0,0.0,0.0,0.0,0.0,0.0,0.0,0.0,0.0,0.0,0.0,0.0,0.0,0.0,0.0,0.0,0.0,0.0,0.0,0.0,0.0,0.0,0.0,0.0,0.0,0.0,0.0,0.0,-2.9075,-2.8716,0.0,0.0,0.0,0.0,-2.8439,-2.8736,-2.9093,-2.9484,-3.0123,-3.0672,-3.111,-3.111,-3.1151,-3.1198,-3.1896,-3.2228,-3.226,-3.3541,-3.413,-3.4162,-3.4857,-3.4794,-3.4099,-3.3467,-3.2819,-3.2181,-3.1413,-3.1088,-3.1088,-3.1088,-3.1088,-3.1088,-3.1088,-3.1088,-3.1088,0.0,0.0,0.0,0.0,0.0,0.0,0.0,0.0,0.0,0.0,0.0,0.0,0.0,-2.1592,-2.1496,-2.1423,-2.251,-2.3215,-2.3215,0.0,0.0,0.0,0.0,0.0,0.0,0.0,-2.5061,-2.5188,-2.5061,-2.5061,-2.5188,-2.5285,-2.5216,-2.5033,-2.5425,-2.5647,-2.5798,-2.6098,-2.6326,-2.6498,-2.6712,-2.6806,0.0,0.0,0.0,0.0,0.0,0.0,0.0,0.0,0.0,0.0,0.0,0.0,0.0,0.0,0.0,0.0,0.0,0.0,0.0,0.0,0.0,0.0,0.0,0.0,0.0,0.0,0.0,0.0,0.0,0.0,0.0,0.0,0.0,0.0,0.0,0.0,0.0,-2.874,-2.8826,0.0,-2.9396,-2.9159,-2.933,-3.0174,-3.0101,-3.0216,-3.0597,-3.1306,-3.1949,-3.2534,-3.2977,-3.3419,-3.3893,-3.4146,-3.43,-3.4315,-3.479,-3.4999,-3.5015,-3.5268,-3.5252,-3.4984,-3.4747,-3.451,-3.4252,-3.3498,-3.2424,-3.1198,-3.1198,-3.1198,-3.1198,-3.1198,-3.1198,-3.1198,0.0,0.0,0.0,0.0,0.0,0.0,0.0,0.0,0.0,0.0,0.0,-2.1568,-2.1664,-2.152,-2.1399,-2.1399,-2.251,-2.3215,-2.3215,0.0,0.0,0.0,0.0,0.0,0.0,-2.5005,-2.5005,-2.5005,-2.5005,-2.5005,-2.5005,-2.5229,-2.5216,-2.5033,-2.5425,-2.555,-2.5494,-2.5702,-2.5921,-2.619,-2.6513,-2.6618,-2.6633,0.0,0.0,0.0,0.0,0.0,0.0,0.0,0.0,0.0,0.0,0.0,0.0,0.0,0.0,0.0,0.0,0.0,0.0,0.0,0.0,0.0,0.0,0.0,0.0,0.0,0.0,0.0,0.0,0.0,0.0,0.0,0.0,0.0,0.0,0.0,-2.9084,-2.9068,-2.9305,-2.9635,-3.0098,-3.0136,-3.0541,-3.1498,-3.1532,-3.1742,-3.2209,-3.2956,-3.3556,-3.3988,-3.4431,-3.4905,-3.5394,-3.5616,-3.5742,-3.5742,-3.5979,-3.6105,-3.6105,-3.6105,-3.5963,-3.5742,-3.5742,-3.5616,-3.5347,-3.4857,-3.3862,-3.2582,-3.2108,-3.1918,-3.1918,-3.1918,-3.1918,-3.1887,0.0,0.0,0.0,0.0,0.0,0.0,0.0,0.0,0.0,0.0,-2.1793,-2.1688,-2.1423,-2.1399,-2.1399,-2.1399,-2.251,-2.3215,-2.3215,-2.4326,0.0,0.0,0.0,0.0,-2.5005,-2.5005,-2.5005,-2.5005,-2.5005,-2.5005,-2.5005,-2.5032,-2.5032,-2.5032,-2.5059,-2.5242,-2.5494,-2.5494,-2.5661,-2.5921,-2.619,-2.6283,-2.6351,0.0,0.0,0.0,0.0,0.0,0.0,0.0,0.0,0.0,0.0,0.0,0.0,0.0,0.0,0.0,0.0,0.0,0.0,0.0,0.0,0.0,0.0,0.0,0.0,0.0,0.0,0.0,0.0,0.0,0.0,0.0,0.0,0.0,-2.913,-2.913,-2.9398,-3.0157,-3.0251,-3.0528,-3.1207,-3.1277,-3.1602,-3.2339,-3.2993,-3.3656,-3.4288,-3.5015,-3.5426,-3.5426,-3.5442,-3.5458,-3.5458,-3.6121,-3.6424,-3.644,-3.7148,-3.751,-3.751,-3.751,-3.7101,-3.6424,-3.6424,-3.6074,-3.5458,-3.5426,-3.5426,-3.5284,-3.3909,-3.3372,-3.3372,-3.3372,-3.3356,-3.3245,0.0,0.0,0.0,0.0,0.0,0.0,0.0,0.0,0.0,0.0,-2.1746,-2.1496,-2.1423,-2.1399,-2.1399,-2.1399,-2.251,-2.3215,-2.3215,0.0,0.0,0.0,0.0,0.0,-2.5005,-2.5005,-2.5005,-2.5005,-2.5005,-2.5005,-2.5018,-2.5453,-2.5643,-2.567,-2.6117,-2.6106,-2.5801,-2.5801,-2.5726,-2.5647,-2.6109,-2.6283,-2.6351,0.0,0.0,0.0,0.0,0.0,0.0,0.0,0.0,0.0,0.0,0.0,0.0,0.0,0.0,0.0,0.0,0.0,0.0,0.0,0.0,0.0,0.0,0.0,0.0,0.0,0.0,0.0,0.0,0.0,0.0,0.0,0.0,-2.9896,-2.9896,-2.9896,-3.0148,-3.0844,-3.1406,-3.1991,-3.2661,-3.3166,-3.3751,-3.4478,-3.4715,-3.4889,-3.5078,-3.5758,-3.6137,-3.6137,-3.6643,-3.6941,-3.6941,-3.713,-3.7196,-3.7196,-3.7415,-3.751,-3.751,-3.751,-3.7399,-3.7196,-3.7196,-3.7069,-3.6893,-3.6358,-3.6137,-3.6058,-3.5157,-3.481,-3.481,-3.481,-3.4478,-3.3988,0.0,0.0,0.0,0.0,0.0,0.0,0.0,0.0,0.0,0.0,-2.1722,-2.1399,-2.1399,-2.1399,-2.1399,-2.1399,-2.251,-2.3215,-2.3215,0.0,0.0,0.0,0.0,-2.5005,-2.5005,-2.5005,-2.5005,-2.5005,-2.5005,-2.5127,-2.5385,-2.5738,-2.6022,-2.6294,-2.6797,-2.6726,-2.631,-2.6591,-2.6363,-2.5882,-2.6493,-2.6567,-2.6351,-2.6659,-2.6806,-2.6806,-2.6806,-2.6806,-2.6846,-2.7067,0.0,0.0,0.0,0.0,0.0,0.0,0.0,0.0,0.0,0.0,0.0,0.0,0.0,0.0,0.0,0.0,0.0,0.0,0.0,0.0,0.0,0.0,0.0,0.0,-3.0457,-3.0812,-3.1437,-3.0986,-3.0986,-3.1966,-3.2455,-3.3114,-3.4083,-3.4525,-3.5047,-3.5774,-3.5821,-3.5947,-3.6248,-3.6643,-3.6864,-3.6864,-3.7275,-3.751,-3.751,-3.751,-3.751,-3.751,-3.751,-3.751,-3.751,-3.751,-3.751,0.0,-3.751,-3.751,-3.7478,-3.7038,-3.6864,0.0,0.0,0.0,0.0,0.0,-3.5126,-3.4747,0.0,0.0,0.0,0.0,0.0,0.0,0.0,0.0,0.0,0.0,0.0,-2.1471,-2.1423,-2.1423,-2.1423,-2.1399,-2.251,-2.3269,0.0,0.0,0.0,-2.5033,-2.5033,-2.5005,-2.5075,-2.5033,-2.5005,-2.5005,-2.5005,-2.5317,-2.5887,-2.5968,-2.6321,-2.6932,-2.7322,-2.7292,-2.7009,-2.764,-2.7323,-2.6465,-2.7074,-2.691,-2.6351,-2.6659,-2.6806,-2.6806,-2.6806,-2.6806,-2.6806,-2.6858,0.0,0.0,0.0,0.0,0.0,0.0,0.0,0.0,0.0,0.0,0.0,0.0,0.0,0.0,0.0,0.0,0.0,0.0,0.0,0.0,0.0,0.0,0.0,0.0,-3.1002,-3.1918,-3.323,-3.2424,-3.2155,-3.3388,-3.3609,-3.4146,-3.5379,-3.5584,-3.5884,-3.6472,-3.6519,-3.6817,-3.7478,0.0,0.0,0.0,0.0,-3.751,-3.751,-3.751,-3.751,-3.751,-3.751,-3.751,-3.751,-3.751,-3.751,-3.751,-3.751,-3.751,-3.751,-3.751,-3.7539,-3.7456,-3.6204,-3.5728,-3.5728,-3.5796,-3.5776,-3.5697,0.0,0.0,0.0,0.0,0.0,0.0,0.0,0.0,0.0,-2.2263,-2.2114,-2.1864,-2.1447,-2.1592,-2.164,-2.1423,-2.251,-2.3608,0.0,0.0,-2.5131,-2.5383,-2.5131,-2.5131,-2.5411,-2.5131,-2.5005,-2.5005,-2.5005,-2.5317,-2.59,-2.6402,-2.6942,-2.7556,-2.8408,-2.8446,-2.7961,-2.8358,-2.7978,-2.7129,-2.7241,-2.691,-2.6351,-2.6659,-2.6806,-2.6806,-2.6806,-2.6806,-2.6858,-2.717,-2.7524,-2.7854,-2.8174,0.0,0.0,0.0,0.0,0.0,0.0,0.0,0.0,0.0,0.0,0.0,0.0,0.0,0.0,0.0,0.0,0.0,0.0,0.0,0.0,-3.1801,-3.2455,-3.3182,-3.3988,-3.4383,-3.4683,-3.4952,-3.5473,-3.5903,-3.6172,-3.6738,-3.7162,-3.7275,-3.7304,-3.7368,-3.7494,-3.751,-3.751,-3.751,-3.751,-3.751,-3.751,-3.751,-3.751,-3.751,0.0,0.0,-3.751,-3.751,-3.751,-3.751,-3.751,-3.751,-3.751,-3.751,-3.7756,-3.8108,-3.7862,-3.775,-3.7806,-3.8292,-3.8103,-3.7561,0.0,0.0,0.0,0.0,0.0,0.0,0.0,0.0,0.0,0.0,-2.2379,-2.2114,-2.1817,-2.1793,-2.1746,-2.1616,-2.2287,0.0,0.0,-2.4557,-2.4762,-2.5244,-2.5257,-2.5313,-2.5494,-2.5341,-2.5328,-2.5453,-2.5328,-2.5795,-2.6806,-2.6946,-2.7577,-2.8671,-2.915,-2.9185,-2.8923,-2.943,-2.8912,-2.7768,-2.7937,-2.7525,-2.6841,-2.6817,-2.6806,-2.6832,-2.7041,-2.7093,-2.7144,-2.7325,-2.7499,-2.7645,-2.7645,-2.8027,-2.8487,0.0,0.0,0.0,0.0,0.0,0.0,0.0,0.0,0.0,0.0,0.0,0.0,0.0,0.0,-3.0701,0.0,0.0,-3.1966,-3.2703,-3.3356,-3.4162,-3.5205,-3.5679,-3.5916,-3.5916,-3.6187,-3.6535,-3.6911,-3.7275,-3.751,-3.751,-3.751,-3.751,-3.751,-3.751,-3.7668,-3.7986,-3.8002,-3.816,-3.8491,-3.8491,-3.8491,-3.8491,-3.8491,-3.8318,-3.8002,-3.8002,-3.7812,-3.7494,-3.7786,-3.7915,-3.7915,-3.823,-3.8523,-3.8767,-3.9049,-3.8995,-3.881,-3.9082,-3.8957,-3.8652,0.0,0.0,0.0,0.0,0.0,0.0,0.0,0.0,0.0,0.0,-2.2678,-2.2379,-2.2231,-2.2067,-2.1967,0.0,0.0,0.0,0.0,-2.4191,-2.4546,-2.5147,-2.5425,-2.5592,-2.5647,-2.5592,-2.5674,-2.5893,-2.5674,-2.6259,-2.7522,-2.7187,-2.7853,-2.9327,-2.9389,-2.942,-2.9451,-3.0109,-2.9493,-2.8139,-2.8477,-2.8121,-2.7376,-2.7041,-2.691,-2.6963,-2.7273,-2.7401,-2.7427,-2.7564,-2.76,-2.7564,-2.7321,-2.7645,-2.8134,-2.8134,-2.8583,0.0,0.0,0.0,0.0,0.0,0.0,0.0,0.0,0.0,-3.0385,-3.0385,-3.0939,-3.146,-3.1586,-3.2187,-3.2924,-3.3593,-3.4273,-3.511,-3.6235,-3.6519,-3.6598,-3.6598,-3.6598,-3.6848,-3.7447,-3.751,-3.751,-3.751,-3.751,-3.7573,-3.77,-3.7686,-3.8002,-3.8681,-3.8697,-3.8965,-3.9487,-3.9503,-3.9503,-3.9503,-3.9503,-3.9218,-3.8697,-3.8697,-3.8333,-3.7729,-3.8119,-3.8379,-3.8518,-3.9092,-3.9348,-3.9401,-3.9969,-3.9919,-3.9523,-3.9523,-3.9523,-3.9523,0.0,0.0,0.0,0.0,0.0,0.0,0.0,0.0,0.0,0.0,0.0,0.0,0.0,0.0,0.0,0.0,0.0,0.0,-2.4042,-2.4554,-2.5112,-2.5783,-2.5839,-2.5975,-2.6217,-2.5961,-2.5866,-2.5893,-2.5866,-2.6217,-2.6877,-2.6563,-2.7067,-2.8287,-2.8624,-2.8776,-2.8759,-2.9432,-2.8957,-2.7797,-2.8174,-2.7973,-2.7401,-2.735,-2.7325,-2.735,-2.7376,-2.7401,-2.7488,-2.8165,-2.8383,-2.8431,-2.8732,-2.8912,-2.8982,-2.8982,0.0,-2.9098,-2.9098,-2.9098,-2.9098,-2.9098,-2.9595,-3.0093,0.0,0.0,-3.1097,-3.1097,-3.1665,-3.237,-3.2961,-3.3625,-3.4304,-3.5047,-3.5742,-3.6219,-3.6377,-3.6959,-3.7399,-3.7399,-3.7399,-3.7415,-3.7494,-3.751,-3.751,-3.751,-3.751,-3.7749,-3.8365,-3.8397,-3.8713,-3.9376,-3.9392,-3.9424,-3.9503,-3.9503,-3.9503,-3.9503,-3.9503,-3.9455,-3.9392,-3.9392,-3.9029,-3.838,-3.8328,-3.8601,-3.9135,-3.9697,-3.9902,-3.9978,-4.0573,-4.0776,-4.071,-4.071,-4.071,-4.071,0.0,0.0,0.0,0.0,0.0,0.0,0.0,0.0,0.0,0.0,0.0,0.0,0.0,0.0,0.0,0.0,0.0,0.0,-2.3476,-2.4054,-2.4645,-2.5277,-2.5844,-2.619,-2.6283,-2.619,-2.6231,-2.642,-2.6231,-2.6531,-2.7324,-2.6975,-2.7527,-2.88,-2.8771,-2.8972,-2.9369,-2.965,-2.9253,-2.8416,-2.8584,-2.8409,-2.7993,-2.777,-2.7845,-2.7993,-2.777,-2.7695,0.0,0.0,-2.8487,-2.8487,-2.8415,-2.8574,-2.874,-2.874,-2.892,0.0,-2.9098,-2.9398,0.0,0.0,-3.0275,-3.078,-3.078,-3.1318,-3.1823,-3.1823,-3.2718,-3.3556,-3.383,-3.4446,-3.5157,0.0,-3.6203,-3.6535,-3.6975,-3.7291,-3.751,-3.751,-3.751,-3.751,-3.751,-3.751,-3.751,-3.751,-3.7859,-3.8207,-3.8507,-3.8886,-3.9408,-4.0119,-4.0151,-4.0324,-4.0719,-4.0719,-4.0719,-4.0719,-4.0719,-4.0706,-4.0666,-4.0666,-4.0688,-4.0677,-4.0198,-4.0326,-4.0824,-4.0597,-4.0524,-4.0549,-4.0799,-4.0912,-4.0912,-4.0912,-4.0912,-4.0912,0.0,0.0,0.0,0.0,0.0,0.0,0.0,0.0,0.0,0.0,0.0,0.0,0.0,0.0,0.0,0.0,0.0,0.0,0.0,-2.3657,-2.43,-2.5015,-2.5771,-2.6258,-2.6431,-2.6445,-2.6566,-2.6806,-2.6566,-2.685,-2.7596,-2.727,-2.7821,-2.905,-2.8803,-2.8993,-2.9505,-2.9584,-2.9243,-2.8632,-2.8748,-2.8667,-2.8463,-2.8183,-2.8247,-2.8463,-2.8183,-2.8061,0.0,0.0,-2.8669,-2.8622,-2.8319,-2.8439,-2.8669,-2.8669,-2.9014,-2.9398,-2.9398,0.0,0.0,-3.0464,-3.0986,-3.1507,-3.1507,-3.2045,-3.2576,-3.2576,-3.3367,-3.413,-3.4525,-3.5031,-3.5679,-3.6564,-3.6706,-3.6896,-3.7431,-3.751,-3.751,-3.751,-3.751,-3.751,-3.751,-3.751,-3.751,-3.751,-3.8128,-3.8602,-3.8776,-3.9439,-4.0135,-4.0846,-4.0877,-4.1099,-4.1588,-4.1588,-4.1588,-4.1588,-4.1588,-4.1661,-4.1792,-4.1794,-4.2051,-4.2533,-4.1805,-4.169,-4.1964,-4.1429,-4.1084,-4.0912,-4.0912,-4.0912,-4.0912,-4.0912,-4.0912,-4.0912,0.0,0.0,0.0,0.0,0.0,0.0,0.0,0.0,0.0,0.0,0.0,0.0,0.0,0.0,0.0,0.0,0.0,0.0,0.0,-2.3598,-2.4341,-2.5354,-2.5654,-2.6112,-2.6765,-2.6779,-2.6779,-2.6806,-2.6779,-2.7003,-2.7405,-2.7063,-2.745,-2.8439,-2.8465,-2.8491,-2.8465,-2.8781,-2.8541,-2.7953,-2.8374,-2.8518,-2.8487,-2.8487,-2.8487,-2.8487,-2.8487,0.0,0.0,0.0,-2.9075,-2.9075,-2.9075,-2.9075,0.0,-2.9075,-2.9611,0.0,0.0,0.0,-3.1167,-3.1167,-3.1713,-3.226,-3.226,-3.2797,-3.3277,-3.3277,-3.3309,-3.3751,-3.511,-3.5379,-3.5837,-3.7257,-3.7478,-3.7478,-3.751,-3.751,-3.751,-3.751,-3.751,-3.751,0.0,-3.751,-3.751,-3.751,-3.8128,-3.8792,-3.9424,-4.0166,-4.0862,-4.1541,-4.1557,-4.1573,-4.1588,-4.1588,-4.1588,-4.1588,-4.1588,-4.1948,-4.2552,-4.2502,-4.2762,-4.324,-4.2567,-4.2151,-4.2016,-4.1999,-4.155,-4.0912,-4.0912,-4.0912,-4.0912,-4.0912,-4.0912,-4.0912,0.0,0.0,0.0,0.0,0.0,0.0,0.0,0.0,0.0,0.0,0.0,0.0,0.0,0.0,0.0,0.0,0.0,0.0,0.0,-2.376,-2.437,-2.4716,-2.5427,-2.6132,-2.6867,-2.7088,-2.7196,-2.7196,-2.7433,-2.7484,-2.7401,-2.7504,-2.7896,-2.8471,-2.8495,-2.8633,-2.8852,-2.8979,-2.8887,-2.8693,-2.885,-2.8897,-2.8897,-2.8897,-2.8897,-2.8897,0.0,0.0,0.0,0.0,0.0,-2.9098,-2.9098,-2.9098,-2.9193,-2.969,-3.0006,-3.0315,0.0,0.0,-3.1943,-3.1943,-3.244,-3.2945,-3.2945,-3.3135,-3.3309,-3.3309,-3.3656,-3.4257,-3.5205,-3.5758,-3.639,-3.7352,-3.751,-3.751,-3.751,-3.751,-3.751,-3.751,-3.751,0.0,0.0,0.0,0.0,-3.8128,-3.8792,-3.9487,-4.0182,-4.0893,-4.1367,-4.1588,-4.1588,-4.1588,-4.1588,-4.1588,-4.1802,-4.2269,-4.3108,-4.3634,-4.3869,-4.4242,-4.4514,-4.4641,-4.394,-4.3606,-4.35,-4.3,-4.2654,-4.2378,-4.1843,-4.1636,-4.1585,-4.1084,-4.0912,-4.0912,0.0,0.0,0.0,0.0,0.0,0.0,0.0,0.0,0.0,0.0,0.0,0.0,0.0,0.0,0.0,0.0,0.0,0.0,0.0,0.0,-2.4335,-2.4575,-2.5162,-2.5911,-2.687,-2.7105,-2.735,-2.7585,-2.779,-2.7854,-2.78,-2.8002,-2.8343,-2.8716,-2.8716,-2.885,-2.9098,-2.9098,-2.9098,-2.9098,-2.9098,-2.9098,-2.9098,-2.9098,-2.9098,0.0,0.0,0.0,0.0,0.0,0.0,-2.9098,-2.9098,-2.9098,-2.924,-2.9975,-3.0354,-3.0701,-3.1397,-3.2108,-3.2671,-3.2671,-3.2977,-3.3309,-3.3309,-3.3309,-3.3309,-3.3309,-3.364,-3.4162,-3.4873,-3.5363,-3.5979,-3.6943,-3.7101,-3.7196,-3.7478,-3.751,-3.751,-3.751,-3.751,0.0,0.0,0.0,0.0,-3.8476,-3.9376,-4.0103,-4.0577,-4.1241,-4.172,-4.1964,-4.1964,-4.2045,-4.2285,-4.2285,-4.2506,-4.2925,-4.3985,-4.4502,-4.453,-4.5113,-4.5397,-4.5363,-4.4906,-4.4552,-4.4259,-4.3793,-4.3431,-4.3138,-4.2637,-4.2258,-4.1947,-4.1481,-4.1136,-4.0912,0.0,0.0,0.0,0.0,0.0,0.0,0.0,0.0,0.0,0.0,0.0,0.0,0.0,0.0,0.0,0.0,0.0,0.0,0.0,0.0,0.0,-2.4849,-2.4887,-2.5516,-2.6836,-2.6888,-2.7246,-2.7877,-2.7932,-2.8158,-2.8487,-2.8511,-2.8716,-2.9098,-2.9098,-2.9098,-2.9098,-2.9098,-2.9098,-2.9098,-2.9098,-2.9098,-2.9098,-2.9098,0.0,0.0,0.0,0.0,0.0,0.0,0.0,0.0,0.0,-2.913,-2.9304,-3.0046,-3.0733,-3.1428,-3.2149,-3.2845,-3.334,-3.3309,-3.3324,-3.334,-3.3309,-3.3309,-3.3309,-3.3309,-3.3309,-3.3498,0.0,0.0,-3.4747,-3.6124,-3.6377,-3.6629,-3.7368,-3.7478,-3.751,0.0,0.0,0.0,0.0,0.0,0.0,-3.8618,0.0,-4.0609,-4.064,-4.1273,-4.1932,-4.2585,-4.2648,-4.2941,-4.3482,-4.3542,-4.3542,-4.3571,-4.4214,-4.4558,-4.4558,-4.514,-4.5397,-4.5397,-4.5397,-4.501,-4.4363,-4.4363,-4.3949,-4.331,-4.3276,-4.2792,-4.212,-4.2026,-4.1567,-4.0963,0.0,0.0,0.0,0.0,0.0,0.0,0.0,0.0,0.0,0.0,0.0,0.0,0.0,0.0,0.0,0.0,0.0,0.0,0.0,0.0,0.0,0.0,0.0,0.0,0.0,0.0,0.0,0.0,-2.8397,-2.8693,-2.8511,-2.8803,-2.9006,-2.9098,-2.9098,-2.9098,-2.9098,-2.9098,-2.9098,-2.9098,0.0,-2.9098,-2.9098,0.0,0.0,0.0,0.0,0.0,0.0,0.0,0.0,0.0,0.0,-2.9485,-3.0038,-3.0749,-3.1444,-3.2181,-3.285,-3.353,-3.3925,-3.3419,-3.3672,-3.3909,-3.3419,-3.3309,-3.3309,-3.3309,-3.3309,-3.3498,0.0,0.0,0.0,-3.5505,-3.6061,0.0,-3.6629,-3.7148,0.0,0.0,0.0,-3.7686,-3.8207,-3.8855,0.0,0.0,-4.0403,-4.0814,-4.1304,-4.1997,-4.2428,-4.2585,-4.3047,-4.3333,-4.3512,-4.4013,-4.4259,-4.4259,-4.4862,-4.5167,-4.5167,-4.5344,-4.5397,-4.5397,-4.5397,-4.5276,-4.513,-4.513,-4.5027,-4.4785,-4.4242,-4.3897,-4.3569,-4.243,-4.1871,-4.1723,0.0,0.0,0.0,0.0,0.0,0.0,0.0,0.0,0.0,0.0,0.0,0.0,0.0,0.0,0.0,0.0,0.0,0.0,0.0,0.0,0.0,0.0,0.0,0.0,0.0,0.0,0.0,0.0,0.0,0.0,-2.8764,-2.8691,-2.8814,-2.9098,-2.9098,-2.9098,-2.9098,-2.9098,0.0,0.0,0.0,0.0,0.0,0.0,0.0,0.0,0.0,0.0,0.0,0.0,0.0,-2.9098,-2.9098,-2.9611,-3.0346,-3.1002,0.0,-3.2513,-3.3467,-3.4004,-3.4209,-3.383,-3.402,-3.4115,-3.3451,-3.3309,-3.3309,-3.3309,-3.3309,0.0,0.0,0.0,0.0,0.0,0.0,0.0,-3.6361,-3.7239,-3.7756,0.0,-3.7984,0.0,-3.8506,-3.9655,-4.0543,0.0,-4.1007,-4.1193,-4.1573,-4.2254,-4.2725,-4.2986,-4.3617,-4.4054,-4.4311,-4.4725,-4.4906,-4.4906,-4.522,-4.5397,-4.5397,-4.5397,-4.5397,-4.5397,0.0,-4.5397,-4.5397,-4.5397,-4.5397,-4.5363,-4.4941,-4.4578,-4.4207,-4.3327,-4.281,-4.2568,0.0,0.0,0.0,0.0,0.0,0.0,0.0,0.0,0.0,0.0,0.0,0.0,0.0,0.0,0.0,0.0,0.0,0.0,0.0,0.0,0.0,0.0,0.0,0.0,0.0,0.0,0.0,0.0,0.0,0.0,0.0,0.0,0.0,0.0,0.0,0.0,0.0,0.0,0.0,0.0,0.0,0.0,0.0,0.0,0.0,0.0,0.0,0.0,0.0,0.0,-2.9305,-2.9098,-2.9098,-2.9674,-3.0433,-3.1033,-3.1776,-3.2703,-3.3957,-3.4288,-3.4288,-3.4288,-3.4288,-3.4115,-3.3451,-3.3309,-3.3335,-3.3398,0.0,-3.3424,-3.3503,0.0,-3.3588,-3.4175,0.0,-3.5601,-3.6283,-3.7476,-3.8141,-3.7756,-3.8731,-3.9226,-3.877,-4.0423,-4.1549,-4.1646,-4.1757,-4.1851,-4.1851,-4.2491,-4.3139,-4.3748,-4.4316,-4.4879,-4.5397,-4.5397,-4.5397,-4.5397,-4.5397,-4.5397,-4.5397,-4.5397,-4.5397,-4.5397,-4.5397,0.0,-4.5397,-4.5397,-4.5397,-4.5397,-4.5397,-4.501,-4.4449,-4.4345,-4.3897,-4.3431,0.0,0.0,0.0,0.0,0.0,0.0,0.0,0.0,0.0,0.0,-2.5005,0.0,0.0,0.0,0.0,0.0,0.0,0.0,0.0,0.0,0.0,0.0,0.0,0.0,0.0,0.0,0.0,0.0,0.0,0.0,0.0,0.0,0.0,0.0,0.0,0.0,0.0,0.0,0.0,0.0,0.0,0.0,0.0,0.0,0.0,0.0,0.0,0.0,0.0,0.0,-2.9144,-2.9098,-2.9098,-2.9982,-3.1065,-3.1176,-3.2124,-3.3293,-3.4083,-3.4288,-3.4288,-3.4288,-3.4288,-3.4115,-3.3451,-3.3309,0.0,0.0,0.0,-3.4084,-3.4472,-3.4218,0.0,-3.4111,0.0,0.0,0.0,0.0,-3.8255,0.0,0.0,0.0,0.0,0.0,0.0,0.0,0.0,-4.3183,-4.3183,-4.381,-4.4457,-4.5042,-4.5194,-4.5274,-4.5397,-4.5397,-4.5397,-4.5397,-4.5397,-4.5397,-4.5397,-4.5397,-4.5397,-4.5397,-4.5397,0.0,-4.5397,-4.5397,-4.5397,-4.5397,-4.5397,-4.5311,-4.5147,-4.4535,-4.4225,-4.4138,0.0,0.0,0.0,0.0,0.0,0.0,0.0,0.0,0.0,0.0,-2.5005,-2.5005,0.0,0.0,0.0,0.0,0.0,0.0,0.0,0.0,0.0,0.0,0.0,0.0,0.0,0.0,0.0,0.0,0.0,0.0,0.0,0.0,0.0,0.0,0.0,0.0,0.0,0.0,0.0,0.0,0.0,0.0,0.0,0.0,0.0,0.0,0.0,0.0,0.0,0.0,-2.9454,-2.9425,-2.9167,-3.0061,-3.1198,-3.1198,-3.2203,-3.3451,-3.4115,-3.4288,-3.4288,-3.4288,-3.4288,-3.4222,-3.3848,0.0,0.0,0.0,0.0,-3.4545,-3.4464,0.0,0.0,0.0,0.0,0.0,0.0,0.0,0.0,0.0,0.0,0.0,0.0,0.0,0.0,0.0,0.0,-4.4197,-4.3542,-4.4128,-4.4769,-4.5371,-4.5397,-4.5397,-4.5397,-4.5397,-4.5397,-4.5397,-4.5397,-4.5397,-4.5397,-4.5397,-4.5397,-4.5397,-4.5397,0.0,-4.5397,-4.5397,-4.5397,-4.5397,-4.5397,-4.5397,-4.5363,-4.501,-4.4872,-4.4872,0.0,0.0,0.0,0.0,0.0,0.0,0.0,-2.5107,-2.5088,-2.5005,-2.5005,-2.5005,-2.5005,-2.5048,-2.5068,0.0,0.0,0.0,0.0,0.0,0.0,0.0,0.0,0.0,0.0,0.0,0.0,0.0,0.0,0.0,0.0,0.0,0.0,0.0,0.0,0.0,0.0,0.0,0.0,0.0,0.0,0.0,0.0,0.0,0.0,0.0,0.0,0.0,0.0,0.0,-2.9837,-2.9815,-2.938,-3.0069,-3.1091,-3.1249,-3.2159,-3.3261,-3.4067,-3.4286,-3.4287,-3.4446,-3.4431,-3.4396,-3.4374,-3.4366,0.0,0.0,-3.4901,-3.5081,-3.469,0.0,0.0,0.0,0.0,0.0,0.0,0.0,0.0,0.0,0.0,0.0,0.0,0.0,0.0,0.0,0.0,0.0,-4.3951,-4.4401,-4.4906,-4.5397,-4.5397,-4.5397,-4.5397,-4.5397,-4.5397,-4.5397,-4.5397,-4.5397,-4.5397,-4.5397,-4.5397,-4.5397,-4.5397,0.0,0.0,-4.5397,-4.5397,-4.5397,-4.5397,-4.5397,-4.5397,-4.5397,-4.5397,-4.5397,0.0,0.0,0.0,0.0,0.0,0.0,0.0,-2.5446,-2.5329,-2.5045,-2.5005,-2.5005,-2.5005,-2.5269,0.0,0.0,0.0,0.0,0.0,0.0,0.0,0.0,0.0,0.0,0.0,0.0,0.0,0.0,0.0,0.0,0.0,0.0,0.0,0.0,0.0,0.0,0.0,0.0,0.0,0.0,0.0,0.0,0.0,0.0,0.0,0.0,0.0,0.0,0.0,0.0,0.0,-3.0187,-2.9853,-3.0119,-3.0703,-3.1366,0.0,0.0,-3.3941,-3.4202,-3.4267,-3.4881,-3.4896,-3.478,-3.4911,0.0,0.0,-3.5627,-3.5781,-3.5907,-3.6216,-3.5907,0.0,0.0,0.0,0.0,0.0,0.0,0.0,0.0,0.0,0.0,0.0,0.0,0.0,0.0,0.0,0.0,-4.522,-4.5274,-4.5344,-4.5397,-4.5397,-4.5397,-4.5397,-4.5397,-4.5397,-4.5397,-4.5397,-4.5397,-4.5397,-4.5397,-4.5397,-4.5397,-4.5397,0.0,0.0,-4.5397,-4.5397,-4.5397,-4.5397,-4.5397,-4.5397,-4.5397,-4.5397,-4.5397,0.0,0.0,0.0,0.0,0.0,0.0,0.0,-2.5854,-2.5726,-2.5365,-2.5307,-2.5227,-2.5025,-2.5307,-2.5462,0.0,0.0,0.0,0.0,0.0,0.0,0.0,0.0,0.0,0.0,0.0,0.0,0.0,0.0,0.0,0.0,0.0,0.0,0.0,0.0,0.0,0.0,0.0,0.0,0.0,0.0,0.0,0.0,0.0,0.0,0.0,0.0,0.0,0.0,0.0,0.0,0.0,-3.0638,-3.0675,0.0,0.0,-3.17,-3.261,-3.301,-3.3237,-3.3565,-3.4302,-3.4463,-3.4633,-3.5363,0.0,0.0,-3.5972,-3.6245,-3.6388,-3.6178,-3.622,-3.6156,0.0,0.0,0.0,0.0,0.0,0.0,0.0,0.0,0.0,0.0,0.0,0.0,0.0,0.0,0.0,-4.5397,-4.5397,-4.5397,-4.5397,-4.5397,-4.5397,-4.5397,-4.5397,-4.5397,-4.5397,-4.5397,-4.5397,-4.5397,-4.5397,-4.5397,-4.5397,-4.5397,0.0,0.0,-4.5397,-4.5397,-4.5397,-4.5397,-4.5397,-4.5397,-4.5397,-4.5397,-4.5397,0.0,0.0,0.0,0.0,0.0,0.0,-2.6333,-2.628,-2.6123,-2.5726,-2.5577,-2.5424,-2.5169,-2.5269,-2.5387,-2.5484,0.0,0.0,0.0,0.0,0.0,0.0,0.0,0.0,0.0,0.0,0.0,0.0,0.0,0.0,0.0,0.0,0.0,0.0,0.0,0.0,0.0,0.0,0.0,0.0,0.0,0.0,0.0,0.0,0.0,0.0,0.0,0.0,0.0,0.0,0.0,0.0,0.0,0.0,0.0,0.0,-3.166,-3.242,-3.2426,-3.291,-3.3529,-3.4053,-3.4532,-3.5105,0.0,0.0,-3.6326,-3.6367,-3.6632,-3.6731,-3.6245,-3.6468,-3.6564,-3.6015,0.0,0.0,0.0,0.0,0.0,0.0,0.0,0.0,0.0,0.0,0.0,0.0,0.0,0.0,0.0,-4.5397,-4.5397,-4.5397,-4.5397,-4.5397,-4.5397,-4.5397,-4.5397,-4.5397,-4.5397,-4.5397,-4.5397,-4.5397,-4.5397,-4.5397,-4.5397,0.0,0.0,-4.5397,-4.5397,-4.5397,-4.5397,-4.5397,-4.5397,-4.5397,-4.5397,-4.5397,0.0,0.0,0.0,0.0,0.0,0.0,0.0,-2.6691,-2.6539,-2.6157,-2.5744,-2.5503,-2.5503,-2.5208,-2.5146,-2.5465,0.0,0.0,0.0,0.0,0.0,0.0,0.0,0.0,0.0,0.0,0.0,-2.5586,-2.5586,0.0,0.0,0.0,0.0,0.0,0.0,0.0,0.0,0.0,0.0,0.0,0.0,0.0,0.0,0.0,0.0,0.0,0.0,0.0,0.0,0.0,0.0,0.0,0.0,0.0,0.0,0.0,-3.1946,-3.1942,-3.2536,-3.3616,-3.4558,-3.4438,-3.5442,-3.6523,0.0,0.0,-3.6829,-3.695,-3.6989,-3.6968,-3.6829,-3.6809,-3.6728,-3.6523,-3.6161,0.0,0.0,0.0,0.0,0.0,0.0,0.0,0.0,0.0,0.0,0.0,0.0,0.0,0.0,-4.5397,-4.5397,-4.5397,-4.5397,-4.5397,-4.5397,-4.5397,-4.5397,-4.5397,-4.5397,-4.5397,-4.5397,-4.5397,-4.5397,0.0,0.0,0.0,0.0,-4.5397,-4.5397,-4.5397,-4.5397,-4.5397,-4.5397,-4.5397,-4.5397,-4.5397,0.0,0.0,0.0,0.0,0.0,0.0,0.0,-2.7215,-2.7022,-2.6641,-2.6176,-2.5817,-2.5521,-2.5208,-2.5045,-2.515,0.0,0.0,0.0,0.0,0.0,0.0,0.0,0.0,0.0,0.0,-2.5952,-2.5807,-2.5807,-2.5733,-2.5605,-2.553,0.0,0.0,0.0,0.0,0.0,0.0,0.0,0.0,0.0,0.0,0.0,0.0,0.0,0.0,0.0,0.0,0.0,0.0,0.0,0.0,0.0,0.0,0.0,-3.2297,0.0,0.0,-3.2702,-3.3368,-3.4146,-3.5168,-3.5822,-3.6322,-3.6687,-3.6869,-3.6948,-3.6987,-3.7007,-3.6987,-3.693,-3.6948,-3.6888,-3.6728,-3.669,0.0,0.0,0.0,0.0,0.0,0.0,0.0,0.0,0.0,0.0,0.0,0.0,0.0,0.0,-4.569,-4.5397,-4.5397,-4.5397,-4.5397,-4.5397,-4.5397,-4.5397,-4.5397,-4.5397,-4.5397,-4.5397,-4.5397,-4.5397,0.0,0.0,0.0,0.0,-4.5397,-4.5397,-4.5397,-4.5397,-4.5397,-4.5397,-4.5397,-4.5397,-4.5397,0.0,0.0,0.0,0.0,0.0,0.0,0.0,-2.7467,-2.7359,-2.7103,-2.6674,-2.6229,-2.5801,-2.5519,-2.5301,-2.5123,0.0,0.0,0.0,0.0,0.0,0.0,0.0,0.0,0.0,-2.5989,-2.6041,-2.5897,-2.597,-2.5952,-2.5826,-2.5752,-2.5752,-2.5826,0.0,0.0,0.0,0.0,0.0,0.0,0.0,0.0,-2.8551,0.0,0.0,0.0,0.0,0.0,0.0,0.0,0.0,0.0,0.0,0.0,0.0,0.0,-3.2336,0.0,0.0,-3.3271,-3.4157,-3.5098,-3.5852,0.0,0.0,-3.6891,-3.7007,-3.7007,-3.7007,-3.7007,-3.7007,-3.7007,-3.6968,-3.6829,-3.6911,0.0,0.0,0.0,0.0,0.0,0.0,0.0,0.0,0.0,0.0,0.0,0.0,0.0,0.0,-4.647,-4.6322,-4.6259,-4.569,-4.5397,-4.5397,-4.5397,-4.5397,-4.5397,-4.545,-4.5476,-4.5476,-4.5528,-4.5528,0.0,0.0,0.0,0.0,-4.5397,-4.5397,-4.5397,-4.5397,-4.5397,-4.5397,-4.5397,-4.5397,-4.5397,0.0,0.0,0.0,0.0,0.0,0.0,0.0,0.0,0.0,0.0,-2.7164,-2.6723,-2.6299,-2.6104,-2.5813,0.0,0.0,0.0,0.0,0.0,0.0,0.0,0.0,0.0,0.0,-2.5844,-2.5952,-2.5934,-2.6114,-2.6202,-2.6202,-2.6007,-2.6007,-2.6185,-2.6025,-2.6136,-2.6504,-2.7021,-2.7386,-2.7602,-2.7481,-2.7787,0.0,0.0,0.0,0.0,0.0,0.0,0.0,0.0,0.0,0.0,0.0,0.0,0.0,0.0,0.0,0.0,0.0,0.0,0.0,0.0,0.0,0.0,0.0,-3.6908,0.0,-3.7007,-3.7007,-3.7007,-3.7007,-3.7007,-3.6968,-3.6831,0.0,0.0,0.0,0.0,0.0,0.0,0.0,0.0,0.0,0.0,0.0,0.0,0.0,0.0,0.0,-4.7426,-4.7709,-4.7658,-4.6199,-4.5458,-4.551,-4.5458,-4.5423,-4.5423,-4.5554,-4.5607,-4.5607,-4.5718,-4.5693,0.0,0.0,0.0,0.0,-4.5397,-4.5397,-4.5397,-4.5397,-4.5397,-4.5397,-4.5397,-4.5397,-4.5397,0.0,0.0,0.0,0.0,0.0,0.0,0.0,0.0,0.0,0.0,0.0,-2.6807,-2.674,-2.6211,0.0,0.0,0.0,0.0,0.0,0.0,0.0,0.0,0.0,0.0,0.0,-2.6278,-2.6329,-2.6132,-2.6184,-2.6202,-2.6202,-2.615,-2.615,-2.622,-2.638,-2.6708,-2.7182,-2.7461,-2.7627,-2.7672,-2.7642,-2.7717,0.0,0.0,0.0,0.0,-3.1897,-3.2406,0.0,0.0,0.0,0.0,0.0,0.0,0.0,0.0,-3.2406,-3.2388,-3.2354,0.0,-3.4774,-3.5332,-3.621,-3.695,0.0,-3.6987,-3.7007,-3.7007,0.0,0.0,-3.7007,0.0,0.0,0.0,0.0,0.0,0.0,0.0,0.0,0.0,0.0,0.0,0.0,0.0,0.0,0.0,0.0,0.0,0.0,-4.6526,-4.6561,-4.7133,-4.6213,-4.5936,-4.648,-4.5953,-4.5641,-4.5537,-4.5563,-4.5554,-4.545,-4.5476,-4.5476,0.0,0.0,0.0,-4.5397,-4.5397,-4.5397,-4.5397,-4.5397,-4.5397,-4.5397,-4.5397,-4.5397,-4.5423,0.0,0.0,0.0,0.0,0.0,0.0,0.0,0.0,0.0,0.0,0.0,0.0,0.0,0.0,0.0,0.0,0.0,0.0,0.0,0.0,0.0,0.0,0.0,0.0,-2.6068,-2.6435,-2.6572,-2.6417,-2.6399,-2.638,-2.638,-2.6257,-2.6202,-2.6203,-2.6485,-2.6825,-2.723,-2.7463,-2.763,-2.7701,-2.7701,0.0,0.0,0.0,0.0,0.0,-3.1844,-3.2406,0.0,-3.2406,-3.2406,-3.2406,0.0,0.0,0.0,0.0,-3.2406,-3.2406,-3.2406,-3.3266,-3.4249,-3.4653,-3.5601,-3.6443,-3.6443,0.0,0.0,0.0,0.0,0.0,0.0,0.0,0.0,0.0,0.0,0.0,0.0,0.0,0.0,0.0,0.0,0.0,0.0,0.0,0.0,0.0,0.0,0.0,0.0,-4.6995,-4.7126,-4.7482,-4.6804,-4.6412,-4.6352,-4.5996,-4.577,-4.5693,-4.5744,-4.5761,-4.5684,-4.5744,-4.5718,0.0,0.0,0.0,-4.5563,-4.5563,-4.5563,-4.5581,-4.5528,-4.5528,-4.5581,-4.5528,-4.5528,-4.5589,0.0,0.0,0.0,0.0,0.0,0.0,0.0,0.0,0.0,0.0,0.0,0.0,0.0,0.0,0.0,0.0,0.0,0.0,0.0,0.0,0.0,0.0,0.0,-2.6724,-2.6192,-2.659,-2.6791,-2.6741,-2.6657,-2.6589,-2.6589,-2.6328,-2.6239,-2.6329,-2.6606,-2.6875,-2.7117,-2.734,-2.7554,-2.7701,-2.7701,0.0,0.0,0.0,0.0,0.0,0.0,0.0,0.0,-3.2406,-3.2406,-3.2406,-3.2406,0.0,0.0,0.0,0.0,0.0,-3.2406,-3.2845,-3.3353,-3.3459,-3.4565,-3.5652,-3.5775,0.0,0.0,0.0,0.0,0.0,0.0,0.0,0.0,0.0,0.0,0.0,0.0,0.0,0.0,0.0,0.0,0.0,0.0,0.0,0.0,0.0,0.0,0.0,0.0,-4.7289,-4.7561,-4.7448,-4.709,-4.6496,-4.5715,-4.5794,-4.5846,-4.5821,-4.5947,-4.5998,-4.5972,-4.6073,-4.6073,-4.5972,0.0,0.0,-4.5795,-4.5795,-4.5795,-4.5795,-4.5667,-4.5693,-4.5787,-4.5667,-4.5693,-4.5795,0.0,0.0,0.0,0.0,0.0,0.0,0.0,0.0,0.0,0.0,0.0,0.0,0.0,0.0,0.0,0.0,0.0,0.0,0.0,0.0,0.0,0.0,-2.7277,-2.723,-2.702,-2.7198,-2.7182,-2.6957,-2.6725,-2.6589,-2.6589,-2.6328,-2.6434,-2.6891,-2.7168,-2.7402,-2.7597,-2.7642,-2.7672,-2.7701,-2.7701,0.0,0.0,0.0,0.0,0.0,0.0,0.0,0.0,-3.2406,-3.2406,-3.2406,-3.2406,0.0,0.0,0.0,0.0,0.0,-3.2406,-3.2476,-3.2722,-3.3336,-3.4196,-3.5021,-3.5652,0.0,0.0,0.0,0.0,0.0,0.0,0.0,0.0,0.0,0.0,0.0,0.0,0.0,0.0,0.0,0.0,0.0,0.0,0.0,0.0,0.0,0.0,0.0,0.0,-4.4512,-4.4558,-4.4535,-4.512,-4.5348,-4.5201,-4.5832,-4.6073,-4.5972,-4.5998,-4.5947,-4.5821,-4.5846,-4.5846,-4.5821,0.0,-4.5821,-4.5795,-4.5795,-4.5795,-4.5795,-4.5787,-4.577,-4.5795,-4.5787,-4.577,-4.5838,0.0,0.0,0.0,0.0,0.0,0.0,0.0,0.0,0.0,0.0,0.0,0.0,0.0,0.0,0.0,0.0,0.0,0.0,0.0,0.0,0.0,-2.7569,-2.7569,-2.7494,-2.7308,-2.7478,-2.7491,-2.7384,-2.7151,-2.6957,-2.6809,-2.6537,-2.664,-2.7006,-2.7279,-2.7465,-2.7554,-2.7657,-2.7701,-2.7701,0.0,0.0,0.0,0.0,0.0,0.0,0.0,0.0,0.0,0.0,-3.2406,-3.2406,-3.2406,0.0,0.0,0.0,0.0,0.0,-3.2406,-3.2406,-3.2476,-3.2809,-3.3476,-3.4126,-3.4476,0.0,0.0,0.0,0.0,0.0,0.0,0.0,0.0,0.0,0.0,0.0,0.0,0.0,0.0,0.0,0.0,0.0,0.0,0.0,0.0,0.0,0.0,0.0,0.0,0.0,-4.3904,-4.3904,-4.4255,-4.4448,-4.4448,-4.5,-4.5576,-4.6097,-4.6097,-4.6073,-4.6023,-4.6023,-4.6023,-4.6023,0.0,-4.6023,-4.6023,-4.6023,-4.6023,-4.5998,-4.5922,-4.5947,-4.6023,-4.6023,-4.6023,-4.597,0.0,0.0,0.0,0.0,0.0,0.0,0.0,0.0,0.0,0.0,0.0,0.0,0.0,0.0,0.0,0.0,0.0,0.0,0.0,0.0,-2.7701,-2.7701,-2.7701,-2.7627,-2.7463,-2.7612,-2.7701,-2.7701,-2.7494,-2.7246,-2.6989,-2.6859,-2.6892,-2.7103,-2.7355,-2.7481,-2.7478,-2.7627,-2.7701,-2.7701,0.0,0.0,0.0,0.0,0.0,0.0,0.0,0.0,0.0,0.0,0.0,0.0,0.0,0.0,0.0,-3.2406,-3.2406,-3.2406,-3.2406,-3.2406,-3.2406,-3.2406,0.0,-3.3283,-3.3459,0.0,0.0,0.0,0.0,0.0,0.0,0.0,0.0,0.0,0.0,0.0,0.0,0.0,0.0,0.0,0.0,0.0,0.0,0.0,0.0,0.0,0.0,0.0,0.0,0.0,-4.336,-4.336,-4.3535,-4.3641,-4.3641,-4.4129,-4.4797,-4.5653,-4.5834,-4.5882,-4.5804,-4.5906,-4.5882,-4.5804,-4.5804,-4.5732,-4.5653,-4.5653,-4.5653,-4.5653,-4.5555,-4.5579,-4.5653,-4.5653,-4.5653,-4.5565,0.0,0.0,0.0,0.0,0.0,0.0,0.0,0.0,0.0,0.0,0.0,0.0,0.0,0.0,0.0,0.0,0.0,0.0,0.0,0.0,-2.7701,-2.7701,-2.7701,-2.7701,-2.7686,-2.7701,-2.7701,-2.7701,-2.7494,-2.7246,-2.7006,-2.723,-2.7357,-2.7388,-2.76,-2.7686,-2.7686,-2.7683,-2.7701,-2.7701,-2.7701,0.0,0.0,0.0,0.0,0.0,0.0,0.0,0.0,0.0,0.0,0.0,0.0,0.0,-3.2406,-3.2406,-3.2406,-3.2406,-3.2406,-3.2406,-3.2406,-3.2406,-3.2441,0.0,-3.3336,-3.3599,0.0,-3.4618,0.0,0.0,0.0,0.0,0.0,0.0,0.0,0.0,0.0,0.0,0.0,0.0,0.0,0.0,0.0,0.0,0.0,0.0,0.0,0.0,0.0,0.0,0.0,-4.178,-4.25,-4.2886,-4.2886,-4.3599,-4.3986,-4.4085,-4.4807,-4.4977,-4.4648,-4.5018,-4.4977,-4.4609,-4.4609,-4.4422,-4.4062,-4.4062,-4.4062,-4.4062,-4.4062,-4.4062,-4.4062,-4.4062,-4.4062,-4.4062,0.0,0.0,0.0,0.0,0.0,0.0,0.0,0.0,0.0,0.0,0.0,0.0,0.0,0.0,0.0,0.0,0.0,0.0,0.0,0.0,-2.7701,-2.7701,-2.7701,-2.7701,-2.7701,-2.7701,-2.7701,-2.7701,-2.7494,-2.7402,-2.7428,-2.7402,-2.7481,-2.76,-2.7672,-2.7701,-2.7701,-2.7701,-2.7701,-2.7701,-2.7701,-2.7999,0.0,0.0,0.0,0.0,0.0,0.0,0.0,0.0,-3.2406,-3.2406,-3.2406,-3.2406,-3.2406,-3.2406,-3.2406,-3.2406,-3.2406,-3.2406,-3.2406,-3.2406,-3.2406,0.0,0.0,-3.3178,-3.3739,-3.453,0.0,0.0,0.0,0.0,0.0,0.0,0.0,0.0,0.0,0.0,0.0,0.0,0.0,0.0,0.0,0.0,0.0,0.0,0.0,0.0,0.0,0.0,0.0,-4.1604,-4.1903,-4.2061,-4.2061,-4.2577,-4.2831,-4.2871,-4.4117,-4.4794,-4.488,-4.5023,-4.488,-4.4492,-4.4492,-4.4267,-4.3904,-4.3904,-4.3904,-4.3904,-4.3904,-4.3904,-4.3904,-4.3904,-4.3904,-4.3834,0.0,0.0,0.0,0.0,0.0,0.0,0.0,0.0,0.0,0.0,0.0,0.0,0.0,0.0,0.0,0.0,0.0,0.0,0.0,-2.7701,-2.7701,-2.7701,-2.7701,-2.7701,-2.7701,-2.7701,-2.7701,-2.7701,-2.7569,-2.7569,-2.7701,-2.7569,-2.7569,-2.7701,-2.7701,-2.7701,-2.7701,-2.7701,-2.7701,-2.7701,-2.7701,-2.8175,0.0,0.0,0.0,0.0,0.0,0.0,0.0,0.0,-3.2474,-3.2506,0.0,-3.2474,-3.2523,-3.2523,-3.2456,-3.2422,-3.2489,-3.2456,-3.2406,-3.2406,0.0,0.0,-3.2687,-3.3125,-3.3652,0.0,0.0,0.0,0.0,0.0,0.0,0.0,0.0,0.0,0.0,0.0,0.0,0.0,0.0,0.0,0.0,0.0,0.0,0.0,0.0,0.0,0.0,0.0,0.0,0.0,-4.2502,-4.236,-4.236,-4.2384,-4.2442,-4.2598,-4.3658,-4.4303,-4.4576,-4.469,-4.446,-4.3975,-4.3975,-4.3653,-4.3167,-4.3167,-4.3167,-4.3167,-4.3167,-4.3167,-4.3167,-4.3167,-4.3167,-4.3096,0.0,0.0,0.0,0.0,0.0,0.0,0.0,0.0,0.0,0.0,0.0,0.0,0.0,0.0,0.0,0.0,0.0,0.0,-2.7701,-2.7701,-2.7701,-2.7701,-2.7701,-2.7701,-2.7701,-2.7701,-2.7701,-2.7701,-2.7701,-2.7701,-2.7701,-2.7701,-2.7701,-2.7701,-2.7701,-2.7701,-2.7701,-2.7701,-2.7701,-2.7701,-2.7701,-2.8193,-2.9,0.0,0.0,0.0,0.0,0.0,0.0,0.0,-3.2589,-3.2765,-3.249,0.0,-3.2795,-3.2795,-3.2605,-3.2456,-3.2734,-3.2588,-3.2406,0.0,0.0,0.0,0.0,-3.3512,-3.3511,0.0,0.0,0.0,0.0,0.0,0.0,0.0,0.0,0.0,0.0,0.0,0.0,0.0,0.0,0.0,0.0,0.0,0.0,0.0,0.0,0.0,0.0,0.0,0.0,-4.5316,-4.446,-4.4006,-4.4006,-4.3208,-4.3032,-4.3406,-4.3406,-4.3406,-4.3423,-4.3809,-4.3559,-4.281,-4.281,-4.236,-4.1604,-4.1604,-4.1604,-4.1604,-4.1604,-4.1604,-4.1604,-4.1604,-4.1604,-4.1604,0.0,0.0,0.0,0.0,0.0,0.0,0.0,0.0,0.0,0.0,0.0,0.0,0.0,0.0,0.0,0.0,0.0,0.0,-2.7701,-2.7701,-2.7701,-2.7701,-2.7701,-2.7701,-2.7701,-2.7701,-2.7701,-2.7701,-2.7701,-2.7701,-2.7701,-2.7701,-2.7701,-2.7701,-2.7701,-2.7701,-2.7701,-2.7701,-2.7701,-2.7736,-2.8315,-2.9035,-2.9843,0.0,0.0,0.0,0.0,0.0,0.0,0.0,0.0,0.0,-3.2782,0.0,-3.2795,-3.2795,-3.2605,-3.2456,-3.2734,-3.2588,0.0,0.0,0.0,0.0,0.0,0.0,0.0,0.0,0.0,0.0,0.0,0.0,0.0,0.0,0.0,0.0,0.0,0.0,0.0,0.0,0.0,0.0,0.0,0.0,0.0,0.0,0.0,0.0,0.0,0.0,0.0,-4.5298,-4.5042,-4.4915,-4.4915,-4.4679,-4.4489,-4.4304,-4.4304,-4.4131,-4.3825,-4.3958,-4.3728,-4.3212,-4.3212,-4.2772,-4.2005,-4.1719,-4.1604,-4.1604,-4.1604,-4.1604,-4.1604,-4.1604,-4.1604,-4.1604,0.0,0.0,0.0,0.0,0.0,0.0,0.0,0.0,0.0,0.0,0.0,0.0,0.0,0.0,0.0,0.0,0.0,0.0,0.0,0.0,-2.7701,-2.7701,-2.7701,-2.7701,-2.7701,-2.7701,-2.7745,-2.7821,-2.7745,-2.7701,-2.7701,-2.7701,-2.7701,-2.7701,-2.7701,-2.7701,-2.7701,-2.7701,-2.7877,-2.821,-2.8702,-2.9562,-3.0598,0.0,0.0,0.0,0.0,0.0,0.0,0.0,0.0,0.0,-3.309,0.0,-3.3199,-3.3199,-3.2988,-3.2816,-3.3124,0.0,0.0,0.0,0.0,0.0,0.0,0.0,0.0,0.0,0.0,0.0,0.0,0.0,0.0,0.0,0.0,0.0,0.0,0.0,0.0,0.0,0.0,0.0,0.0,0.0,0.0,0.0,0.0,0.0,0.0,0.0,-4.5224,-4.5773,-4.548,-4.5297,-4.5297,-4.4967,-4.4671,-4.4418,-4.4418,-4.4276,-4.4005,-4.4005,-4.3777,-4.3388,-4.323,-4.2903,-4.242,-4.1987,-4.1852,-4.1852,-4.1852,-4.1852,-4.1852,-4.1852,-4.1852,-4.1809,0.0,0.0,0.0,0.0,0.0,0.0,0.0,0.0,0.0,0.0,0.0,0.0,0.0,0.0,0.0,0.0,0.0,0.0,0.0,0.0,-2.7701,-2.7701,-2.7701,-2.7716,-2.773,-2.773,-2.7821,-2.8011,-2.7789,-2.7716,-2.773,-2.7716,-2.7701,-2.7701,-2.7701,-2.7701,-2.7701,-2.7701,-2.8157,-2.8912,-2.9013,-2.9925,-3.1244,-3.1347,0.0,0.0,0.0,0.0,0.0,0.0,0.0,0.0,-3.3451,-3.355,-3.3807,-3.3807,-3.355,-3.3379,0.0,0.0,0.0,0.0,0.0,0.0,0.0,0.0,0.0,0.0,0.0,0.0,0.0,0.0,0.0,0.0,0.0,0.0,0.0,0.0,0.0,0.0,0.0,0.0,0.0,0.0,0.0,0.0,0.0,0.0,0.0,0.0,-4.642,-4.6494,-4.5788,-4.5398,-4.5398,-4.4618,-4.4191,-4.4116,-4.4116,-4.4079,-4.4005,-4.4005,-4.3793,-4.344,-4.3032,-4.2848,-4.281,-4.2422,-4.2259,-4.2259,-4.2259,-4.2259,-4.2259,-4.2259,-4.2259,-4.2198,0.0,0.0,0.0,0.0,0.0,0.0,0.0,0.0,0.0,0.0,0.0,0.0,0.0,0.0,0.0,0.0,0.0,0.0,0.0,0.0,-2.7701,-2.7701,-2.7701,-2.776,-2.794,-2.794,-2.8011,-2.8164,-2.7847,-2.7774,-2.794,-2.776,-2.7701,-2.7701,-2.7701,-2.7701,-2.7701,-2.7701,-2.8157,-2.8978,-2.9816,-3.0724,-3.1682,-3.2534,-3.2994,0.0,0.0,0.0,0.0,0.0,0.0,0.0,-3.3788,-3.3734,-3.3807,-3.3807,-3.355,-3.3379,0.0,0.0,0.0,0.0,0.0,0.0,0.0,0.0,0.0,0.0,0.0,0.0,0.0,0.0,0.0,0.0,0.0,0.0,0.0,0.0,0.0,0.0,0.0,0.0,0.0,0.0,0.0,0.0,0.0,0.0,0.0,-4.5565,-4.5844,-4.6475,-4.6327,-4.6234,-4.6234,-4.6067,-4.5639,0.0,-4.5008,-4.4655,-4.4005,-4.4005,-4.3939,-4.386,-4.344,-4.3265,-4.323,-4.2847,-4.2676,-4.2676,-4.2676,-4.2676,-4.2676,-4.2676,-4.2676,-4.2657,0.0,0.0,0.0,0.0,0.0,0.0,0.0,0.0,0.0,0.0,0.0,0.0,0.0,0.0,0.0,0.0,0.0,0.0,0.0,0.0,0.0,-2.7836,-2.785,-2.7922,-2.8095,-2.8095,-2.8164,-2.83,-2.8063,-2.7993,0.0,-2.7993,-2.7933,-2.7947,-2.8017,-2.8045,-2.8063,-2.8503,-2.9155,-2.994,-3.0916,-3.1783,-3.2523,-3.3084,-3.3408,-3.3536,-3.3536,0.0,0.0,0.0,0.0,0.0,0.0,0.0,-3.3985,-3.3985,-3.3863,-3.3765,0.0,0.0,0.0,0.0,0.0,0.0,0.0,0.0,0.0,0.0,0.0,0.0,0.0,0.0,0.0,0.0,0.0,0.0,0.0,0.0,0.0,0.0,0.0,0.0,0.0,0.0,0.0,0.0,0.0,0.0,0.0,-4.4674,-4.4859,-4.5287,-4.5305,-4.5305,-4.5305,-4.5305,-4.5082,-4.4674,-4.4674,-4.4432,-4.4005,-4.4005,-4.4005,-4.3989,-4.3777,-4.3677,-4.366,-4.3248,-4.3087,-4.3087,-4.3087,-4.3087,-4.3087,-4.3087,-4.3087,-4.3069,0.0,0.0,0.0,0.0,0.0,0.0,0.0,0.0,0.0,0.0,0.0,0.0,0.0,0.0,0.0,0.0,0.0,0.0,0.0,0.0,0.0,-2.7982,-2.8011,-2.8095,-2.8214,-2.8268,-2.8349,-2.8484,-2.8401,0.0,0.0,0.0,0.0,-2.8255,-2.8344,-2.8499,-2.8701,-2.9481,-3.0305,-3.1197,-3.1955,-3.2714,-3.3394,-3.3451,-3.3634,-3.3868,-3.3868,-3.4011,-3.4197,-3.4197,0.0,0.0,0.0,0.0,-3.4221,-3.4221,-3.4209,-3.4197,0.0,0.0,0.0,0.0,0.0,0.0,0.0,0.0,0.0,0.0,0.0,0.0,0.0,0.0,0.0,0.0,0.0,0.0,0.0,0.0,0.0,0.0,0.0,0.0,0.0,0.0,0.0,0.0,0.0,0.0,-4.3782,-4.3782,-4.3856,-4.4005,-4.4005,-4.4005,-4.4005,-4.4005,-4.4005,-4.4005,-4.4005,-4.4005,-4.4005,-4.4005,-4.4005,-4.4005,-4.4005,-4.4005,-4.3971,-4.3644,-4.3491,-4.3491,-4.3491,-4.3491,-4.3491,-4.3491,-4.3491,-4.3457,0.0,0.0,0.0,0.0,0.0,0.0,0.0,0.0,0.0,0.0,0.0,0.0,0.0,0.0,0.0,0.0,0.0,0.0,-2.8034,0.0,0.0,-2.8014,-2.8109,-2.8246,-2.8367,-2.8531,-2.8694,-2.8827,0.0,0.0,0.0,0.0,0.0,-2.8368,0.0,-2.8879,-2.9699,-2.9782,-3.0663,-3.2055,-3.2418,-3.3028,-3.3762,-3.3979,-3.4124,-3.4148,-3.4148,-3.4173,-3.4197,-3.4197,-3.4245,0.0,0.0,0.0,-3.4281,-3.4281,-3.4245,0.0,0.0,0.0,0.0,0.0,0.0,0.0,0.0,0.0,0.0,0.0,0.0,0.0,0.0,0.0,0.0,0.0,0.0,0.0,0.0,0.0,0.0,0.0,0.0,0.0,0.0,0.0,0.0,0.0,0.0,0.0,-4.2927,-4.2965,-4.328,-4.3986,-4.4005,-4.4005,-4.4005,-4.4005,-4.4005,-4.4005,-4.4005,-4.4005,-4.4005,-4.4005,-4.4005,-4.4005,-4.4005,-4.4005,-4.4005,-4.3939,-4.3923,-4.3923,-4.3923,-4.3923,-4.3923,-4.3923,-4.3923,-4.3908,0.0,0.0,0.0,0.0,0.0,0.0,0.0,0.0,0.0,0.0,0.0,0.0,0.0,0.0,0.0,-2.7698,-2.7844,-2.7954,-2.8045,-2.8201,-2.8268,-2.8237,-2.8286,-2.8432,-2.8669,-2.8773,-2.8887,-2.9012,0.0,0.0,0.0,-2.8796,-2.8688,0.0,0.0,0.0,0.0,-3.0788,-3.1654,-3.2754,-3.3272,-3.3703,-3.4036,-3.4161,-3.4197,-3.4197,-3.4197,-3.4197,-3.4197,-3.4197,-3.4221,-3.4245,-3.4245,0.0,0.0,0.0,-3.4221,0.0,0.0,0.0,0.0,0.0,0.0,0.0,0.0,0.0,0.0,0.0,0.0,0.0,0.0,0.0,0.0,0.0,0.0,0.0,0.0,0.0,0.0,0.0,0.0,0.0,0.0,0.0,0.0,0.0,0.0,-4.1739,-4.211,-4.2129,-4.2296,-4.263,-4.3095,-4.3336,-4.3336,-4.3763,-4.4005,-4.4005,-4.4005,-4.4005,-4.4005,-4.4005,-4.4005,-4.4005,-4.4005,-4.4005,-4.4005,-4.4005,-4.4005,-4.4005,-4.4005,-4.4005,-4.4005,-4.4005,-4.4005,-4.4005,0.0,0.0,0.0,0.0,0.0,0.0,0.0,0.0,0.0,0.0,0.0,0.0,0.0,0.0,0.0,0.0,-2.8051,-2.8138,-2.8053,-2.8246,-2.8375,-2.8471,-2.851,-2.8657,-2.8938,-2.9003,-2.9075,0.0,0.0,0.0,-2.9169,-2.9241,-2.9166,0.0,-2.9228,0.0,0.0,0.0,0.0,0.0,0.0,-3.4197,-3.4197,-3.4197,-3.4197,-3.4197,-3.4197,-3.4209,-3.4221,-3.4221,-3.4245,-3.4281,-3.4281,-3.4281,0.0,0.0,0.0,0.0,0.0,0.0,0.0,0.0,0.0,0.0,0.0,0.0,0.0,0.0,0.0,0.0,0.0,0.0,0.0,0.0,0.0,0.0,0.0,0.0,0.0,0.0,0.0,0.0,0.0,0.0,0.0,0.0,0.0,-4.1051,-4.1274,-4.1293,-4.1386,-4.159,-4.2184,-4.25,-4.25,-4.328,-4.3708,-4.3708,-4.3893,-4.4005,-4.4005,-4.4005,-4.4005,-4.4005,-4.4005,-4.4005,-4.4005,-4.4005,-4.4005,-4.4005,-4.4005,-4.4005,-4.4005,-4.4005,-4.4005,-4.4005,0.0,0.0,0.0,0.0,0.0,0.0,0.0,0.0,0.0,0.0,0.0,0.0,-2.8422,-2.846,-2.8458,-2.837,-2.8388,-2.8335,-2.8201,-2.8543,-2.8749,-2.87,-2.8822,0.0,-2.9093,-2.928,0.0,0.0,0.0,0.0,-2.9392,-2.9569,-2.956,-2.9382,-2.9314,-3.0298,-3.2021,0.0,0.0,0.0,0.0,0.0,0.0,0.0,0.0,0.0,0.0,0.0,-3.4293,-3.4293,-3.4374,-3.4484,-3.4484,-3.4484,-3.4484,0.0,0.0,0.0,0.0,0.0,0.0,0.0,0.0,0.0,0.0,0.0,0.0,0.0,0.0,0.0,0.0,0.0,0.0,0.0,0.0,0.0,0.0,0.0,0.0,0.0,0.0,0.0,0.0,0.0,0.0,0.0,0.0,-3.9584,-4.042,-4.0471,-4.081,-4.1571,-4.1627,-4.1664,-4.1664,-4.2463,-4.2853,-4.2872,-4.3633,-4.4005,-4.4005,-4.4005,-4.4005,-4.4005,-4.4005,-4.4005,-4.4005,-4.4005,-4.4005,-4.4005,-4.4005,-4.4005,-4.4005,-4.4005,-4.4005,-4.4005,0.0,0.0,0.0,0.0,0.0,0.0,0.0,0.0,0.0,0.0,0.0,0.0,0.0,-2.864,-2.8603,-2.8425,-2.8525,-2.8569,-2.8531,-2.8815,-2.8989,-2.8966,-2.9012,-2.9112,-2.9301,-2.9353,0.0,0.0,0.0,-2.9655,-2.9589,-2.9664,-2.9655,-2.9616,-3.0102,-3.0993,-3.2131,-3.2548,0.0,0.0,0.0,0.0,0.0,0.0,0.0,0.0,0.0,0.0,0.0,-3.4351,-3.4404,-3.4439,-3.4439,-3.4439,-3.4439,-3.4439,-3.4397,0.0,0.0,0.0,0.0,0.0,0.0,0.0,0.0,0.0,0.0,0.0,0.0,0.0,0.0,0.0,0.0,0.0,0.0,0.0,0.0,0.0,0.0,0.0,0.0,0.0,0.0,0.0,0.0,0.0,0.0,0.0,-3.9547,-3.9565,-3.9695,-3.9993,-4.0531,-4.107,-4.159,-4.1887,-4.2017,-4.2036,-4.2853,-4.3225,-4.3243,-4.3763,-4.4005,-4.4005,-4.4005,-4.4005,-4.4005,-4.4005,-4.4005,-4.4005,-4.4005,-4.4005,-4.4005,-4.4005,-4.4005,-4.4005,0.0,0.0,0.0,0.0,0.0,0.0,0.0,0.0,0.0,0.0,0.0,0.0,0.0,0.0,-2.8941,-2.8712,-2.8773,-2.8827,-2.8827,-2.9004,-2.9137,-2.9209,-2.9191,-2.9283,-2.9501,-2.9511,0.0,0.0,0.0,0.0,0.0,-2.9701,-2.9833,-3.0133,-3.0931,-3.1598,0.0,0.0,0.0,-3.4439,0.0,0.0,-3.4305,0.0,0.0,0.0,0.0,0.0,0.0,0.0,0.0,0.0,-3.4473,-3.4473,-3.4461,-3.445,0.0,0.0,0.0,0.0,0.0,0.0,0.0,0.0,0.0,0.0,0.0,0.0,0.0,0.0,0.0,0.0,0.0,0.0,0.0,0.0,0.0,0.0,0.0,0.0,0.0,0.0,0.0,0.0,0.0,0.0,0.0,0.0,-3.9101,-3.9101,-3.9101,-3.9101,-3.9658,-4.0215,-4.0754,-4.1051,-4.12,-4.12,-4.1999,-4.2389,-4.2407,-4.2946,-4.3188,-4.3206,-4.3485,-4.3745,-4.4005,-4.4005,-4.4005,-4.4005,-4.4005,-4.4005,-4.4005,-4.4005,-4.4005,-4.4005,0.0,0.0,0.0,0.0,0.0,0.0,0.0,0.0,0.0,-2.9027,0.0,0.0,0.0,0.0,0.0,-2.9304,-2.918,-2.9115,-2.9115,-2.9107,-2.9201,-2.9402,-2.9412,-2.9511,-2.9701,-2.9701,-2.9701,0.0,0.0,0.0,0.0,0.0,-3.0133,-3.0931,-3.1748,-3.2105,-3.2198,0.0,-3.3802,-3.4495,0.0,-3.4351,-3.4305,0.0,0.0,0.0,-3.4374,-3.445,0.0,0.0,0.0,0.0,0.0,0.0,0.0,0.0,0.0,0.0,0.0,0.0,0.0,0.0,0.0,0.0,0.0,0.0,0.0,0.0,0.0,0.0,0.0,0.0,0.0,0.0,0.0,0.0,0.0,0.0,0.0,0.0,0.0,0.0,0.0,0.0,0.0,0.0,0.0,-3.9101,-3.9101,-3.9101,-3.9101,-3.9101,-3.9101,-3.9101,-3.9101,-3.9937,-4.0346,-4.0378,-4.1181,-4.1553,-4.1571,-4.159,-4.159,-4.1627,-4.2426,-4.3206,-4.3931,-4.3986,-4.4005,-4.4005,-4.4005,-4.4005,-4.4005,-4.4005,-4.4005,-4.4005,0.0,0.0,0.0,0.0,0.0,0.0,0.0,0.0,-2.9384,0.0,0.0,0.0,-2.956,-2.9491,-2.9353,-2.9169,-2.9251,-2.9322,-2.9322,-2.9453,-2.956,-2.9617,-2.9626,-2.9645,-2.9701,-2.9701,-2.9701,0.0,0.0,0.0,0.0,0.0,0.0,0.0,-3.1748,-3.2443,-3.3089,-3.3843,0.0,0.0,-3.4484,-3.4461,0.0,0.0,0.0,0.0,0.0,-3.455,0.0,0.0,-3.4572,-3.4612,0.0,0.0,0.0,0.0,0.0,0.0,-3.4539,0.0,0.0,0.0,0.0,0.0,0.0,0.0,0.0,0.0,0.0,0.0,0.0,0.0,0.0,0.0,0.0,0.0,0.0,0.0,0.0,0.0,0.0,0.0,0.0,0.0,0.0,0.0,-3.9229,-3.917,-3.917,-3.9129,-3.9101,-3.9101,-3.9101,-3.9101,-3.9101,-3.9342,-3.9454,-3.9472,-4.0308,-4.0717,-4.0736,-4.133,-4.159,-4.1609,-4.1832,-4.2054,-4.2352,-4.3522,-4.4005,-4.4005,-4.4005,-4.4005,-4.4005,-4.4005,-4.4005,-4.4005,0.0,0.0,0.0,0.0,0.0,0.0,0.0,0.0,-2.9569,0.0,0.0,0.0,-2.9636,-2.956,-2.9472,-2.9363,-2.9463,-2.9531,-2.9531,-2.9636,-2.9701,-2.9701,-2.9701,-2.9701,-2.9701,-2.9701,-2.9701,0.0,0.0,0.0,0.0,0.0,0.0,0.0,0.0,0.0,0.0,0.0,0.0,0.0,-3.4539,0.0,0.0,-3.4561,-3.4572,0.0,0.0,0.0,-3.4612,-3.4612,-3.4612,0.0,0.0,0.0,0.0,0.0,0.0,0.0,0.0,0.0,0.0,0.0,0.0,0.0,-3.4612,-3.4612,0.0,0.0,0.0,0.0,0.0,0.0,0.0,0.0,0.0,0.0,0.0,0.0,0.0,0.0,0.0,0.0,0.0,0.0,0.0,-3.885,-3.9128,-3.9256,-3.9197,-3.917,-3.9129,-3.9101,-3.9101,-3.9101,-3.9101,-3.9101,-3.9101,-3.9101,-3.9602,-3.9863,-3.9863,-4.0327,-4.055,-4.0568,-4.094,-4.1089,-4.12,-4.2463,-4.3002,-4.302,-4.3373,-4.3503,-4.354,-4.3875,-4.4005,-4.4005,0.0,0.0,0.0,0.0,0.0,0.0,0.0,0.0,0.0,0.0,-2.9655,-2.9701,-2.9701,-2.9701,-2.9701,-2.9701,-2.9701,-2.9701,-2.9701,-2.9701,-2.9701,-2.9701,-2.9701,-2.9701,-2.9701,-2.9701,-2.9701,0.0,0.0,0.0,0.0,0.0,0.0,0.0,0.0,0.0,0.0,0.0,0.0,-3.4612,-3.4612,-3.4561,0.0,0.0,-3.4561,0.0,-3.4591,-3.4612,-3.4612,-3.4612,-3.4612,0.0,0.0,0.0,0.0,0.0,-3.4612,0.0,0.0,0.0,0.0,0.0,0.0,0.0,-3.4612,-3.4612,-3.4612,0.0,0.0,0.0,0.0,0.0,0.0,0.0,0.0,0.0,0.0,0.0,0.0,0.0,0.0,0.0,0.0,-3.761,-3.8041,-3.8041,-3.8833,-3.9231,-3.9115,-3.9168,-3.9183,-3.9147,-3.9115,-3.9115,-3.9115,-3.9101,-3.9101,-3.9101,-3.9101,-3.9101,-3.9101,-3.9101,-3.9101,-3.9138,-3.9918,-4.0253,-4.0323,-4.1033,-4.1423,-4.1664,-4.2389,-4.2723,-4.289,-4.3596,-4.3912,-4.4005,-2.9711,0.0,0.0,0.0,0.0,0.0,0.0,0.0,0.0,-2.9673,-2.9701,-2.9701,-2.9701,-2.9701,-2.9701,-2.9701,-2.9701,-2.9701,-2.9701,-2.9701,-2.9701,-2.9701,-2.9701,-2.9701,-2.9701,-2.9701,-2.9701,0.0,0.0,0.0,0.0,0.0,0.0,0.0,0.0,0.0,0.0,0.0,0.0,-3.4612,-3.4612,0.0,-3.4572,-3.4602,-3.4583,-3.4572,-3.4602,-3.4612,-3.4612,0.0,-3.4612,-3.4612,0.0,0.0,0.0,0.0,0.0,0.0,0.0,0.0,0.0,0.0,0.0,0.0,-3.4612,-3.4612,-3.4612,0.0,0.0,0.0,0.0,0.0,0.0,0.0,0.0,0.0,0.0,0.0,0.0,0.0,0.0,0.0,0.0,-3.7604,-3.7699,-3.7699,-3.8321,-3.8636,-3.8559,-3.907,-3.936,-3.9346,-3.9229,-3.9183,-3.9183,-3.9129,-3.9101,-3.9101,-3.9101,-3.9101,-3.9101,-3.9101,-3.9101,-3.9101,-3.9287,-3.9342,-3.9361,-3.951,-4.0383,-4.1609,-4.1757,-4.2222,-4.2816,-4.2983,-4.3448,-4.4005,-2.9701,0.0,0.0,0.0,0.0,0.0,0.0,0.0,0.0,-2.9701,-2.9701,-2.9701,-2.9701,-2.9701,-2.9852,-3.0265,-3.0302,-3.0471,-3.0865,-3.0903,-3.0903,-3.0903,-3.0903,-3.0715,-3.0321,-3.0696,-3.0696,0.0,0.0,0.0,0.0,0.0,0.0,0.0,0.0,0.0,0.0,0.0,-3.4612,-3.4612,-3.4612,0.0,-3.4612,-3.4612,-3.4612,-3.4612,-3.4612,-3.4612,-3.4612,-3.4612,-3.4612,0.0,0.0,-3.4612,-3.4612,0.0,-3.4612,-3.4612,0.0,0.0,0.0,-3.4612,0.0,0.0,0.0,-3.4612,-3.4612,0.0,0.0,0.0,0.0,0.0,0.0,0.0,0.0,0.0,0.0,0.0,0.0,0.0,0.0,0.0,0.0,-3.6717,-3.7161,-3.7572,-3.788,-3.7969,-3.7821,-3.8526,-3.8902,-3.8756,-3.9109,-3.9301,-3.9301,-3.9275,-3.9215,-3.9156,-3.9156,-3.9129,-3.9101,-3.9101,-3.9101,-3.9101,-3.9101,-3.9101,-3.9101,-3.9101,-3.9602,-4.0401,-4.0828,-4.1237,-4.1702,-4.25,-4.3058,-4.3466,-2.9808,0.0,0.0,0.0,0.0,0.0,0.0,0.0,0.0,-2.9701,-2.9701,-2.9701,-2.9701,-2.9701,0.0,-3.0837,-3.0893,-3.1231,0.0,0.0,-3.2105,-3.2105,-3.2105,-3.1804,-3.1156,-3.1767,-3.1785,-3.1137,0.0,0.0,0.0,0.0,0.0,0.0,0.0,0.0,0.0,0.0,0.0,-3.4612,0.0,-3.4612,-3.4612,-3.4612,-3.4612,-3.4612,-3.4612,-3.4612,-3.4612,-3.4612,0.0,-3.4612,-3.4612,-3.4612,0.0,0.0,0.0,0.0,0.0,0.0,0.0,0.0,0.0,-3.4612,0.0,0.0,0.0,0.0,0.0,0.0,0.0,0.0,0.0,0.0,0.0,0.0,0.0,0.0,0.0,0.0,0.0,0.0,0.0,-3.5791,-3.6517,-3.7118,-3.7328,-3.7307,-3.7058,-3.7871,-3.829,-3.8203,-3.8877,-3.9282,-3.9418,-3.9405,-3.9346,-3.9242,-3.9242,-3.9215,-3.9161,-3.9161,-3.9161,-3.9161,-3.9129,-3.9129,-3.9129,-3.9129,-3.9129,-3.9189,-3.9877,-4.0248,-4.0564,-4.1865,-4.2552,-4.289,-3.0059,-2.9958,0.0,0.0,0.0,0.0,0.0,0.0,0.0,-2.9701,-2.9701,0.0,0.0,0.0,0.0,0.0,0.0,0.0,-3.2048,0.0,0.0,-3.2105,-3.2105,-3.2067,-3.1973,-3.2048,-3.2067,-3.1954,0.0,0.0,0.0,0.0,0.0,0.0,-3.4545,0.0,0.0,0.0,-3.4612,0.0,-3.4612,-3.4612,0.0,-3.4612,-3.4612,-3.4612,-3.4612,-3.4612,-3.4612,0.0,-3.4612,-3.4612,0.0,-3.4612,0.0,0.0,0.0,0.0,0.0,0.0,0.0,0.0,-3.4612,0.0,0.0,0.0,0.0,0.0,0.0,0.0,0.0,0.0,0.0,0.0,0.0,0.0,0.0,0.0,0.0,0.0,0.0,0.0,0.0,0.0,-3.5733,-3.5666,-3.631,-3.6658,-3.6504,-3.7259,-3.7956,-3.8537,-3.8576,-3.8884,-3.9482,-3.9431,-3.9391,-3.9391,-3.9391,-3.9373,-3.936,-3.936,-3.936,-3.936,-3.9242,-3.9183,-3.9183,-3.9183,-3.9183,-3.9183,-3.924,-3.9714,-4.0434,-4.0677,-4.163,-4.2831,-3.0007,-2.9945,0.0,0.0,0.0,0.0,0.0,0.0,0.0,-3.0396,-3.0809,0.0,0.0,0.0,0.0,0.0,0.0,-3.2687,0.0,0.0,0.0,0.0,0.0,0.0,-3.2856,-3.3306,-3.3325,-3.2856,-3.3325,0.0,0.0,0.0,0.0,0.0,-3.4612,0.0,-3.4612,0.0,0.0,0.0,0.0,0.0,0.0,-3.4636,-3.4612,-3.4612,-3.4612,-3.4668,-3.4781,0.0,-3.4781,0.0,0.0,0.0,0.0,0.0,0.0,0.0,0.0,0.0,0.0,0.0,0.0,0.0,-3.4781,0.0,-3.4612,0.0,0.0,0.0,0.0,0.0,0.0,0.0,0.0,0.0,0.0,0.0,0.0,0.0,0.0,0.0,0.0,0.0,0.0,0.0,-3.5893,-3.6003,-3.5837,-3.6581,-3.7105,-3.7319,-3.8241,-3.8876,-3.9153,-3.9501,-3.9672,-3.9625,-3.9514,-3.9444,-3.9405,-3.9405,-3.9405,-3.9405,-3.9346,-3.9315,-3.9315,-3.9315,-3.9315,-3.9315,-3.9288,-3.9498,-3.9871,-4.0383,-4.0966,-4.166,-3.0364,0.0,0.0,0.0,0.0,0.0,0.0,0.0,0.0,0.0,0.0,0.0,-3.2105,-3.2105,0.0,0.0,0.0,-3.3738,0.0,0.0,-3.4612,0.0,0.0,0.0,0.0,0.0,-3.4301,-3.3738,0.0,0.0,0.0,0.0,0.0,0.0,0.0,-3.4647,-3.4594,0.0,0.0,-3.4678,-3.4678,-3.4792,-3.4935,-3.4783,-3.4711,-3.4689,-3.4732,-3.4812,-3.4917,-3.4935,-3.4944,0.0,-3.4944,0.0,0.0,0.0,0.0,0.0,-3.5073,0.0,0.0,0.0,0.0,0.0,0.0,0.0,0.0,0.0,0.0,0.0,0.0,0.0,0.0,0.0,0.0,0.0,0.0,0.0,0.0,0.0,0.0,0.0,0.0,0.0,0.0,-3.562,-3.5668,-3.5614,-3.5405,-3.5942,-3.6327,-3.6452,-3.7606,-3.843,-3.8907,-3.9383,-3.9688,-3.9826,-3.9691,-3.9552,-3.9438,-3.9438,-3.9438,-3.9438,-3.9444,-3.9431,-3.9431,-3.9431,-3.9431,-3.9431,-3.9457,-3.9438,-3.9513,-4.0085,-4.0432,-4.0792,-3.1415,-3.066,0.0,0.0,0.0,0.0,0.0,0.0,0.0,0.0,0.0,0.0,0.0,0.0,0.0,0.0,0.0,-3.3738,-3.4545,0.0,-3.4612,0.0,0.0,-3.4594,0.0,0.0,0.0,0.0,0.0,0.0,0.0,0.0,0.0,0.0,0.0,-3.4791,-3.4604,-3.4811,-3.4898,-3.4898,-3.4898,-3.4972,-3.5098,0.0,-3.5006,-3.4908,-3.5049,0.0,0.0,-3.5039,-3.5098,0.0,0.0,0.0,0.0,0.0,0.0,0.0,0.0,0.0,0.0,-3.5106,0.0,0.0,0.0,0.0,-3.5089,0.0,0.0,0.0,0.0,0.0,0.0,-3.411,0.0,0.0,0.0,0.0,0.0,0.0,0.0,0.0,0.0,0.0,0.0,-3.5418,-3.5583,-3.5614,-3.5405,-3.5417,-3.5788,-3.6575,-3.6526,-3.7255,-3.8888,-3.8917,-3.9271,-3.9903,-3.9892,-3.9789,-3.9589,-3.9589,-3.9589,-3.9596,-3.952,-3.9495,-3.9495,-3.9495,-3.9495,-3.9495,-3.9571,-3.9589,-3.9596,-3.9558,-3.9999,-4.0731,0.0,0.0,0.0,0.0,0.0,0.0,0.0,-3.2495,0.0,0.0,0.0,0.0,0.0,0.0,-3.4958,0.0,0.0,-3.5965,-3.6246,-3.5851,0.0,0.0,0.0,-3.4925,0.0,0.0,0.0,0.0,0.0,0.0,0.0,0.0,0.0,0.0,0.0,-3.4987,0.0,0.0,0.0,0.0,0.0,-3.525,-3.5288,0.0,0.0,-3.5041,-3.5081,-3.5165,0.0,-3.528,-3.5302,-3.5302,-3.5302,-3.5201,-3.513,-3.5265,-3.5302,0.0,0.0,0.0,-3.5496,-3.5496,0.0,0.0,0.0,0.0,0.0,0.0,0.0,0.0,0.0,0.0,0.0,-3.4952,0.0,0.0,0.0,0.0,0.0,0.0,0.0,0.0,0.0,0.0,0.0,-3.5589,-3.5662,-3.5668,-3.5608,-3.5608,-3.5718,-3.6002,-3.6479,-3.6992,-3.7564,-3.8597,-3.9199,-3.9435,-3.9891,-3.9989,-3.98,-3.98,-3.9738,-3.9608,-3.9583,-3.9571,-3.9571,-3.9571,-3.9571,-3.9571,-3.9596,-3.9589,-3.9608,-3.9564,-3.9727,-4.0127,-3.3381,0.0,0.0,0.0,0.0,0.0,0.0,0.0,0.0,0.0,-3.4601,0.0,-3.5916,0.0,-3.6675,0.0,-3.7318,-3.7286,-3.7208,-3.686,0.0,-3.612,-3.5756,0.0,0.0,0.0,0.0,0.0,0.0,-3.5106,0.0,0.0,0.0,0.0,0.0,0.0,0.0,0.0,-3.5201,0.0,0.0,-3.5509,0.0,0.0,-3.5273,-3.5228,0.0,-3.5357,-3.5405,-3.5477,-3.5509,-3.5509,-3.5509,-3.5424,-3.5343,-3.5464,-3.5509,-3.5527,-3.5668,-3.5704,0.0,-3.5704,-3.5589,0.0,-3.5509,0.0,0.0,0.0,0.0,0.0,0.0,0.0,0.0,-3.5509,-3.562,0.0,0.0,-3.5704,0.0,0.0,0.0,0.0,0.0,0.0,-3.5704,-3.5704,-3.5704,-3.5704,0.0,0.0,-3.5626,-3.5704,-3.6128,-3.6528,-3.6903,-3.8183,-3.8955,-3.9204,-3.9953,-4.0205,-4.0,-4.0,-3.9903,-3.9715,-3.9715,-3.9674,-3.962,-3.9668,-3.9656,-3.962,-3.9679,-3.9656,-3.9589,-3.9589,-3.9777,-4.0215,0.0,0.0,0.0,0.0,-3.3318,0.0,0.0,0.0,-3.485,0.0,-3.5509,-3.6149,-3.6236,-3.6975,-3.7576,-3.7795,-3.7813,0.0,-3.7546,-3.7697,0.0,0.0,-3.6391,-3.6072,-3.5207,0.0,0.0,0.0,0.0,0.0,0.0,0.0,0.0,0.0,-3.5324,0.0,-3.5146,-3.5324,-3.5412,-3.5418,-3.562,-3.5704,-3.5704,-3.5704,-3.5577,-3.5444,-3.5626,-3.5577,-3.5451,-3.5651,-3.5704,-3.5704,-3.5704,-3.5704,-3.5704,-3.5704,-3.5704,-3.5704,-3.5704,-3.5704,-3.5704,-3.5704,0.0,0.0,0.0,0.0,-3.5704,0.0,0.0,0.0,0.0,0.0,0.0,0.0,-3.5704,-3.5704,0.0,0.0,0.0,0.0,0.0,0.0,0.0,-3.5704,-3.5704,-3.5704,-3.5704,0.0,0.0,0.0,-3.5509,-3.5684,-3.5515,-3.5875,-3.6826,-3.769,-3.8473,-3.9161,-4.0042,-4.0359,-4.0223,-4.0223,-4.011,-3.9905,-3.9905,-3.9811,-3.9631,-3.9845,-3.9811,-3.965,-3.9837,-3.98,-3.9626,-3.962,-4.0078,-4.0854,-3.5317,-3.538,-3.5262,0.0,-3.493,-3.4902,0.0,0.0,0.0,0.0,-3.6164,-3.68,-3.8059,-3.8384,-3.8803,-3.9507,-3.9564,0.0,0.0,0.0,0.0,-3.8432,-3.7978,-3.7328,-3.646,-3.644,0.0,-3.5553,0.0,0.0,-3.5553,0.0,0.0,0.0,0.0,0.0,-3.5553,-3.5608,-3.562,-3.5626,-3.5673,-3.5704,0.0,0.0,-3.5668,-3.5626,-3.5679,-3.5668,-3.5626,-3.5679,-3.5704,-3.5704,-3.5704,-3.5704,-3.5704,-3.5704,-3.5704,-3.5704,-3.5704,-3.5704,-3.5704,-3.5704,-3.5704,-3.5704,0.0,0.0,0.0,0.0,0.0,0.0,0.0,0.0,0.0,0.0,0.0,0.0,0.0,0.0,0.0,-3.5704,0.0,0.0,0.0,-3.5704,-3.5704,-3.5704,-3.5704,0.0,0.0,0.0,0.0,-3.5704,-3.5656,-3.5753,-3.6013,-3.6826,-3.7653,-3.8473,-3.9348,-3.9988,-4.0414,-4.0414,-4.0313,-4.0129,-4.0129,-4.01,-4.005,-4.01,-4.01,-4.005,-4.011,-4.009,-4.001,-3.9715,-3.9721,-4.0115,-3.5704,0.0,0.0,-3.6079,0.0,0.0,-3.5829,0.0,0.0,-3.6875,-3.7346,0.0,-3.8939,-3.938,-3.9827,-4.0399,-4.0465,0.0,0.0,0.0,0.0,-3.9223,-3.8917,-3.8353,-3.7497,-3.7096,0.0,-3.6226,0.0,0.0,-3.5704,0.0,0.0,0.0,0.0,-3.5704,0.0,-3.5704,-3.5704,-3.5704,-3.5704,0.0,0.0,-3.5704,-3.5704,-3.5704,-3.5704,-3.5704,-3.5704,-3.5704,-3.5704,-3.5704,-3.5704,-3.5704,-3.5704,-3.5704,-3.5704,-3.5704,-3.5704,-3.5704,-3.5704,-3.5704,-3.5704,-3.5704,-3.5704,-3.5704,-3.5704,0.0,0.0,0.0,0.0,0.0,0.0,0.0,0.0,0.0,0.0,0.0,0.0,0.0,0.0,0.0,0.0,0.0,-3.5704,0.0,0.0,0.0,0.0,0.0,0.0,-3.5704,-3.5704,-3.5704,-3.5704,-3.6497,-3.7348,-3.8212,-3.9075,-3.9908,-4.0639,-4.0639,-4.0512,-4.033,-4.033,-4.0286,-4.0214,-4.0295,-4.0278,-4.0205,-4.0205,-4.0205,-4.0177,-3.9956,-3.9859,-4.0083,0.0,0.0,0.0,0.0,0.0,0.0,0.0,-3.6972,0.0,-3.7838,0.0,-3.9287,-3.9398,-4.0092,-4.0605,-4.0784,0.0,-4.0726,-4.0554,-4.0706,-4.0372,-3.9461,-3.9586,-3.9268,-3.8392,-3.7638,0.0,0.0,0.0,0.0,0.0,0.0,0.0,0.0,0.0,0.0,0.0,-3.5704,-3.5704,0.0,-3.5704,-3.5704,-3.5704,-3.5704,-3.5704,-3.5704,-3.5704,-3.5704,-3.5704,-3.5704,-3.5704,-3.5704,-3.5704,-3.5704,-3.5704,-3.5704,-3.5704,-3.5704,-3.5704,-3.5704,-3.5704,-3.5704,-3.5704,-3.5704,-3.5704,-3.5704,-3.5704,-3.5704,-3.5704,-3.5704,0.0,0.0,0.0,0.0,0.0,0.0,0.0,0.0,0.0,0.0,0.0,0.0,0.0,0.0,0.0,0.0,0.0,0.0,0.0,0.0,0.0,-3.5704,-3.5704,-3.5704,-3.5704,0.0,-3.7232,-3.8212,-3.8972,-3.9849,-4.0797,-4.0797,-4.0694,-4.0546,-4.0546,-4.0449,-4.0295,-4.0465,-4.0441,-4.0278,-4.0278,-4.0278,-4.0278,-4.0278,-4.0278,-4.0471,0.0,0.0,0.0,0.0,0.0,-3.8212,-3.889,-3.8401,-3.8234,-3.9071,-3.9335,-3.9715,-4.0436,-4.0662,-4.0771,-4.079,-4.0797,0.0,0.0,0.0,0.0,-4.0527,-4.0552,-4.0158,-3.9288,-3.9114,-3.834,0.0,0.0,0.0,0.0,0.0,0.0,0.0,0.0,0.0,-3.5704,-3.5704,0.0,-3.5704,-3.5704,-3.5704,-3.5704,-3.5704,-3.5704,-3.5704,-3.5704,-3.5704,-3.5704,-3.5704,-3.5704,-3.5704,-3.5704,-3.5704,-3.5704,-3.5704,-3.5704,-3.5704,-3.5704,-3.5704,-3.5704,-3.5704,-3.5704,-3.5704,-3.5704,-3.5704,-3.5704,-3.5704,-3.5704,-3.5704,-3.5704,0.0,0.0,0.0,0.0,0.0,0.0,0.0,0.0,0.0,0.0,0.0,0.0,0.0,0.0,0.0,0.0,0.0,0.0,0.0,0.0,0.0,-3.5704,0.0,0.0,0.0,-3.6671,-3.8193,-3.8348,-3.9262,-4.0797,-4.0797,-4.0784,-4.0739,-4.0739,-4.0726,-4.0706,-4.0733,-4.0726,-4.0687,-4.0687,-4.0687,-4.0687,-4.0687,-4.0687,-4.0877,0.0,0.0,0.0,0.0,0.0,0.0,0.0,-3.9823,0.0,-4.012,-4.0178,-4.0332,-4.0758,-4.0797,-4.0797,-4.0797,-4.0797,-4.0797,-4.0797,-4.0797,-4.0797,-4.0797,-4.0797,0.0,-4.0178,-3.9733,-3.9094,-3.8257,0.0,0.0,-3.6303,0.0,0.0,0.0,0.0,-3.5704,0.0,0.0,0.0,-3.5704,-3.5704,-3.5704,-3.5704,-3.5704,-3.5704,-3.5704,-3.5704,-3.5704,-3.5704,-3.5704,-3.5704,-3.5704,-3.5704,-3.5704,-3.5704,-3.5704,-3.5704,-3.5704,-3.5704,-3.5704,-3.5704,-3.5704,-3.5704,-3.5704,-3.5704,-3.5704,-3.5704,-3.5704,-3.5704,-3.5704,-3.5704,-3.5704,0.0,0.0,0.0,0.0,0.0,0.0,0.0,0.0,0.0,0.0,0.0,0.0,0.0,0.0,0.0,0.0,0.0,0.0,0.0,0.0,0.0,0.0,0.0,0.0,0.0,-3.8193,-3.8193,-3.9108,-4.0797,-4.0797,-4.0797,-4.0797,-4.0797,-4.0797,-4.0797,-4.0797,-4.0797,-4.0797,-4.0797,-4.0797,-4.0797,-4.0797,-4.0797,-4.0997,0.0,-3.8489,0.0,0.0,-4.0023,0.0,-4.1448,-4.1603,-4.1467,-4.1106,-4.1067,-4.1067,-4.1067,-4.1067,-4.099,-4.0816,-4.0797,-4.0797,-4.0797,-4.0797,-4.0797,-4.0797,-4.0797,-4.0797,-4.0797,-4.0139,-3.9694,0.0,0.0,0.0,0.0,0.0,0.0,0.0,0.0,0.0,0.0,0.0,-3.6052,-3.6226,-3.6226,-3.6226,-3.6207,-3.6033,-3.5955,-3.5936,-3.5762,-3.5704,-3.5704,-3.5704,-3.5704,-3.5704,-3.5704,-3.5704,-3.5704,-3.5704,-3.5704,-3.5704,-3.5704,-3.5704,-3.5704,-3.5704,-3.5704,-3.5704,-3.5704,-3.5704,-3.5704,-3.5704,-3.5704,-3.5704,-3.5704,-3.5704,0.0,0.0,0.0,0.0,0.0,0.0,0.0,0.0,0.0,0.0,0.0,0.0,0.0,0.0,0.0,0.0,0.0,0.0,0.0,0.0,0.0,-3.5704,-3.5704,0.0,-3.6535,-3.8193,-3.8193,-3.9108,-4.0797,-4.0797,-4.0797,-4.0797,-4.0797,-4.0797,-4.0797,-4.0797,-4.0797,-4.0797,-4.0797,-4.0797,-4.0797,-4.0797,-4.0913,-4.1242,0.0,0.0,0.0,0.0,0.0,0.0,-4.4001,-4.4246,-4.3692,-4.2086,-4.1893,-4.1893,-4.1893,-4.1893,-4.1583,-4.0855,-4.0797,-4.0797,-4.0797,-4.0797,-4.0797,-4.0797,-4.0797,-4.0797,-4.0797,-4.0719,-4.0294,0.0,0.0,0.0,0.0,0.0,0.0,0.0,0.0,0.0,0.0,-3.6787,-3.7251,-3.7961,-3.7961,-3.7961,-3.7883,-3.7096,-3.6787,-3.669,-3.5955,-3.5704,-3.5704,-3.5704,-3.5704,-3.5704,-3.5704,-3.5704,-3.5704,-3.5704,-3.5704,-3.5704,-3.5704,-3.5704,-3.5704,-3.5704,-3.5704,-3.5704,-3.5704,-3.5704,-3.5704,-3.5704,-3.5704,-3.5704,-3.5704,-3.5704,-3.5704,0.0,0.0,0.0,0.0,0.0,0.0,0.0,0.0,0.0,0.0,-3.5704,0.0,0.0,0.0,0.0,0.0,0.0,0.0,-3.5704,0.0,-3.5704,-3.5704,-3.5704,-3.6535,-3.8193,-3.8193,-3.9108,-4.0797,-4.0797,-4.0797,-4.0797,-4.0797,-4.0797,-4.0797,-4.0797,-4.0797,-4.0797,-4.0797,-4.0797,-4.0797,-4.0797,-4.1255,-4.2028,0.0,0.0,0.0,0.0,0.0,0.0,0.0,-4.5007,-4.5258,-4.5084,-4.4601,-4.4272,-4.4272,-4.3846,-4.344,-4.3111,-4.2125,-4.1525,-4.1525,-4.1067,-4.0797,-4.0797,-4.0797,-4.0797,-4.0797,-4.0797,-4.0623,0.0,0.0,0.0,0.0,0.0,0.0,0.0,0.0,-3.7431,-3.7744,-3.7744,-3.7926,-3.8193,-3.8193,-3.8193,-3.8154,-3.7806,-3.7367,-3.6864,-3.6535,-3.611,-3.5704,-3.5704,-3.5704,-3.5704,-3.5704,-3.5704,-3.5704,-3.5704,-3.5704,-3.5704,-3.5704,-3.5704,-3.5704,-3.5704,-3.5704,-3.5704,-3.5704,-3.5704,-3.5704,-3.5704,-3.5704,-3.5704,-3.5704,-3.5704,-3.5704,0.0,0.0,0.0,0.0,0.0,0.0,0.0,0.0,0.0,0.0,0.0,0.0,0.0,0.0,0.0,0.0,0.0,0.0,-3.5704,0.0,-3.5704,-3.5704,-3.5704,-3.6535,-3.8193,-3.8193,-3.9108,-4.0797,-4.0797,-4.0797,-4.0797,-4.0797,-4.0797,-4.0797,-4.0797,-4.0797,-4.0797,-4.0797,-4.0797,-4.0797,-4.0797,-4.1313,-4.2125,-4.2737,0.0,-4.386,0.0,-4.4963,-4.5544,-4.6047,-4.6608,-4.7286,-4.8157,-4.7731,-4.7066,-4.6271,-4.5472,-4.4899,-4.4614,-4.3254,-4.2305,-4.2047,-4.1499,-4.1073,-4.0809,-4.0796,0.0,-4.0802,-4.0802,-4.0802,-4.0802,-4.0188,0.0,0.0,0.0,0.0,0.0,-3.8306,-3.8431,-3.8692,-3.8692,-3.8792,-3.8957,-3.8957,-3.8957,-3.8938,-3.868,-3.8216,-3.7627,-3.7113,-3.6552,-3.604,-3.5797,-3.5706,-3.5706,-3.569,-3.5704,-3.5704,-3.5704,-3.5704,-3.5704,-3.5704,-3.5704,-3.5704,-3.5704,-3.5704,-3.5704,-3.5704,-3.5704,-3.5704,-3.5704,-3.5704,-3.5704,-3.5704,-3.5695,-3.5695,-3.5709,0.0,0.0,0.0,0.0,0.0,0.0,-3.5706,-3.5706,-3.5709,0.0,0.0,0.0,0.0,0.0,0.0,0.0,0.0,0.0,0.0,0.0,0.0,-3.5936,-3.6787,-3.8193,-3.847,-3.9359,-4.0797,-4.0797,-4.0797,-4.0797,-4.0797,-4.0797,-4.0797,-4.0797,-4.0797,-4.0797,-4.0797,-4.0797,-4.0797,-4.0797,-4.1467,-4.2473,-4.449,-4.4676,-4.5219,-4.6867,-4.7158,-4.7753,-4.9472,-4.9744,-5.0054,-5.0939,-5.1035,-5.0026,-4.7381,-4.6429,-4.5602,-4.4673,-4.3852,-4.3024,-4.2162,-4.2094,-4.1707,0.0,0.0,-4.0807,-4.0807,-4.0807,-4.0807,-4.0807,0.0,0.0,-3.8306,0.0,-3.7477,-3.8306,-3.8306,-3.8776,-3.9571,-3.9571,-4.0037,-4.0768,-4.0768,-4.0768,-4.0666,-3.9805,-3.9525,-3.9333,-3.7616,-3.6982,-3.6852,-3.5989,-3.5703,-3.5699,-3.5706,-3.5704,-3.5704,-3.5704,-3.5704,-3.5704,-3.5704,-3.5704,-3.5704,-3.5704,-3.5704,-3.5704,-3.5704,-3.5704,-3.5704,-3.5704,-3.5704,-3.5704,-3.5704,-3.5711,-3.5697,-3.569,0.0,0.0,0.0,0.0,0.0,0.0,-3.5689,-3.5703,-3.569,0.0,0.0,0.0,0.0,0.0,0.0,0.0,0.0,-3.5704,-3.5704,0.0,-3.5704,-3.6497,-3.7328,-3.8212,-3.9075,-3.9946,-4.0797,-4.0797,-4.0797,-4.0797,-4.0797,-4.0797,-4.0797,-4.0797,-4.0797,-4.0797,-4.0797,-4.0797,-4.0797,-4.0797,-4.1854,-4.3285,-4.6338,-4.6887,-4.7462,-4.7986,-4.8587,-4.9168,-4.9724,-5.0306,-5.079,-5.1062,-5.1101,-5.0772,-4.993,-4.8567,-4.7585,0.0,-4.5434,-4.4174,0.0,-4.2765,-4.1975,-4.1707,-4.1117,-4.0807,-4.0807,-4.0807,-4.0807,-4.0807,0.0,0.0,0.0,-3.9786,-3.9815,-4.0068,-4.0068,-4.0233,-4.0484,-4.0484,-4.061,-4.0807,-4.0807,-4.0807,-4.0768,-4.0486,-4.0065,-3.9533,-3.896,-3.8398,-3.7744,-3.6886,-3.6595,-3.6484,-3.5883,-3.5707,-3.5692,-3.569,-3.5704,-3.569,-3.5711,-3.5697,-3.5697,-3.5698,-3.5707,-3.5697,-3.5697,-3.5701,-3.5704,-3.5704,-3.5701,-3.5697,-3.5697,-3.5702,-3.5693,-3.5698,-3.5707,0.0,0.0,0.0,0.0,0.0,-3.5704,-3.5694,0.0,-3.5702,0.0,0.0,0.0,0.0,0.0,0.0,0.0,0.0,-3.5704,0.0,-3.5704,-3.6497,-3.7348,-3.8212,-3.9075,-3.9965,-4.0797,-4.0797,-4.0797,-4.0797,-4.0797,-4.0797,-4.0797,-4.0797,-4.0797,-4.0797,-4.0797,-4.0797,-4.0874,-4.1409,-4.2338,-4.3382,-4.8139,-4.8644,-4.9129,-4.9459,-4.9957,-5.0326,-5.0326,-5.0791,-5.114,-5.114,-5.114,-5.1011,-5.0694,-4.9394,0.0,-4.8496,-4.6478,-4.5043,-4.4721,-4.371,-4.2818,-4.2167,-4.1615,-4.1168,-4.0839,-4.0839,0.0,-4.0839,-4.0839,-4.0868,-4.0898,-4.0898,-4.0888,-4.0907,-4.0907,-4.0898,-4.0898,-4.0898,-4.0873,-4.0839,-4.0839,-4.0839,-4.0839,-4.0848,-4.0523,-4.0048,-3.9728,-3.9262,-3.8685,-3.7788,-3.7284,-3.6939,-3.6377,-3.5975,-3.5733,-3.5707,-3.5697,-3.5702,-3.5698,-3.5703,-3.5708,-3.5704,-3.5694,-3.5703,-3.5703,-3.5707,-3.5697,-3.5697,-3.5693,-3.5703,-3.5703,-3.5708,-3.5737,-3.5704,-3.5718,-3.5733,-3.5737,0.0,0.0,0.0,0.0,0.0,0.0,-3.5698,-3.5707,0.0,0.0,0.0,0.0,0.0,0.0,-3.5704,-3.5704,0.0,-3.5704,-3.6826,-3.7651,-3.8212,-3.9417,-4.0274,-4.0797,-4.0797,-4.0797,-4.0797,-4.0797,-4.0797,-4.0797,-4.0797,-4.0797,-4.0797,-4.0797,-4.0797,-4.0893,-4.1699,-4.255,-4.3421,-4.9823,-4.9984,-5.0256,0.0,-5.1202,0.0,-5.1202,-5.1202,-5.1202,-5.1202,-5.1202,-5.0872,-5.0004,-4.9124,-4.8549,-4.8437,0.0,0.0,0.0,-4.4796,-4.4083,-4.2445,-4.2257,-4.1825,-4.1005,-4.0927,-4.0907,-4.0907,-4.0907,-4.0907,-4.0907,-4.0907,-4.0907,-4.0907,-4.0907,-4.0907,-4.0907,-4.0907,-4.0907,-4.0907,-4.0907,-4.0907,-4.0903,-4.0898,-4.0903,-4.0786,-3.999,-3.9723,-3.964,-3.8709,-3.7903,-3.7266,-3.7148,-3.6546,-3.5877,-3.5732,-3.5708,-3.5708,-3.5708,-3.5708,-3.5708,-3.5713,-3.5708,-3.5708,-3.5708,-3.5708,-3.5708,-3.5708,-3.5708,-3.5708,-3.5708,-3.5766,-3.5775,-3.5713,-3.5765,-3.5786,-3.5808,0.0,0.0,0.0,0.0,0.0,0.0,-3.5713,-3.5708,0.0,0.0,0.0,0.0,0.0,-3.5704,-3.5704,-3.5704,-3.5723,-3.5781,-3.7386,-3.8251,-3.8406,-4.0017,-4.0797,-4.0797,-4.0797,-4.0797,-4.0797,-4.0797,-4.0797,-4.0797,-4.0797,-4.0797,-4.0797,-4.0797,-4.0797,-4.0893,-4.1777,-4.2609,-4.344,0.0,0.0,-5.0969,-5.1163,-5.1202,-5.1202,-5.1202,-5.1202,-5.1202,-5.1202,-5.1202,-5.0872,-5.0004,-4.9124,-4.8322,-4.7631,-4.6613,-4.5919,-4.5719,-4.5122,-4.4617,-4.4199,-4.2908,-4.2097,-4.1903,-4.1238,-4.0907,-4.0907,-4.0907,-4.0907,-4.0907,-4.0907,-4.0907,-4.0907,-4.0907,-4.0907,-4.0907,-4.0907,-4.0907,-4.0907,-4.0907,-4.0907,-4.0907,-4.0898,-4.0903,-4.0869,-4.067,-4.0592,-4.0499,-3.9655,-3.9232,-3.896,-3.8276,-3.748,-3.6656,-3.5912,-3.5708,-3.5708,-3.5766,-3.5775,-3.578,-3.5773,-3.5784,-3.577,-3.5708,-3.5708,-3.5708,-3.5708,-3.5742,-3.5775,-3.5775,-3.5799,-3.5784,-3.5778,-3.576,-3.5736,-3.5782,-3.5797,0.0,0.0,-3.5791,-3.5782,-3.579,-3.579,-3.5761,0.0,0.0,0.0,0.0,-3.5701,-3.5704,-3.5704,-3.5704,-3.5994,-3.6613,-3.7671,-3.8876,-4.0191,-4.0603,-4.0797,-4.0797,-4.0797,-4.0797,-4.0797,-4.0797,-4.0797,-4.0797,-4.0797,-4.0797,-4.0797,-4.0797,-4.0797,-4.099,-4.2454,-4.3131,-4.3518,-5.1202,-5.1202,-5.1202,-5.1202,-5.1202,-5.1202,-5.1202,-5.1202,-5.1202,-5.1202,-5.1202,-5.0872,-5.0004,-4.9124,-4.825,-4.737,-4.6502,-4.6002,-4.6002,-4.5594,-4.5181,-4.4812,-4.351,-4.2617,-4.2214,-4.1354,-4.0907,-4.0907,-4.0907,-4.0907,-4.0907,-4.0907,-4.0907,-4.0907,-4.0907,-4.0907,-4.0907,-4.0907,-4.0907,-4.0907,-4.0907,-4.0907,-4.0907,-4.0907,-4.0907,-4.0907,-4.0907,-4.0907,-4.083,-4.0402,-3.9994,-3.9621,-3.914,-3.8402,-3.7523,-3.6604,-3.6051,-3.5741,-3.5793,-3.5797,-3.5801,-3.5791,-3.5806,-3.5793,-3.5741,-3.576,-3.576,-3.576,-3.5769,-3.5797,-3.5797,-3.5797,-3.5814,-3.5845,-3.5818,-3.5802,-3.5833,-3.5852,0.0,-3.5858,-3.5858,-3.5852,-3.5856,-3.5856,-3.5813,-3.576,-3.5715,0.0,-3.5693,-3.5701,-3.5704,-3.5704,-3.5704,-3.6091,-3.6884,-3.816,-3.9475,-4.0797,-4.0797,-4.0797,-4.0797,-4.0797,-4.0797,-4.0797,-4.0797,-4.0797,-4.0797,-4.0797,-4.0797,-4.0797,-4.0797,-4.1029,-4.1506,-4.2821,-4.3556,-4.4078,-5.1202,-5.1202,-5.1202,-5.1202,-5.1202,-5.1202,-5.1202,-5.1202,-5.1202,-5.1202,-5.1202,-5.0872,-5.0004,-4.9124,-4.825,-4.737,-4.6502,-4.6002,-4.6002,-4.6002,-4.571,-4.5006,-4.4151,-4.3297,-4.2427,-4.1412,-4.0907,-4.0907,-4.0907,-4.0907,-4.0907,-4.0907,-4.0907,-4.0907,-4.0907,-4.0907,-4.0907,-4.0907,-4.0907,-4.0907,-4.0907,-4.0907,-4.0907,-4.0907,-4.0907,-4.0907,-4.0907,-4.0907,-4.0907,-4.0907,-4.0461,-3.9878,-3.9891,-3.9308,-3.8445,-3.77,-3.6778,-3.5969,-3.5834,-3.5807,-3.5819,-3.5811,-3.5815,-3.5815,-3.5815,-3.5815,-3.5815,-3.5815,-3.5823,-3.5819,-3.5811,-3.5811,-3.5823,-3.59,-3.5908,-3.5904,-3.5903,0.0,-3.5895,-3.5895,-3.5895,-3.5892,-3.5905,-3.5903,-3.5886,-3.581,-3.5742,-3.5714,-3.5723,-3.5716,-3.5767,-3.5878,-3.5878,-3.6342,-3.729,-3.8901,-4.0062,-4.0797,-4.0797,-4.0797,-4.0797,-4.0797,-4.0797,-4.0797,-4.0797,-4.0797,-4.0803,-4.0797,-4.0803,-4.0809,-4.0803,-4.1228,-4.1944,-4.295,-4.3782,-4.4556,-5.1202,-5.1202,-5.1202,-5.1202,-5.1202,-5.1202,-5.1202,-5.1202,-5.1202,-5.1202,-5.1202,-5.0872,-5.0004,-4.9124,-4.825,-4.737,-4.6502,-4.6002,-4.6002,-4.6002,-4.5944,-4.5827,-4.5025,-4.419,-4.3316,-4.1723,-4.0907,-4.0907,-4.0907,-4.0907,-4.0907,-4.0907,-4.0907,-4.0907,-4.0907,-4.0907,-4.0907,-4.0907,-4.0907,-4.0907,-4.0907,-4.0907,-4.0907,-4.0907,-4.0907,-4.0907,-4.0907,-4.0907,-4.0907,-4.0907,-4.083,-4.0727,-4.0781,-4.019,-3.9464,-3.9347,-3.8151,-3.6751,-3.6008,-3.5849,-3.5886,-3.589,-3.5878,-3.5878,-3.5878,-3.5878,-3.5878,-3.5878,-3.5887,-3.5869,-3.5873,-3.5843,-3.5823,-3.59,-3.5908,-3.5892,-3.5902,0.0,-3.5895,-3.5895,-3.5895,-3.5895,-3.5893,-3.5893,-3.589,-3.5884,-3.5819,-3.5772,-3.5783,-3.5727,-3.6021,-3.669,-3.6709,-3.7483,-3.9075,-4.01,-4.0681,-4.0797,-4.0797,-4.0797,-4.0797,-4.0797,-4.0797,-4.0797,-4.0797,-4.0809,-4.0808,-4.0803,-4.0808,-4.079,-4.08,-4.0883,-4.1183,-4.2792,-4.347,-4.3819,-5.1202,-5.1202,-5.1202,-5.1202,-5.1202,-5.1202,-5.1202,-5.1202,-5.1202,-5.1202,-5.1202,-5.1047,-5.0639,-4.9823,-4.8957,-4.8132,-4.7265,-4.6567,-4.6144,-4.6041,-4.6002,-4.6002,-4.522,-4.4195,-4.2883,-4.2074,-4.1412,-4.0941,-4.0915,-4.0907,-4.0907,-4.0907,-4.0907,-4.0907,-4.0907,-4.0915,-4.0941,-4.0941,-4.0948,-4.0941,-4.096,-4.1233,-4.1599,-4.1081,-4.1199,-4.1538,-4.112,-4.0941,-4.0949,-4.0951,-4.0944,-4.097,-4.0994,-4.0713,-4.0326,-3.9887,-3.8492,-3.6913,-3.6076,-3.5869,-3.5894,-3.589,-3.5895,-3.5895,-3.5895,-3.5895,-3.5895,-3.5895,-3.5901,-3.5896,-3.5892,-3.5867,-3.5853,-3.5895,-3.59,0.0,0.0,-3.5957,-3.5957,-3.5957,-3.5957,-3.5957,-3.5957,-3.5957,-3.5937,-3.5894,-3.5861,-3.5849,-3.5801,-3.6211,-3.6614,-3.6933,-3.7829,-3.8688,-3.9481,-4.0352,-4.0797,-4.0797,-4.0797,-4.0797,-4.0797,-4.0797,-4.0803,-4.0796,-4.0796,-4.0794,-4.0804,-4.0792,-4.0804,-4.0807,-4.079,-4.1086,-4.1602,-4.2396,-4.2997,-4.3579,-5.1225,-5.1225,-5.1225,-5.1225,-5.1225,-5.1225,-5.1225,-5.1225,-5.1225,-5.1225,-5.1225,-5.1225,-5.1225,-5.0447,-4.9662,-4.9058,-4.8009,-4.7137,-4.6513,-4.6203,-4.605,-4.605,-4.5252,-4.4203,-4.29,-4.25,-4.1968,-4.1279,-4.1021,-4.0907,-4.0907,-4.0911,-4.092,-4.092,-4.0925,-4.0948,-4.0995,-4.0995,-4.1001,-4.1008,-4.0994,-4.1521,-4.2217,-4.1505,-4.1774,-4.2447,-4.1841,-4.1465,-4.1295,-4.1294,-4.1168,-4.0994,-4.1019,-4.1017,-4.0876,-4.0278,-3.8975,-3.7507,-3.6471,-3.6045,-3.5906,-3.593,-3.5911,-3.5911,-3.5911,-3.5911,-3.5911,-3.5911,-3.5908,-3.5906,-3.591,-3.5903,-3.5903,-3.5898,0.0,0.0,0.0,-3.5996,-3.5992,-3.5992,-3.5992,-3.5992,-3.5992,-3.5992,-3.5982,-3.5936,-3.5918,-3.5967,-3.6129,-3.674,-3.7263,-3.761,-3.8858,-3.9602,-3.9795,-4.0467,-4.0796,-4.0796,-4.0796,-4.0796,-4.0796,-4.0796,-4.0808,-4.0806,-4.0806,-4.0809,-4.0818,-4.0812,-4.0818,-4.0828,-4.0818,-4.1225,-4.1851,-4.2045,-4.2549,-4.3247,-5.1286,-5.1286,-5.1286,-5.1286,-5.1286,-5.1286,-5.1286,-5.1286,-5.1286,-5.1286,-5.1286,-5.1286,-5.1286,-5.0508,-4.9963,-4.9907,-4.8365,-4.7372,-4.7317,-4.6608,-4.6195,-4.6195,-4.5356,-4.4812,-4.4621,-4.3085,-4.2236,-4.2107,-4.1301,-4.0907,-4.0907,-4.0953,-4.0984,-4.0987,-4.0986,-4.1005,-4.1007,-4.1007,-4.1008,-4.0992,-4.1008,-4.1516,-4.2297,-4.2217,-4.2744,-4.3489,-4.3434,-4.2886,-4.2199,-4.2202,-4.1675,-4.1016,-4.1073,-4.1048,-4.0998,-4.0994,-4.0332,-3.9238,-3.7558,-3.6503,-3.5918,-3.5985,-3.5999,-3.5999,-3.5999,-3.5999,-3.5999,-3.5999,-3.5934,-3.5918,-3.5984,-3.5937,-3.5903,-3.5898,0.0,0.0,-3.5918,-3.5968,-3.5992,-3.5992,-3.5992,-3.5992,-3.5992,-3.5992,-3.5994,-3.5995,-3.5935,-3.625,-3.7048,-3.7109,-3.7847,-3.9453,-3.955,-3.9954,-4.0704,-4.0762,-4.0801,-4.0801,-4.0801,-4.0801,-4.0801,-4.0801,-4.0801,-4.0807,-4.0807,-4.0837,-4.0897,-4.0837,-4.0839,-4.0898,-4.0893,-4.0937,-4.1097,-4.1893,-4.2223,-4.2418,-5.1297,-5.1297,-5.1297,-5.1297,-5.1297,-5.1297,-5.1297,-5.1297,-5.1297,-5.1297,-5.1297,-5.1297,-5.1297,-5.1004,-5.0605,-5.0112,-4.8961,-4.8065,-4.7557,-4.6736,-4.6249,-4.6204,-4.5888,-4.5443,-4.4867,-4.4245,-4.3381,-4.2311,-4.1952,-4.1488,-4.0959,-4.0998,-4.1007,-4.1007,-4.1005,-4.1021,-4.1051,-4.1051,-4.1054,-4.1112,-4.1659,-4.2379,-4.31,-4.311,-4.365,-4.4335,-4.3842,-4.3455,-4.3084,-4.2539,-4.2146,-4.1775,-4.1262,-4.1089,-4.1072,-4.1087,-4.0479,-3.9658,-3.8995,-3.7803,-3.665,-3.6132,-3.5992,-3.5992,-3.5992,-3.5992,-3.5992,-3.5992,-3.5982,-3.5965,-3.5994,-3.5988,-3.5954,-3.5969,0.0,-3.5967,-3.5967,-3.5979,-3.5992,-3.5992,-3.5992,-3.5992,-3.5992,-3.5992,-3.5992,-3.5992,-3.6471,-3.6891,-3.7187,-3.8192,-3.9309,-4.0475,-4.0482,-4.0581,-4.0867,-4.0867,-4.0835,-4.0807,-4.0807,-4.0807,-4.0807,-4.0807,-4.0818,-4.0867,-4.0867,-4.0888,-4.0888,-4.0864,-4.0869,-4.0907,-4.0893,-4.0898,-4.0946,-4.1276,-4.1393,-4.151,-5.1324,-5.1324,-5.1324,-5.1324,-5.1324,-5.1324,-5.1324,-5.1324,-5.1324,-5.1324,-5.1324,-5.1324,-5.1324,-5.1324,-5.1112,-5.0564,-4.9704,-4.886,-4.8039,-4.6924,-4.6279,-4.6227,-4.623,-4.5936,-4.5312,-4.5039,-4.4336,-4.3181,-4.2583,-4.1988,-4.1402,-4.1158,-4.1024,-4.1024,-4.103,-4.1054,-4.1091,-4.1091,-4.1105,-4.1189,-4.2044,-4.2888,-4.3651,-4.3945,-4.4588,-4.5271,-4.4706,-4.4332,-4.4018,-4.3417,-4.304,-4.2669,-4.1771,-4.1324,-4.1109,-4.1109,-4.0678,-4.0151,-3.9878,-3.8961,-3.7828,-3.6695,-3.6207,-3.5992,-3.5992,-3.5992,-3.5992,-3.5992,-3.5992,-3.5992,-3.5992,-3.5992,-3.5992,-3.5992,-3.5992,-3.5992,-3.5992,-3.5992,-3.5992,-3.5992,-3.5992,-3.5992,-3.5992,-3.6246,-3.6402,-3.6402,-3.7223,-3.7798,-3.8005,-3.9414,-4.0466,-4.1012,-4.1032,-4.1019,-4.0961,-4.0941,-4.0914,-4.0864,-4.0864,-4.0849,-4.0833,-4.0833,-4.0863,-4.0898,-4.0898,-4.0908,-4.0907,-4.0907,-4.0907,-4.0907,-4.0907,-4.0907,-4.0907,-4.0907,-4.0907,-4.0985,-5.1394,-5.1394,-5.1394,-5.1394,-5.1394,-5.1394,-5.1394,-5.1394,-5.1394,-5.1394,-5.1394,-5.1394,-5.1394,-5.1394,-5.1394,-5.1394,-5.0592,-4.9733,-4.8857,-4.7237,-4.63,-4.63,-4.63,-4.6276,-4.6191,-4.5351,-4.4901,-4.4898,-4.316,-4.2301,-4.2283,-4.1482,-4.1113,-4.1094,-4.1101,-4.1109,-4.1109,-4.1109,-4.1109,-4.1187,-4.2064,-4.2923,-4.3801,-4.468,-4.5558,-4.63,-4.63,-4.5734,-4.501,-4.499,-4.4426,-4.3567,-4.2689,-4.181,-4.1109,-4.1109,-4.1109,-4.0914,-4.0054,-3.9819,-3.9409,-3.7731,-3.6656,-3.6012,-3.6012,-3.5992,-3.5992,-3.5992,-3.5992,-3.5992,-3.5992,-3.5992,-3.5992,-3.5992,-3.5992,-3.5992,-3.5992,-3.5992,-3.5992,-3.6012,-3.6012,-3.6012,-3.6012,-3.6794,-3.7301,-3.7301,-3.8123,-3.8962,-3.9761,-4.062,-4.1109,-4.1109,-4.1109,-4.1102,-4.1094,-4.1024,-4.0992,-4.0994,-4.0994,-4.0976,-4.0888,-4.0888,-4.0907,-4.0907,-4.0907,-4.0907,-4.0907,-4.0907,-4.0907,-4.0907,-4.0907,-4.0907,-4.0907,-4.0907,-4.0907,-4.0888,-5.1394,-5.1394,-5.1394,-5.1394,-5.1394,-5.1394,-5.1394,-5.1394,-5.1394,-5.1394,-5.1394,-5.1394,-5.1394,-5.1394,-5.1394,-5.1394,-5.0592,-4.9499,-4.8057,-4.6924,-4.63,-4.63,-4.63,-4.6285,-4.6276,-4.6021,-4.5575,-4.4975,-4.4448,-4.3569,-4.2358,-4.2119,-4.1686,-4.1101,-4.1094,-4.1109,-4.1109,-4.1109,-4.1439,-4.2084,-4.2962,-4.3821,-4.4719,-4.5578,-4.6066,-4.63,-4.63,-4.6124,-4.5812,-4.5207,-4.4836,-4.4465,-4.3587,-4.2708,-4.2006,-4.2006,-4.1576,-4.1031,-4.0777,-4.0268,-3.9546,-3.8474,-3.7555,-3.6911,-3.6911,-3.6441,-3.5992,-3.5992,-3.5992,-3.5992,-3.5992,-3.5992,-3.5992,-3.5992,-3.5992,-3.5992,-3.5992,-3.5992,-3.6226,-3.6833,-3.6911,-3.7145,-3.777,-3.8064,-3.8201,-3.8201,-3.898,-3.98,-4.0678,-4.0953,-4.1109,-4.1109,-4.1109,-4.1094,-4.1101,-4.1074,-4.1045,-4.0994,-4.0994,-4.0986,-4.0972,-4.0972,-4.097,-4.0979,-4.0979,-4.0949,-4.0907,-4.0907,-4.0928,-4.0972,-4.0915,-4.0929,-4.0967,-4.0961,-4.0974,-4.0972,-5.1394,-5.1394,-5.1394,-5.1394,-5.1394,-5.1394,-5.1394,-5.1394,-5.1394,-5.1394,-5.1394,-5.1394,-5.1394,-5.1394,-5.1394,-5.1394,-5.0282,-4.9169,-4.8135,-4.6963,-4.63,-4.63,-4.63,-4.63,-4.63,-4.63,-4.6046,-4.5519,-4.5168,-4.4463,-4.3411,-4.2728,-4.2123,-4.1596,-4.1246,-4.1109,-4.1109,-4.1109,-4.1596,-4.2474,-4.3352,-4.4211,-4.5107,-4.5968,-4.63,-4.63,-4.63,-4.63,-4.6222,-4.5695,-4.5285,-4.4912,-4.4387,-4.3626,-4.2845,-4.2494,-4.2025,-4.1537,-4.1187,-4.0717,-4.019,-3.9704,-3.8689,-3.7809,-3.7809,-3.7419,-3.6931,-3.6597,-3.65,-3.65,-3.65,-3.65,-3.6636,-3.697,-3.7028,-3.7028,-3.7028,-3.7028,-3.7223,-3.775,-3.7809,-3.8025,-3.8552,-3.8884,-3.9216,-3.9567,-4.0034,-4.0542,-4.107,-4.1109,-4.1109,-4.1109,-4.1109,-4.1109,-4.1109,-4.1104,-4.1074,-4.1046,-4.1046,-4.1022,-4.0992,-4.0992,-4.0998,-4.1008,-4.1008,-4.097,-4.0935,-4.0935,-4.0958,-4.1005,-4.0971,-4.0964,-4.1008,-4.1001,-4.1009,-4.0992,-5.1394,-5.1394,-5.1394,-5.1394,-5.1394,-5.1394,-5.1394,-5.1394,-5.1394,-5.1394,-5.1394,-5.1394,-5.1394,-5.1394,-5.1394,-5.1394,-4.9813,-4.8798,-4.8798,-4.7237,-4.63,-4.63,-4.63,-4.63,-4.63,-4.63,-4.63,-4.63,-4.5519,-4.5088,-4.4971,-4.3372,-4.2552,-4.2376,-4.1576,-4.1168,-4.1109,-4.1109,-4.1654,-4.2591,-4.3372,-4.427,-4.5207,-4.6007,-4.63,-4.63,-4.63,-4.63,-4.63,-4.63,-4.5773,-4.5129,-4.5129,-4.4524,-4.3665,-4.2864,-4.2572,-4.2337,-4.1439,-4.1226,-4.1207,-4.1129,-3.9958,-3.8806,-3.8728,-3.865,-3.8376,-3.7575,-3.7419,-3.7419,-3.7419,-3.7419,-3.7672,-3.8474,-3.8591,-3.8591,-3.8591,-3.8591,-3.863,-3.8708,-3.8708,-3.8747,-3.8825,-3.9488,-4.0249,-4.1031,-4.1109,-4.1109,-4.1109,-4.1109,-4.1109,-4.1109,-4.1109,-4.1109,-4.1109,-4.1109,-4.1101,-4.1093,-4.1093,-4.1073,-4.1019,-4.1019,-4.1017,-4.1016,-4.1016,-4.1013,-4.0992,-4.0992,-4.0994,-4.1015,-4.0992,-4.0995,-4.1019,-4.1016,-4.1017,-4.1019,-5.1394,-5.1394,-5.1394,-5.1394,-5.1394,-5.1394,-5.1394,-5.1394,-5.1394,-5.1394,-5.1394,-5.1394,-5.1394,-5.1394,-5.1394,-5.1394,-4.9813,-4.8798,-4.8798,-4.7237,-4.63,-4.63,-4.63,-4.63,-4.63,-4.63,-4.63,-4.63,-4.6105,-4.5675,-4.499,-4.46,-4.3704,-4.2396,-4.2201,-4.1732,-4.1109,-4.1109,-4.2007,-4.343,-4.3626,-4.4621,-4.6046,-4.6222,-4.63,-4.63,-4.63,-4.63,-4.63,-4.63,-4.6163,-4.6027,-4.6027,-4.5421,-4.468,-4.4483,-4.3957,-4.3235,-4.2357,-4.2123,-4.1947,-4.1265,-4.0836,-4.0387,-3.9702,-3.906,-3.8552,-3.8357,-3.8318,-3.8318,-3.8318,-3.8318,-3.8376,-3.8572,-3.8591,-3.8591,-3.8591,-3.8591,-3.8825,-3.9468,-3.9546,-3.98,-4.0485,-4.0719,-4.0894,-4.109,-4.1109,-4.1109,-4.1109,-4.1109,-4.1109,-4.1109,-4.1109,-4.1109,-4.1109,-4.1109,-4.1093,-4.1099,-4.1099,-4.1082,-4.1086,-4.1086,-4.1072,-4.1073,-4.1073,-4.1048,-4.0992,-4.0992,-4.1023,-4.1073,-4.102,-4.1032,-4.1087,-4.1074,-4.1074,-4.1086,-5.1394,-5.1394,-5.1394,-5.1394,-5.1394,-5.1394,-5.1394,-5.1394,-5.1394,-5.1394,-5.1394,-5.1394,-5.1394,-5.1394,-5.1394,-5.1394,-4.9813,-4.8798,-4.8798,-4.7237,-4.63,-4.63,-4.63,-4.63,-4.63,-4.63,-4.63,-4.63,-4.63,-4.6066,-4.5617,-4.5187,-4.4502,-4.3606,-4.2767,-4.2142,-4.1693,-4.1285,-4.187,-4.3118,-4.3528,-4.4504,-4.5734,-4.6144,-4.63,-4.63,-4.63,-4.63,-4.63,-4.63,-4.63,-4.6222,-4.5812,-4.5363,-4.4834,-4.3995,-4.345,-4.2884,-4.2025,-4.1771,-4.1674,-4.1207,-4.1109,-4.0973,-4.0522,-4.0094,-3.9665,-3.9255,-3.9175,-3.9175,-3.9175,-3.9175,-3.9313,-3.9723,-3.9782,-3.9782,-3.9782,-3.9782,-3.9958,-4.0366,-4.0424,-4.06,-4.1051,-4.1109,-4.1109,-4.1109,-4.1109,-4.1109,-4.1109,-4.1109,-4.1109,-4.1109,-4.1109,-4.1109,-4.1109,-4.1109,-4.1109,-4.1109,-4.1109,-4.1109,-4.1109,-4.1109,-4.1098,-4.1108,-4.1108,-4.1072,-4.1055,-4.1055,-4.1074,-4.1108,-4.1054,-4.1071,-4.1091,-4.1104,-4.1101,-4.1109,-5.1394,-5.1394,-5.1394,-5.1394,-5.1394,-5.1394,-5.1394,-5.1394,-5.1394,-5.1394,-5.1394,-5.1394,-5.1394,-5.1394,-5.1394,-5.1394,-4.9813,-4.8798,-4.8798,-4.7237,-4.63,-4.63,-4.63,-4.63,-4.63,-4.63,-4.63,-4.63,-4.63,-4.63,-4.628,-4.5558,-4.5148,-4.4932,-4.3333,-4.2533,-4.2337,-4.1479,-4.1596,-4.2454,-4.3196,-4.3997,-4.4875,-4.5753,-4.6085,-4.6105,-4.6241,-4.63,-4.628,-4.6124,-4.6085,-4.5929,-4.5051,-4.4777,-4.4484,-4.306,-4.2611,-4.2435,-4.1557,-4.1324,-4.1285,-4.1148,-4.1109,-4.1109,-4.1109,-4.1109,-4.0894,-4.0171,-4.0015,-4.0015,-4.0015,-4.0015,-4.0268,-4.0973,-4.1109,-4.1109,-4.1109,-4.1109,-4.1109,-4.1109,-4.1109,-4.1109,-4.1109,-4.1109,-4.1109,-4.1109,-4.1109,-4.1109,-4.1109,-4.1109,-4.1109,-4.1109,-4.1109,-4.1109,-4.1109,-4.1109,-4.1109,-4.1109,-4.1109,-4.1109,-4.1109,-4.1109,-4.1109,-4.1109,-4.1109,-4.1109,-4.1109,-4.1109,-4.1109,-4.1109,-4.1109,-4.1109,-4.1109,-4.1109,-4.1109,-4.1109,-5.1394,-5.1394,-5.1394,-5.1394,-5.1394,-5.1394,-5.1394,-5.1394,-5.1394,-5.1394,-5.1394,-5.1394,-5.1394,-5.1394,-5.1394,-5.1394,-4.9813,-4.8798,-4.8798,-4.7237,-4.63,-4.63,-4.63,-4.63,-4.63,-4.63,-4.63,-4.63,-4.63,-4.63,-4.63,-4.6183,-4.5714,-4.4951,-4.3977,-4.3118,-4.2337,-4.1479,-4.1596,-4.2415,-4.2533,-4.3099,-4.3977,-4.4836,-4.5187,-4.5265,-4.6027,-4.63,-4.6183,-4.5421,-4.5187,-4.5012,-4.4153,-4.3879,-4.3821,-4.3587,-4.3528,-4.3333,-4.2454,-4.222,-4.2045,-4.1285,-4.1109,-4.1109,-4.1109,-4.1109,-4.107,-4.0953,-4.0914,-4.0914,-4.0914,-4.0914,-4.0953,-4.109,-4.1109,-4.1109,-4.1109,-4.1109,-4.1109,-4.1109,-4.1109,-4.1109,-4.1109,-4.1109,-4.1109,-4.1109,-4.1109,-4.1109,-4.1109,-4.1109,-4.1109,-4.1109,-4.1109,-4.1109,-4.1109,-4.1109,-4.1109,-4.1109,-4.1109,-4.1109,-4.1109,-4.1109,-4.1109,-4.1109,-4.1109,-4.1109,-4.1109,-4.1109,-4.1109,-4.1109,-4.1109,-4.1109,-4.1109,-4.1109,-4.1109,-4.1109,-5.1394,-5.1394,-5.1394,-5.1394,-5.1394,-5.1394,-5.1394,-5.1394,-5.1394,-5.1394,-5.1394,-5.1394,-5.1394,-5.1394,-5.1394,-5.1394,-4.9813,-4.8798,-4.8798,-4.7237,-4.63,-4.63,-4.63,-4.63,-4.63,-4.63,-4.63,-4.63,-4.63,-4.63,-4.63,-4.63,-4.6085,-4.5695,-4.4816,-4.3938,-4.3079,-4.2201,-4.1771,-4.1713,-4.2201,-4.263,-4.3079,-4.3938,-4.427,-4.4328,-4.4719,-4.4855,-4.4797,-4.4406,-4.427,-4.4114,-4.3255,-4.2962,-4.2884,-4.2398,-4.2241,-4.2163,-4.1771,-4.1674,-4.1576,-4.1207,-4.1109,-4.1109,-4.1109,-4.1109,-4.1109,-4.1109,-4.1109,-4.1109,-4.1109,-4.1109,-4.1109,-4.1109,-4.1109,-4.1109,-4.1109,-4.1109,-4.1109,-4.1109,-4.1109,-4.1109,-4.1109,-4.1109,-4.1109,-4.1109,-4.1109,-4.1109,-4.1109,-4.1109,-4.1109,-4.1109,-4.1109,-4.1109,-4.1109,-4.1109,-4.1109,-4.1109,-4.1109,-4.1109,-4.1109,-4.1109,-4.1363,-4.183,-4.183,-4.2103,-4.2554,-4.2554,-4.2554,-4.2554,-4.2554,-4.224,-4.183,-4.183,-4.1518,-4.1109]},{"header":{"parameterUnit":"m.s-1","parameterCategory":1,"la1":30.6,"la2":28.766,"lo1":-90.7593,"lo2":-88.6598,"dy":0.0162,"dx":0.0183,"nx":116,"ny":114,"refTime":"2023-07-15T12:00:00:Z","depth":0,"parameterNumber":3,"parameterNumberName":"V-component_of_WINDS"},"data":[0.0,0.0,0.0,0.0,0.0,0.0,0.0,0.0,0.0,0.0,0.0,0.0,0.0,0.0,0.0,0.0,0.0,0.0,0.0,0.0,0.0,0.0,0.0,0.0,0.0,0.0,0.0,0.0,0.0,0.0,0.0,0.0,0.0,0.0,0.0,0.0,0.0,0.0,0.0,0.0,0.0,0.0,0.0,0.0,0.0,0.0,0.0,0.0,0.0,0.0,0.0,0.0,0.0,0.0,0.0,0.0,0.0,0.0,0.0,0.0,0.0,0.0,0.0,0.0,0.0,0.0,0.0,0.0,0.0,0.0,0.0,0.0,0.0,0.0,0.0,0.0,0.0,0.0,0.0,0.0,0.0,0.0,0.0,0.0,0.0,0.0,0.0,0.0,0.0,0.0,0.0,0.0,0.0,0.0,0.0,0.0,0.0,0.0,0.0,0.0,0.0,0.0,0.0,0.0,0.0,0.0,0.0,0.0,0.0,0.0,0.0,0.0,0.0,0.0,0.0,0.0,0.0,0.0,0.0,0.0,0.0,0.0,0.0,0.0,0.0,0.0,0.0,0.0,0.0,0.0,0.0,0.0,0.0,0.0,0.0,0.0,0.0,0.0,0.0,0.0,0.0,0.0,0.0,0.0,0.0,0.0,0.0,0.0,0.0,0.0,0.0,0.0,0.0,0.0,0.0,0.0,0.0,0.0,0.0,0.0,0.0,0.0,0.0,0.0,0.0,0.0,0.0,0.0,0.0,0.0,0.0,0.0,0.0,0.0,0.0,0.0,0.0,0.0,0.0,0.0,0.0,0.0,0.0,0.0,0.0,0.0,0.0,0.0,0.0,0.0,0.0,0.0,0.0,0.0,0.0,0.0,0.0,0.0,0.0,0.0,0.0,0.0,0.0,0.0,0.0,0.0,0.0,0.0,0.0,0.0,0.0,0.0,0.0,0.0,0.0,0.0,0.0,0.0,0.0,0.0,0.0,0.0,0.0,0.0,0.0,0.0,0.0,0.0,0.0,0.0,0.0,0.0,0.0,0.0,0.0,0.0,0.0,0.0,0.0,0.0,0.0,0.0,0.0,0.0,0.0,0.0,0.0,0.0,0.0,0.0,0.0,0.0,0.0,0.0,0.0,0.0,0.0,0.0,0.0,0.0,0.0,0.0,0.0,0.0,0.0,0.0,0.0,0.0,0.0,0.0,0.0,0.0,0.0,0.0,0.0,0.0,0.0,0.0,0.0,0.0,0.0,0.0,0.0,0.0,0.0,0.0,0.0,0.0,0.0,0.0,0.0,0.0,0.0,0.0,0.0,0.0,0.0,0.0,0.0,0.0,0.0,0.0,0.0,0.0,0.0,0.0,0.0,0.0,0.0,0.0,0.0,0.0,0.0,0.0,0.0,0.0,0.0,0.0,0.0,0.0,0.0,0.0,0.0,0.0,0.0,0.0,0.0,0.0,0.0,0.0,0.0,0.0,0.0,0.0,0.0,0.0,0.0,0.0,0.0,0.0,0.0,0.0,0.0,0.0,0.0,0.0,0.0,0.0,0.0,0.0,0.0,0.0,0.0,0.0,0.0,0.0,0.0,0.0,0.0,0.0,0.0,0.0,0.0,0.0,0.0,0.0,0.0,0.0,0.0,0.0,0.0,0.0,0.0,0.0,0.0,0.0,0.0,0.0,0.0,0.0,0.0,0.0,0.0,0.0,0.0,0.0,0.0,0.0,0.0,0.0,0.0,0.0,0.0,0.0,0.0,0.0,0.0,0.0,0.0,0.0,0.0,0.0,0.0,0.0,0.0,0.0,0.0,0.0,0.0,0.0,0.0,0.0,0.0,0.0,0.0,0.0,0.0,0.0,0.0,0.0,0.0,0.0,0.0,0.0,0.0,0.0,0.0,0.0,0.0,0.0,0.0,0.0,0.0,0.0,0.0,0.0,0.0,0.0,0.0,0.0,0.0,0.0,0.0,0.0,0.0,0.0,0.0,0.0,0.0,0.0,0.0,0.0,0.0,0.0,0.0,0.0,0.0,0.0,0.0,0.0,0.0,0.0,0.0,0.0,0.0,0.0,0.0,0.0,0.0,0.0,0.0,0.0,0.0,0.0,0.0,0.0,0.0,0.0,0.0,0.0,0.0,0.0,0.0,0.0,0.0,0.0,0.0,0.0,0.0,0.0,0.0,0.0,0.0,0.0,0.0,0.0,0.0,0.0,0.0,0.0,0.0,0.0,0.0,0.0,0.0,0.0,0.0,0.0,0.0,0.0,0.0,0.0,0.0,0.0,0.0,0.0,0.0,0.0,0.0,0.0,0.0,0.0,0.0,0.0,0.0,0.0,0.0,0.0,0.0,0.0,0.0,0.0,0.0,0.0,0.0,0.0,0.0,0.0,0.0,0.0,0.0,0.0,0.0,0.0,0.0,0.0,0.0,0.0,0.0,0.0,0.0,0.0,0.0,0.0,0.0,0.0,0.0,0.0,0.0,0.0,0.0,0.0,0.0,0.0,0.0,0.0,0.0,0.0,0.0,0.0,0.0,0.0,0.0,0.0,0.0,0.0,0.0,0.0,0.0,0.0,0.0,0.0,0.0,0.0,0.0,0.0,0.0,0.0,0.0,0.0,0.0,0.0,0.0,0.0,0.0,0.0,0.0,0.0,0.0,0.0,0.0,0.0,0.0,0.0,0.0,0.0,0.0,0.0,0.0,0.0,0.0,0.0,0.0,0.0,0.0,0.0,0.0,0.0,0.0,0.0,0.0,0.0,0.0,0.0,0.0,0.0,0.0,0.0,0.0,0.0,0.0,0.0,0.0,0.0,0.0,0.0,0.0,0.0,0.0,0.0,0.0,0.0,0.0,0.0,0.0,0.0,0.0,0.0,0.0,0.0,0.0,0.0,0.0,0.0,0.0,0.0,0.0,0.0,0.0,0.0,0.0,0.0,0.0,0.0,0.0,0.0,0.0,0.0,0.0,0.0,0.0,0.0,0.0,0.0,0.0,0.0,0.0,0.0,0.0,0.0,0.0,0.0,0.0,0.0,0.0,0.0,0.0,0.0,0.0,0.0,0.0,0.0,0.0,0.0,0.0,0.0,0.0,0.0,0.0,0.0,0.0,0.0,0.0,0.0,0.0,0.0,0.0,0.0,0.0,0.0,0.0,0.0,0.0,0.0,0.0,0.0,0.0,0.0,0.0,0.0,0.0,0.0,0.0,0.0,0.0,0.0,0.0,0.0,0.0,0.0,0.0,0.0,0.0,0.0,0.0,0.0,0.0,0.0,0.0,0.0,0.0,0.0,0.0,0.0,0.0,0.0,0.0,0.0,0.0,0.0,0.0,0.0,0.0,0.0,0.0,0.0,0.0,0.0,0.0,0.0,0.0,0.0,0.0,0.0,0.0,0.0,0.0,0.0,0.0,0.0,0.0,0.0,0.0,0.0,0.0,0.0,0.0,0.0,0.0,0.0,0.0,0.0,0.0,0.0,0.0,0.0,0.0,0.0,0.0,0.0,0.0,0.0,0.0,0.0,0.0,0.0,0.0,0.0,0.0,0.0,0.0,0.0,0.0,0.0,0.0,0.0,0.0,0.0,0.0,0.0,0.0,0.0,0.0,0.0,0.0,0.0,0.0,0.0,0.0,0.0,0.0,0.0,0.0,0.0,0.0,0.0,0.0,0.0,0.0,0.0,0.0,0.0,0.0,0.0,0.0,0.0,0.0,0.0,0.0,0.0,0.0,0.0,0.0,0.0,0.0,0.0,0.0,0.0,0.0,0.0,0.0,0.0,0.0,0.0,0.0,0.0,0.0,0.0,0.0,0.0,0.0,0.0,0.0,0.0,0.0,0.0,0.0,0.0,0.0,0.0,0.0,0.0,0.0,0.0,0.0,0.0,0.0,0.0,0.0,0.0,0.0,0.0,0.0,0.0,0.0,0.0,0.0,0.0,0.0,0.0,0.0,0.0,0.0,0.0,0.0,0.0,0.0,0.0,0.0,0.0,0.0,0.0,0.0,0.0,0.0,0.0,0.0,0.0,0.0,0.0,0.0,0.0,0.0,0.0,0.0,0.0,0.0,0.0,0.0,0.0,0.0,0.0,0.0,0.0,0.0,0.0,0.0,0.0,0.0,0.0,0.0,0.0,0.0,0.0,0.0,0.0,0.0,0.0,0.0,0.0,0.0,0.0,0.0,0.0,0.0,0.0,0.0,0.0,0.0,0.0,0.0,0.0,0.0,0.0,0.0,0.0,0.0,0.0,0.0,0.0,0.0,0.0,0.0,0.0,0.0,0.0,0.0,0.0,0.0,0.0,0.0,0.0,0.0,0.0,0.0,0.0,0.0,0.0,0.0,0.0,0.0,0.0,0.0,0.0,0.0,0.0,0.0,0.0,0.0,0.0,0.0,0.0,0.0,0.0,0.0,0.0,0.0,0.0,0.0,0.0,0.0,0.0,0.0,0.0,0.0,0.0,0.0,0.0,0.0,0.0,0.0,0.0,0.0,0.0,0.0,0.0,0.0,0.0,0.0,0.0,0.0,0.0,0.0,0.0,0.0,0.0,0.0,0.0,0.0,0.0,0.0,0.0,0.0,0.0,0.0,0.0,0.0,0.0,0.0,0.0,0.0,0.0,0.0,0.0,0.0,0.0,0.0,0.0,0.0,0.0,0.0,0.0,0.0,0.0,0.0,0.0,0.0,0.0,0.0,0.0,0.0,0.0,0.0,0.0,0.0,0.0,0.0,0.0,0.0,0.0,0.0,0.0,0.0,0.0,0.0,0.0,0.0,0.0,0.0,0.0,0.0,0.0,0.0,0.0,0.0,0.0,0.0,0.0,0.0,0.0,0.0,0.0,0.0,0.0,0.0,0.0,0.0,0.0,0.0,0.0,0.0,0.0,0.0,0.0,0.0,0.0,0.0,0.0,0.0,0.0,0.0,0.0,0.0,0.0,0.0,0.0,0.0,0.0,0.0,0.0,0.0,0.0,0.0,0.0,0.0,0.0,0.0,0.0,0.0,0.0,0.0,0.0,0.0,0.0,0.0,0.0,0.0,0.0,0.0,0.0,0.0,0.0,0.0,0.0,0.0,0.0,0.0,0.0,0.0,0.0,0.0,0.0,0.0,0.0,0.0,0.0,0.0,0.0,0.0,0.0,0.0,0.0,0.0,0.0,0.0,0.0,0.0,0.0,0.0,0.0,0.0,0.0,0.0,0.0,0.0,0.0,0.0,0.0,0.0,0.0,0.0,0.0,0.0,0.0,0.0,0.0,0.0,0.0,0.0,0.0,0.0,0.0,0.0,0.0,0.0,0.0,0.0,0.0,0.0,0.0,0.0,0.0,0.0,0.0,0.0,0.0,0.0,0.0,0.0,0.0,0.0,0.0,0.0,0.0,0.0,0.0,0.0,0.0,0.0,0.0,0.0,0.0,0.0,0.0,0.0,0.0,0.0,0.0,0.0,0.0,0.0,0.0,0.0,0.0,0.0,0.0,0.0,0.0,0.0,0.0,0.0,0.0,0.0,0.0,0.0,0.0,0.0,0.0,0.0,0.0,0.0,0.0,0.0,0.0,0.0,0.0,0.0,0.0,0.0,0.0,0.0,0.0,0.0,0.0,0.0,0.0,0.0,0.0,0.0,0.0,0.0,0.0,0.0,0.0,0.0,0.0,0.0,0.0,0.0,0.0,0.0,0.0,0.0,0.0,0.0,0.0,0.0,0.0,0.0,0.0,0.0,0.0,0.0,0.0,0.0,0.0,0.0,0.0,0.0,0.0,0.0,0.0,0.0,0.0,0.0,0.0,0.0,0.0,0.0,0.0,0.0,0.0,0.0,0.0,0.0,0.0,0.0,0.0,0.0,0.0,0.0,0.0,0.0,0.0,0.0,0.0,0.0,0.0,0.0,0.0,0.0,0.0,0.0,0.0,0.0,0.0,0.0,0.0,0.0,0.0,0.0,0.0,0.0,0.0,0.0,0.0,0.0,0.0,0.0,0.0,0.0,0.0,0.0,0.0,0.0,0.0,0.0,0.0,0.0,0.0,0.0,0.0,0.0,0.0,0.0,0.0,0.0,0.0,0.0,0.0,0.0,0.0,0.0,0.0,0.0,0.0,0.0,0.0,0.0,0.0,-2.2707,0.0,0.0,0.0,0.0,0.0,0.0,0.0,0.0,0.0,0.0,0.0,0.0,0.0,0.0,0.0,0.0,0.0,0.0,0.0,0.0,0.0,0.0,0.0,0.0,0.0,0.0,0.0,0.0,0.0,0.0,0.0,0.0,0.0,0.0,0.0,0.0,0.0,0.0,0.0,0.0,0.0,0.0,0.0,0.0,0.0,0.0,0.0,0.0,0.0,0.0,0.0,0.0,0.0,0.0,0.0,0.0,0.0,0.0,0.0,0.0,0.0,0.0,0.0,0.0,0.0,0.0,0.0,0.0,0.0,0.0,0.0,0.0,0.0,0.0,0.0,0.0,0.0,0.0,0.0,0.0,0.0,0.0,0.0,0.0,0.0,0.0,0.0,0.0,0.0,0.0,0.0,0.0,0.0,0.0,0.0,0.0,0.0,0.0,0.0,0.0,0.0,0.0,0.0,0.0,0.0,0.0,0.0,0.0,0.0,0.0,0.0,0.0,0.0,0.0,0.0,0.0,-2.2206,0.0,0.0,0.0,0.0,0.0,0.0,0.0,0.0,0.0,0.0,0.0,0.0,0.0,0.0,0.0,0.0,0.0,0.0,0.0,0.0,0.0,0.0,0.0,0.0,0.0,0.0,0.0,0.0,0.0,0.0,0.0,0.0,0.0,0.0,0.0,0.0,0.0,0.0,0.0,0.0,0.0,0.0,0.0,0.0,0.0,0.0,0.0,0.0,0.0,0.0,0.0,0.0,0.0,0.0,0.0,0.0,0.0,0.0,0.0,0.0,0.0,0.0,0.0,0.0,0.0,0.0,0.0,0.0,0.0,0.0,0.0,0.0,0.0,0.0,0.0,0.0,0.0,0.0,0.0,0.0,0.0,0.0,0.0,0.0,0.0,0.0,0.0,0.0,0.0,0.0,0.0,0.0,0.0,0.0,0.0,0.0,0.0,0.0,0.0,0.0,0.0,0.0,0.0,0.0,0.0,0.0,0.0,0.0,-2.2487,-2.2462,-2.2462,-2.2559,-2.2402,-2.2068,-2.2356,-2.1992,-2.1221,-2.1608,0.0,0.0,0.0,0.0,0.0,0.0,0.0,0.0,0.0,0.0,0.0,0.0,0.0,0.0,0.0,0.0,0.0,0.0,0.0,0.0,0.0,0.0,0.0,0.0,0.0,0.0,0.0,0.0,0.0,0.0,0.0,0.0,0.0,0.0,0.0,0.0,0.0,0.0,-2.4935,-2.4935,-2.4894,-2.4827,-2.4242,0.0,0.0,0.0,0.0,0.0,0.0,0.0,0.0,0.0,0.0,0.0,0.0,0.0,0.0,0.0,0.0,0.0,0.0,0.0,0.0,0.0,0.0,0.0,0.0,0.0,0.0,0.0,0.0,0.0,0.0,0.0,0.0,0.0,0.0,0.0,0.0,0.0,0.0,0.0,0.0,0.0,0.0,0.0,-2.0162,-2.0279,0.0,0.0,0.0,0.0,0.0,0.0,0.0,0.0,0.0,0.0,0.0,0.0,0.0,-2.2665,-2.2592,-2.2218,-2.2002,-2.2002,-2.1981,-2.1976,-2.1999,-2.2472,-2.2635,-2.2578,-2.2172,0.0,-2.119,-2.1285,0.0,0.0,0.0,0.0,0.0,0.0,0.0,0.0,0.0,0.0,0.0,0.0,0.0,0.0,0.0,0.0,0.0,0.0,0.0,0.0,0.0,0.0,0.0,0.0,0.0,0.0,0.0,0.0,0.0,0.0,0.0,0.0,0.0,0.0,0.0,0.0,-2.5425,-2.5285,-2.5285,-2.5103,-2.5005,-2.4977,-2.4361,-2.4287,-2.4578,-2.4405,0.0,0.0,0.0,0.0,0.0,0.0,0.0,0.0,0.0,0.0,0.0,0.0,0.0,0.0,0.0,0.0,0.0,0.0,0.0,0.0,0.0,0.0,0.0,0.0,0.0,0.0,0.0,0.0,0.0,0.0,0.0,0.0,0.0,0.0,0.0,0.0,0.0,0.0,0.0,-2.0334,-2.0867,-2.1164,-2.1765,-2.2182,0.0,0.0,0.0,0.0,0.0,0.0,0.0,0.0,0.0,-2.2665,-2.2657,-2.2663,-2.2672,-2.2456,-2.2358,-2.2358,-2.2337,-2.2352,-2.2352,-2.2581,-2.2719,-2.2696,-2.2444,-2.2226,-2.2006,-2.1431,-2.119,-2.119,0.0,0.0,0.0,0.0,-2.119,-2.119,0.0,0.0,0.0,0.0,0.0,0.0,0.0,0.0,0.0,0.0,0.0,0.0,0.0,0.0,0.0,-2.1926,0.0,0.0,0.0,0.0,0.0,0.0,0.0,0.0,0.0,0.0,0.0,-2.5798,-2.5674,-2.5578,-2.5494,-2.53,-2.523,-2.5202,-2.475,-2.4664,-2.485,-2.4536,-2.4392,0.0,0.0,0.0,0.0,0.0,0.0,0.0,0.0,0.0,0.0,0.0,0.0,0.0,0.0,0.0,0.0,0.0,0.0,0.0,0.0,0.0,0.0,0.0,0.0,0.0,0.0,0.0,0.0,0.0,0.0,0.0,0.0,0.0,0.0,0.0,0.0,0.0,0.0,-2.0892,-2.1266,-2.1686,-2.1827,-2.2002,0.0,0.0,0.0,0.0,0.0,0.0,-2.264,-2.2731,-2.2778,-2.2692,-2.2716,-2.2694,-2.2707,-2.2811,-2.288,-2.288,-2.3133,-2.3247,-2.3259,-2.3397,-2.3374,-2.3247,-2.3156,-2.2995,-2.2811,-2.1949,-2.1581,-2.1581,-2.1581,-2.1581,-2.1581,-2.1581,-2.1581,-2.1581,0.0,0.0,0.0,0.0,0.0,0.0,0.0,0.0,0.0,0.0,0.0,0.0,0.0,0.0,-2.1926,-2.2161,-2.3333,-2.405,0.0,0.0,0.0,0.0,0.0,0.0,0.0,0.0,0.0,-2.5522,-2.5771,-2.5743,-2.5494,-2.5743,-2.5839,-2.5839,-2.5811,-2.5314,-2.4523,-2.4245,-2.4112,-2.4112,0.0,0.0,0.0,0.0,0.0,0.0,0.0,0.0,0.0,0.0,0.0,0.0,0.0,0.0,0.0,0.0,0.0,0.0,0.0,0.0,0.0,0.0,0.0,0.0,0.0,0.0,0.0,0.0,0.0,0.0,0.0,0.0,0.0,0.0,0.0,0.0,0.0,0.0,0.0,-2.1221,-2.1639,0.0,0.0,0.0,0.0,-2.197,-2.2858,-2.3194,-2.2726,-2.3114,-2.3166,-2.2707,-2.2707,-2.2684,-2.2719,-2.3121,-2.3361,-2.3384,-2.4313,-2.4797,-2.482,-2.5325,-2.5279,-2.4774,-2.4315,-2.3844,-2.3327,-2.2823,-2.2638,-2.2638,-2.2638,-2.2638,-2.2638,-2.2638,-2.2638,-2.2638,0.0,0.0,0.0,0.0,0.0,0.0,0.0,0.0,0.0,0.0,0.0,0.0,0.0,-2.202,-2.2114,-2.2184,-2.3361,-2.4092,-2.4092,0.0,0.0,0.0,0.0,0.0,0.0,0.0,-2.5839,-2.5743,-2.5839,-2.5839,-2.5743,-2.5674,-2.5716,-2.5866,-2.5481,-2.5258,-2.5131,-2.482,-2.4549,-2.4334,-2.4157,-2.4083,0.0,0.0,0.0,0.0,0.0,0.0,0.0,0.0,0.0,0.0,0.0,0.0,0.0,0.0,0.0,0.0,0.0,0.0,0.0,0.0,0.0,0.0,0.0,0.0,0.0,0.0,0.0,0.0,0.0,0.0,0.0,0.0,0.0,0.0,0.0,0.0,0.0,-2.1608,-2.1526,0.0,-2.2101,-2.2476,-2.2607,-2.243,-2.3045,-2.3185,-2.2744,-2.3166,-2.3479,-2.3638,-2.3959,-2.4281,-2.4625,-2.4809,-2.4863,-2.4875,-2.5218,-2.5429,-2.544,-2.5624,-2.5612,-2.5417,-2.5245,-2.5073,-2.4829,-2.4338,-2.3557,-2.2719,-2.2719,-2.2719,-2.2719,-2.2719,-2.2719,-2.2719,0.0,0.0,0.0,0.0,0.0,0.0,0.0,0.0,0.0,0.0,0.0,-2.2044,-2.1949,-2.2091,-2.2208,-2.2208,-2.3361,-2.4092,-2.4092,0.0,0.0,0.0,0.0,0.0,0.0,-2.5893,-2.5893,-2.5893,-2.5893,-2.5893,-2.5893,-2.573,-2.5716,-2.5866,-2.5481,-2.5383,-2.5494,-2.5257,-2.4977,-2.4637,-2.4347,-2.4232,-2.4245,0.0,0.0,0.0,0.0,0.0,0.0,0.0,0.0,0.0,0.0,0.0,0.0,0.0,0.0,0.0,0.0,0.0,0.0,0.0,0.0,0.0,0.0,0.0,0.0,0.0,0.0,0.0,0.0,0.0,0.0,0.0,0.0,0.0,0.0,0.0,-2.1374,-2.1855,-2.1635,-2.1779,-2.2629,-2.2709,-2.2754,-2.2937,-2.3386,-2.3595,-2.3455,-2.3889,-2.4324,-2.4694,-2.5015,-2.536,-2.5716,-2.5876,-2.5968,-2.5968,-2.614,-2.6232,-2.6232,-2.6232,-2.6129,-2.5968,-2.5968,-2.5876,-2.5681,-2.5325,-2.4602,-2.3672,-2.3328,-2.319,-2.319,-2.319,-2.319,-2.3167,0.0,0.0,0.0,0.0,0.0,0.0,0.0,0.0,0.0,0.0,-2.1793,-2.1926,-2.2184,-2.2208,-2.2208,-2.2208,-2.3361,-2.4092,-2.4092,-2.5246,0.0,0.0,0.0,0.0,-2.5893,-2.5893,-2.5893,-2.5893,-2.5893,-2.5893,-2.5893,-2.5921,-2.5921,-2.5921,-2.595,-2.5799,-2.555,-2.555,-2.5327,-2.4977,-2.4637,-2.4509,-2.4465,0.0,0.0,0.0,0.0,0.0,0.0,0.0,0.0,0.0,0.0,0.0,0.0,0.0,0.0,0.0,0.0,0.0,0.0,0.0,0.0,0.0,0.0,0.0,0.0,0.0,0.0,0.0,0.0,0.0,0.0,0.0,0.0,0.0,-2.1213,-2.1213,-2.1408,-2.186,-2.1929,-2.218,-2.2673,-2.2776,-2.296,-2.3442,-2.3971,-2.4453,-2.4912,-2.544,-2.5739,-2.5739,-2.575,-2.5761,-2.5761,-2.6244,-2.6524,-2.6536,-2.699,-2.719,-2.719,-2.719,-2.6955,-2.6524,-2.6524,-2.6209,-2.5761,-2.5739,-2.5739,-2.5635,-2.4636,-2.4246,-2.4246,-2.4246,-2.4235,-2.4154,0.0,0.0,0.0,0.0,0.0,0.0,0.0,0.0,0.0,0.0,-2.1841,-2.2114,-2.2184,-2.2208,-2.2208,-2.2208,-2.3361,-2.4092,-2.4092,0.0,0.0,0.0,0.0,0.0,-2.5893,-2.5893,-2.5893,-2.5893,-2.5893,-2.5893,-2.5907,-2.6357,-2.6554,-2.6582,-2.7045,-2.6975,-2.6427,-2.6427,-2.6008,-2.5313,-2.4723,-2.4509,-2.4465,0.0,0.0,0.0,0.0,0.0,0.0,0.0,0.0,0.0,0.0,0.0,0.0,0.0,0.0,0.0,0.0,0.0,0.0,0.0,0.0,0.0,0.0,0.0,0.0,0.0,0.0,0.0,0.0,0.0,0.0,0.0,0.0,-2.172,-2.172,-2.172,-2.1904,-2.2409,-2.2765,-2.3189,-2.3729,-2.4097,-2.4522,-2.505,-2.5222,-2.5348,-2.5486,-2.598,-2.6255,-2.6255,-2.6622,-2.6777,-2.6777,-2.6915,-2.7024,-2.7024,-2.7121,-2.719,-2.719,-2.719,-2.711,-2.7024,-2.7024,-2.6932,-2.6743,-2.6416,-2.6255,-2.6198,-2.5543,-2.5291,-2.5291,-2.5291,-2.505,-2.4694,0.0,0.0,0.0,0.0,0.0,0.0,0.0,0.0,0.0,0.0,-2.1864,-2.2208,-2.2208,-2.2208,-2.2208,-2.2208,-2.3361,-2.4092,-2.4092,0.0,0.0,0.0,0.0,-2.5893,-2.5893,-2.5893,-2.5893,-2.5893,-2.5893,-2.602,-2.6287,-2.6652,-2.6947,-2.7228,-2.7448,-2.7435,-2.7185,-2.6883,-2.6421,-2.5825,-2.5141,-2.472,-2.4465,-2.4216,-2.4083,-2.4083,-2.4083,-2.4083,-2.4067,-2.3789,0.0,0.0,0.0,0.0,0.0,0.0,0.0,0.0,0.0,0.0,0.0,0.0,0.0,0.0,0.0,0.0,0.0,0.0,0.0,0.0,0.0,0.0,0.0,0.0,-2.2078,-2.2386,-2.2788,-2.2513,-2.2513,-2.3224,-2.358,-2.4003,-2.4763,-2.5084,-2.5463,-2.5991,-2.6026,-2.6117,-2.6335,-2.6622,-2.6783,-2.6783,-2.7082,-2.719,-2.719,-2.719,-2.719,-2.719,-2.719,-2.719,-2.719,-2.719,-2.719,0.0,-2.719,-2.719,-2.7167,-2.6909,-2.6783,0.0,0.0,0.0,0.0,0.0,-2.552,-2.5245,0.0,0.0,0.0,0.0,0.0,0.0,0.0,0.0,0.0,0.0,0.0,-2.2137,-2.2184,-2.2184,-2.2184,-2.2208,-2.3361,-2.4149,0.0,0.0,0.0,-2.5866,-2.5866,-2.5893,-2.5853,-2.5866,-2.5893,-2.5893,-2.5893,-2.6217,-2.6807,-2.6891,-2.7256,-2.7888,-2.7561,-2.7591,-2.7786,-2.7103,-2.6617,-2.6235,-2.5636,-2.5039,-2.4465,-2.4216,-2.4083,-2.4083,-2.4083,-2.4083,-2.4083,-2.4024,0.0,0.0,0.0,0.0,0.0,0.0,0.0,0.0,0.0,0.0,0.0,0.0,0.0,0.0,0.0,0.0,0.0,0.0,0.0,0.0,0.0,0.0,0.0,0.0,-2.2524,-2.319,-2.4143,-2.3557,-2.3362,-2.4258,-2.4418,-2.4809,-2.5704,-2.5853,-2.6071,-2.6559,-2.6593,-2.6749,-2.7167,0.0,0.0,0.0,0.0,-2.719,-2.719,-2.719,-2.719,-2.719,-2.719,-2.719,-2.719,-2.719,-2.719,-2.719,-2.719,-2.719,-2.719,-2.719,-2.7149,-2.6964,-2.6063,-2.5721,-2.5721,-2.5592,-2.5519,-2.5462,0.0,0.0,0.0,0.0,0.0,0.0,0.0,0.0,0.0,-2.1313,-2.1496,-2.1722,-2.2161,-2.202,-2.1973,-2.2184,-2.3361,-2.45,0.0,0.0,-2.5798,-2.5605,-2.5798,-2.5798,-2.5578,-2.5798,-2.5893,-2.5893,-2.5893,-2.6217,-2.6821,-2.734,-2.796,-2.8535,-2.8657,-2.8509,-2.8083,-2.7625,-2.6725,-2.5577,-2.5458,-2.5039,-2.4465,-2.4216,-2.4083,-2.4083,-2.4083,-2.4083,-2.4024,-2.3671,-2.3198,-2.2707,-2.231,0.0,0.0,0.0,0.0,0.0,0.0,0.0,0.0,0.0,0.0,0.0,0.0,0.0,0.0,0.0,0.0,0.0,0.0,0.0,0.0,-2.3052,-2.358,-2.4108,-2.4694,-2.4981,-2.5199,-2.5394,-2.5773,-2.6145,-2.6341,-2.6691,-2.6938,-2.7082,-2.7041,-2.7087,-2.7179,-2.719,-2.719,-2.719,-2.719,-2.719,-2.719,-2.719,-2.719,-2.719,0.0,0.0,-2.719,-2.719,-2.719,-2.719,-2.719,-2.719,-2.719,-2.719,-2.6745,-2.6069,-2.584,-2.5763,-2.5681,-2.4986,-2.445,-2.4102,0.0,0.0,0.0,0.0,0.0,0.0,0.0,0.0,0.0,0.0,-2.1191,-2.1496,-2.1769,-2.1793,-2.1841,-2.1996,-2.2979,0.0,0.0,-2.543,-2.553,-2.5688,-2.5702,-2.5647,-2.5494,-2.5619,-2.5605,-2.5453,-2.5605,-2.6077,-2.6806,-2.7301,-2.794,-2.8671,-2.8771,-2.868,-2.8361,-2.7806,-2.6902,-2.5838,-2.5655,-2.4947,-2.3956,-2.4041,-2.4083,-2.4054,-2.3819,-2.376,-2.37,-2.3492,-2.3228,-2.2992,-2.2992,-2.2494,-2.1908,0.0,0.0,0.0,0.0,0.0,0.0,0.0,0.0,0.0,0.0,0.0,0.0,0.0,0.0,-2.2306,0.0,0.0,-2.3224,-2.3705,-2.4235,-2.482,-2.5578,-2.5922,-2.6094,-2.6094,-2.6352,-2.6605,-2.6818,-2.7082,-2.719,-2.719,-2.719,-2.719,-2.719,-2.719,-2.7305,-2.7598,-2.761,-2.7725,-2.7966,-2.7966,-2.7966,-2.7966,-2.7966,-2.7839,-2.761,-2.761,-2.7472,-2.7179,-2.6704,-2.6487,-2.6487,-2.603,-2.5558,-2.5115,-2.4638,-2.4723,-2.5084,-2.4659,-2.4343,-2.4094,0.0,0.0,0.0,0.0,0.0,0.0,0.0,0.0,0.0,0.0,-2.0871,-2.1191,-2.1375,-2.1544,-2.1729,0.0,0.0,0.0,0.0,-2.4887,-2.5087,-2.5701,-2.5536,-2.5369,-2.5313,-2.5369,-2.5285,-2.5005,-2.5285,-2.5805,-2.6636,-2.6951,-2.7611,-2.8506,-2.8442,-2.841,-2.8378,-2.765,-2.6848,-2.6012,-2.5641,-2.4661,-2.3433,-2.3819,-2.3966,-2.3907,-2.3552,-2.3403,-2.3373,-2.318,-2.3108,-2.318,-2.3437,-2.2992,-2.2329,-2.2329,-2.1784,0.0,0.0,0.0,0.0,0.0,0.0,0.0,0.0,0.0,-2.2076,-2.2076,-2.2478,-2.2857,-2.2949,-2.3385,-2.3866,-2.4407,-2.49,-2.5509,-2.6386,-2.6593,-2.6651,-2.6651,-2.6651,-2.6772,-2.7144,-2.719,-2.719,-2.719,-2.719,-2.7236,-2.7328,-2.738,-2.761,-2.8103,-2.8115,-2.831,-2.8689,-2.87,-2.87,-2.87,-2.87,-2.8494,-2.8115,-2.8115,-2.7851,-2.7286,-2.626,-2.5704,-2.5495,-2.4606,-2.4231,-2.4145,-2.3193,-2.328,-2.3983,-2.3983,-2.3983,-2.3983,0.0,0.0,0.0,0.0,0.0,0.0,0.0,0.0,0.0,0.0,0.0,0.0,0.0,0.0,0.0,0.0,0.0,0.0,-2.4896,-2.4501,-2.4463,-2.5062,-2.5061,-2.492,-2.4609,-2.4907,-2.5033,-2.5005,-2.5033,-2.5373,-2.6011,-2.6332,-2.7126,-2.8226,-2.7884,-2.7728,-2.7773,-2.7088,-2.613,-2.5083,-2.46,-2.3997,-2.3403,-2.3463,-2.3492,-2.3463,-2.3433,-2.3403,-2.3271,-2.2353,-2.2075,-2.2013,-2.1651,-2.1443,-2.1348,-2.1348,0.0,-2.119,-2.119,-2.119,-2.119,-2.119,-2.1502,-2.1814,0.0,0.0,-2.2593,-2.2593,-2.3006,-2.3465,-2.3948,-2.443,-2.4923,-2.5463,-2.5968,-2.6375,-2.649,-2.6852,-2.711,-2.711,-2.711,-2.7121,-2.7179,-2.719,-2.719,-2.719,-2.719,-2.7426,-2.7874,-2.7897,-2.8126,-2.8609,-2.862,-2.8643,-2.87,-2.87,-2.87,-2.87,-2.87,-2.8666,-2.862,-2.862,-2.8356,-2.782,-2.6404,-2.5368,-2.4573,-2.3617,-2.327,-2.3139,-2.2201,-2.1909,-2.1989,-2.1989,-2.1989,-2.1989,0.0,0.0,0.0,0.0,0.0,0.0,0.0,0.0,0.0,0.0,0.0,0.0,0.0,0.0,0.0,0.0,0.0,0.0,-2.3425,-2.3535,-2.3851,-2.4463,-2.4633,-2.4637,-2.4509,-2.4637,-2.4622,-2.4476,-2.4622,-2.4958,-2.5369,-2.5711,-2.6066,-2.639,-2.6422,-2.6201,-2.5756,-2.5492,-2.4874,-2.4109,-2.3879,-2.3263,-2.2567,-2.2841,-2.275,-2.2567,-2.2841,-2.2932,0.0,0.0,-2.1908,-2.1908,-2.2002,-2.1827,-2.1608,-2.1608,-2.14,0.0,-2.119,-2.1408,0.0,0.0,-2.1996,-2.2363,-2.2363,-2.2754,-2.3121,-2.3121,-2.3717,-2.4324,-2.4579,-2.5027,-2.5543,0.0,-2.6363,-2.6605,-2.6864,-2.7093,-2.719,-2.719,-2.719,-2.719,-2.719,-2.719,-2.719,-2.719,-2.7506,-2.7759,-2.7977,-2.8253,-2.8632,-2.9148,-2.9171,-2.9297,-2.9584,-2.9584,-2.9584,-2.9584,-2.9584,-2.9102,-2.8277,-2.8277,-2.738,-2.579,-2.4936,-2.4051,-2.3156,-2.2561,-2.229,-2.2246,-2.1865,-2.1696,-2.1696,-2.1696,-2.1696,-2.1696,0.0,0.0,0.0,0.0,0.0,0.0,0.0,0.0,0.0,0.0,0.0,0.0,0.0,0.0,0.0,0.0,0.0,0.0,0.0,-2.2597,-2.3111,-2.3946,-2.4084,-2.422,-2.4379,-2.4392,-2.429,-2.4083,-2.429,-2.4442,-2.4576,-2.4879,-2.494,-2.4811,-2.5038,-2.4817,-2.4268,-2.4171,-2.3786,-2.3237,-2.3124,-2.2599,-2.1939,-2.2267,-2.2218,-2.1939,-2.2267,-2.2421,0.0,0.0,-2.1702,-2.1765,-2.2125,-2.197,-2.1702,-2.1702,-2.1568,-2.1408,-2.1408,0.0,0.0,-2.2134,-2.2513,-2.2891,-2.2891,-2.3282,-2.3614,-2.3614,-2.4187,-2.4797,-2.5084,-2.5451,-2.5922,-2.6565,-2.6668,-2.6806,-2.7133,-2.719,-2.719,-2.719,-2.719,-2.719,-2.719,-2.719,-2.719,-2.719,-2.7702,-2.8046,-2.8172,-2.8654,-2.916,-2.9676,-2.9699,-2.986,-3.0216,-3.0216,-3.0216,-3.0216,-3.0216,-2.9511,-2.8189,-2.7729,-2.6468,-2.4495,-2.4075,-2.3288,-2.2254,-2.197,-2.1787,-2.1696,-2.1696,-2.1696,-2.1696,-2.1696,-2.1696,-2.1696,0.0,0.0,0.0,0.0,0.0,0.0,0.0,0.0,0.0,0.0,0.0,0.0,0.0,0.0,0.0,0.0,0.0,0.0,0.0,-2.1861,-2.2207,-2.3643,-2.3405,-2.3511,-2.4099,-2.4112,-2.4112,-2.4083,-2.4112,-2.3891,-2.3458,-2.3734,-2.3915,-2.4022,-2.3991,-2.396,-2.3991,-2.3672,-2.3164,-2.2586,-2.2118,-2.1932,-2.1908,-2.1908,-2.1908,-2.1908,-2.1908,0.0,0.0,0.0,-2.1221,-2.1221,-2.1221,-2.1221,0.0,-2.1221,-2.1514,0.0,0.0,0.0,-2.2696,-2.2696,-2.3041,-2.3384,-2.3384,-2.3774,-2.4177,-2.4177,-2.42,-2.4522,-2.5509,-2.5704,-2.6037,-2.7007,-2.7167,-2.7167,-2.719,-2.719,-2.719,-2.719,-2.719,-2.719,0.0,-2.719,-2.719,-2.719,-2.7702,-2.8184,-2.8643,-2.9183,-2.9688,-3.0181,-3.0193,-3.0204,-3.0216,-3.0216,-3.0216,-3.0216,-3.0216,-2.9646,-2.8634,-2.7142,-2.5949,-2.5028,-2.4514,-2.3545,-2.2282,-2.2272,-2.2034,-2.1696,-2.1696,-2.1696,-2.1696,-2.1696,-2.1696,-2.1696,0.0,0.0,0.0,0.0,0.0,0.0,0.0,0.0,0.0,0.0,0.0,0.0,0.0,0.0,0.0,0.0,0.0,0.0,0.0,-2.116,-2.1325,-2.1819,-2.2695,-2.3018,-2.2644,-2.3289,-2.3641,-2.3641,-2.3275,-2.3215,-2.3403,-2.313,-2.2842,-2.2596,-2.2565,-2.2421,-2.2139,-2.2036,-2.1867,-2.1671,-2.1494,-2.1431,-2.1431,-2.1431,-2.1431,-2.1431,0.0,0.0,0.0,0.0,0.0,-2.119,-2.119,-2.119,-2.1259,-2.1571,-2.1801,-2.1974,0.0,0.0,-2.3155,-2.3155,-2.3569,-2.3936,-2.3936,-2.4074,-2.42,-2.42,-2.4453,-2.4889,-2.5578,-2.598,-2.6439,-2.7075,-2.719,-2.719,-2.719,-2.719,-2.719,-2.719,-2.719,0.0,0.0,0.0,0.0,-2.7702,-2.8184,-2.8689,-2.9194,-2.9711,-3.0055,-3.0216,-3.0216,-3.0216,-3.0216,-3.0216,-2.9886,-2.9187,-2.7861,-2.7067,-2.6686,-2.5479,-2.4802,-2.4491,-2.3982,-2.3492,-2.3068,-2.2803,-2.262,-2.2474,-2.219,-2.208,-2.2053,-2.1787,-2.1696,-2.1696,0.0,0.0,0.0,0.0,0.0,0.0,0.0,0.0,0.0,0.0,0.0,0.0,0.0,0.0,0.0,0.0,0.0,0.0,0.0,0.0,-2.0465,-2.0666,-2.1633,-2.2081,-2.1905,-2.2543,-2.2949,-2.3095,-2.2756,-2.2707,-2.2866,-2.2525,-2.2094,-2.1639,-2.1639,-2.1494,-2.119,-2.119,-2.119,-2.119,-2.119,-2.119,-2.119,-2.119,-2.119,0.0,0.0,0.0,0.0,0.0,0.0,-2.119,-2.119,-2.119,-2.1293,-2.1778,-2.2053,-2.2306,-2.2811,-2.3328,-2.3682,-2.3682,-2.3959,-2.42,-2.42,-2.42,-2.42,-2.42,-2.4441,-2.482,-2.5337,-2.5693,-2.614,-2.6841,-2.6955,-2.7024,-2.7167,-2.719,-2.719,-2.719,-2.719,0.0,0.0,0.0,0.0,-2.7954,-2.8609,-2.9137,-2.9481,-2.9963,-3.0034,-2.9658,-2.9658,-2.9509,-2.913,-2.913,-2.8806,-2.8143,-2.6494,-2.5693,-2.5645,-2.4686,-2.4202,-2.4183,-2.3877,-2.3627,-2.3471,-2.3224,-2.3032,-2.2876,-2.2611,-2.241,-2.2245,-2.1998,-2.1815,-2.1696,0.0,0.0,0.0,0.0,0.0,0.0,0.0,0.0,0.0,0.0,0.0,0.0,0.0,0.0,0.0,0.0,0.0,0.0,0.0,0.0,0.0,-2.0212,-2.0289,-2.0754,-2.1731,-2.1822,-2.2063,-2.2524,-2.2518,-2.2298,-2.1908,-2.1877,-2.1639,-2.119,-2.119,-2.119,-2.119,-2.119,-2.119,-2.119,-2.119,-2.119,-2.119,-2.119,0.0,0.0,0.0,0.0,0.0,0.0,0.0,0.0,0.0,-2.1213,-2.1339,-2.178,-2.2329,-2.2834,-2.3304,-2.3808,-2.4223,-2.42,-2.4212,-2.4223,-2.42,-2.42,-2.42,-2.42,-2.42,-2.4338,0.0,0.0,-2.5245,-2.6306,-2.649,-2.6674,-2.7087,-2.7167,-2.719,0.0,0.0,0.0,0.0,0.0,0.0,-2.8057,0.0,-2.9504,-2.9527,-2.9918,-2.9703,-2.8724,-2.8631,-2.8154,-2.7237,-2.7142,-2.7142,-2.7094,-2.6109,-2.5596,-2.5596,-2.4637,-2.4202,-2.4202,-2.4202,-2.3932,-2.3526,-2.3526,-2.3306,-2.2968,-2.295,-2.2693,-2.2336,-2.2346,-2.2044,-2.1723,0.0,0.0,0.0,0.0,0.0,0.0,0.0,0.0,0.0,0.0,0.0,0.0,0.0,0.0,0.0,0.0,0.0,0.0,0.0,0.0,0.0,0.0,0.0,0.0,0.0,0.0,0.0,0.0,-2.1544,-2.1671,-2.1877,-2.1557,-2.1316,-2.119,-2.119,-2.119,-2.119,-2.119,-2.119,-2.119,0.0,-2.119,-2.119,0.0,0.0,0.0,0.0,0.0,0.0,0.0,0.0,0.0,0.0,-2.1422,-2.1824,-2.234,-2.2846,-2.3327,-2.3867,-2.4361,-2.4648,-2.4281,-2.4464,-2.4636,-2.4281,-2.42,-2.42,-2.42,-2.42,-2.4338,0.0,0.0,0.0,-2.5796,-2.626,0.0,-2.6674,-2.699,0.0,0.0,0.0,-2.738,-2.7759,-2.823,0.0,0.0,-2.9355,-2.9653,-3.0009,-2.9407,-2.8956,-2.8724,-2.7955,-2.7474,-2.7189,-2.6446,-2.6071,-2.6071,-2.506,-2.4587,-2.4587,-2.4301,-2.4202,-2.4202,-2.4202,-2.4137,-2.3996,-2.3996,-2.3941,-2.3813,-2.3462,-2.3279,-2.3105,-2.2501,-2.2263,-2.2126,0.0,0.0,0.0,0.0,0.0,0.0,0.0,0.0,0.0,0.0,0.0,0.0,0.0,0.0,0.0,0.0,0.0,0.0,0.0,0.0,0.0,0.0,0.0,0.0,0.0,0.0,0.0,0.0,0.0,0.0,-2.1577,-2.1085,-2.0983,-2.119,-2.119,-2.119,-2.119,-2.119,0.0,0.0,0.0,0.0,0.0,0.0,0.0,0.0,0.0,0.0,0.0,0.0,0.0,-2.119,-2.119,-2.1514,-2.1997,-2.2524,0.0,-2.3568,-2.4315,-2.4705,-2.4855,-2.4579,-2.4717,-2.4786,-2.4303,-2.42,-2.42,-2.42,-2.42,0.0,0.0,0.0,0.0,0.0,0.0,0.0,-2.6478,-2.6563,-2.6745,0.0,-2.7032,0.0,-2.7912,-2.8221,-2.8521,0.0,-2.9453,-2.9929,-3.0204,-2.9244,-2.8481,-2.8049,-2.7057,-2.634,-2.5906,-2.5304,-2.502,-2.502,-2.4489,-2.4202,-2.4202,-2.4202,-2.4202,-2.4202,0.0,-2.4202,-2.4202,-2.4202,-2.4202,-2.4183,-2.3895,-2.3703,-2.3444,-2.2977,-2.2702,-2.2574,0.0,0.0,0.0,0.0,0.0,0.0,0.0,0.0,0.0,0.0,0.0,0.0,0.0,0.0,0.0,0.0,0.0,0.0,0.0,0.0,0.0,0.0,0.0,0.0,0.0,0.0,0.0,0.0,0.0,0.0,0.0,0.0,0.0,0.0,0.0,0.0,0.0,0.0,0.0,0.0,0.0,0.0,0.0,0.0,0.0,0.0,0.0,0.0,0.0,0.0,-2.0903,-2.119,-2.119,-2.156,-2.2111,-2.2547,-2.3087,-2.3705,-2.4671,-2.4912,-2.4912,-2.4912,-2.4912,-2.4786,-2.4303,-2.42,-2.4164,-2.4043,0.0,-2.4007,-2.3897,0.0,-2.418,-2.4602,0.0,-2.5629,-2.612,-2.5817,-2.5848,-2.6745,-2.6681,-2.696,-2.7846,-2.7977,-2.8025,-2.8091,-2.9171,-2.9783,-2.9783,-2.8863,-2.7814,-2.6809,-2.5974,-2.5069,-2.4202,-2.4202,-2.4202,-2.4202,-2.4202,-2.4202,-2.4202,-2.4202,-2.4202,-2.4202,-2.4202,0.0,-2.4202,-2.4202,-2.4202,-2.4202,-2.4202,-2.3932,-2.3572,-2.3517,-2.3279,-2.3032,0.0,0.0,0.0,0.0,0.0,0.0,0.0,0.0,0.0,0.0,-1.8084,0.0,0.0,0.0,0.0,0.0,0.0,0.0,0.0,0.0,0.0,0.0,0.0,0.0,0.0,0.0,0.0,0.0,0.0,0.0,0.0,0.0,0.0,0.0,0.0,0.0,0.0,0.0,0.0,0.0,0.0,0.0,0.0,0.0,0.0,0.0,0.0,0.0,0.0,0.0,-2.1126,-2.119,-2.119,-2.1834,-2.257,-2.265,-2.3339,-2.4189,-2.4763,-2.4912,-2.4912,-2.4912,-2.4912,-2.4786,-2.4303,-2.42,0.0,0.0,0.0,-2.299,-2.2333,-2.2756,0.0,-2.3334,0.0,0.0,0.0,0.0,-2.443,0.0,0.0,0.0,0.0,0.0,0.0,0.0,0.0,-2.7709,-2.7709,-2.6781,-2.5732,-2.4775,-2.4538,-2.439,-2.4202,-2.4202,-2.4202,-2.4202,-2.4202,-2.4202,-2.4202,-2.4202,-2.4202,-2.4202,-2.4202,0.0,-2.4202,-2.4202,-2.4202,-2.4202,-2.4202,-2.4156,-2.4005,-2.3618,-2.3453,-2.3407,0.0,0.0,0.0,0.0,0.0,0.0,0.0,0.0,0.0,0.0,-1.8084,-1.8084,0.0,0.0,0.0,0.0,0.0,0.0,0.0,0.0,0.0,0.0,0.0,0.0,0.0,0.0,0.0,0.0,0.0,0.0,0.0,0.0,0.0,0.0,0.0,0.0,0.0,0.0,0.0,0.0,0.0,0.0,0.0,0.0,0.0,0.0,0.0,0.0,0.0,0.0,-2.0624,-2.07,-2.1094,-2.1891,-2.2719,-2.2719,-2.3397,-2.4303,-2.4786,-2.4912,-2.4912,-2.4912,-2.4912,-2.4637,-2.3645,0.0,0.0,0.0,0.0,-2.222,-2.2381,0.0,0.0,0.0,0.0,0.0,0.0,0.0,0.0,0.0,0.0,0.0,0.0,0.0,0.0,0.0,0.0,-2.6099,-2.7142,-2.6254,-2.5265,-2.4251,-2.4202,-2.4202,-2.4202,-2.4202,-2.4202,-2.4202,-2.4202,-2.4202,-2.4202,-2.4202,-2.4202,-2.4202,-2.4202,0.0,-2.4202,-2.4202,-2.4202,-2.4202,-2.4202,-2.4202,-2.4183,-2.3932,-2.3859,-2.3859,0.0,0.0,0.0,0.0,0.0,0.0,0.0,-1.7909,-1.7936,-1.8084,-1.8084,-1.8084,-1.8084,-1.7991,-1.7963,0.0,0.0,0.0,0.0,0.0,0.0,0.0,0.0,0.0,0.0,0.0,0.0,0.0,0.0,0.0,0.0,0.0,0.0,0.0,0.0,0.0,0.0,0.0,0.0,0.0,0.0,0.0,0.0,0.0,0.0,0.0,0.0,0.0,0.0,0.0,-2.0031,-2.0063,-2.0764,-2.1647,-2.2434,-2.2548,-2.3258,-2.4166,-2.4751,-2.4682,-2.4513,-2.4627,-2.4446,-2.3917,-2.2698,-2.2424,0.0,0.0,-2.1545,-2.1288,-2.1993,0.0,0.0,0.0,0.0,0.0,0.0,0.0,0.0,0.0,0.0,0.0,0.0,0.0,0.0,0.0,0.0,0.0,-2.6474,-2.5829,-2.502,-2.4202,-2.4202,-2.4202,-2.4202,-2.4202,-2.4202,-2.4202,-2.4202,-2.4202,-2.4202,-2.4202,-2.4202,-2.4202,-2.4202,0.0,0.0,-2.4202,-2.4202,-2.4202,-2.4202,-2.4202,-2.4202,-2.4202,-2.4202,-2.4202,0.0,0.0,0.0,0.0,0.0,0.0,0.0,-1.7285,-1.749,-1.803,-1.8084,-1.8084,-1.8084,-1.7611,0.0,0.0,0.0,0.0,0.0,0.0,0.0,0.0,0.0,0.0,0.0,0.0,0.0,0.0,0.0,0.0,0.0,0.0,0.0,0.0,0.0,0.0,0.0,0.0,0.0,0.0,0.0,0.0,0.0,0.0,0.0,0.0,0.0,0.0,0.0,0.0,0.0,-1.9464,-2.0042,-2.0797,-2.1599,-2.2116,0.0,0.0,-2.4659,-2.406,-2.3277,-2.3694,-2.2934,-2.1997,-2.1603,0.0,0.0,-2.0362,-2.009,-1.9904,-1.946,-1.9904,0.0,0.0,0.0,0.0,0.0,0.0,0.0,0.0,0.0,0.0,0.0,0.0,0.0,0.0,0.0,0.0,-2.4489,-2.439,-2.4301,-2.4202,-2.4202,-2.4202,-2.4202,-2.4202,-2.4202,-2.4202,-2.4202,-2.4202,-2.4202,-2.4202,-2.4202,-2.4202,-2.4202,0.0,0.0,-2.4202,-2.4202,-2.4202,-2.4202,-2.4202,-2.4202,-2.4202,-2.4202,-2.4202,0.0,0.0,0.0,0.0,0.0,0.0,0.0,-1.6669,-1.6866,-1.7473,-1.7556,-1.7705,-1.8057,-1.7556,-1.7296,0.0,0.0,0.0,0.0,0.0,0.0,0.0,0.0,0.0,0.0,0.0,0.0,0.0,0.0,0.0,0.0,0.0,0.0,0.0,0.0,0.0,0.0,0.0,0.0,0.0,0.0,0.0,0.0,0.0,0.0,0.0,0.0,0.0,0.0,0.0,0.0,0.0,-1.8821,-1.9168,0.0,0.0,-2.1634,-2.1892,-2.3546,-2.3327,-2.2747,-2.3191,-2.281,-2.201,-2.0778,0.0,0.0,-1.9786,-1.9323,-1.9094,-1.949,-1.9411,-1.9529,0.0,0.0,0.0,0.0,0.0,0.0,0.0,0.0,0.0,0.0,0.0,0.0,0.0,0.0,0.0,-2.4202,-2.4202,-2.4202,-2.4202,-2.4202,-2.4202,-2.4202,-2.4202,-2.4202,-2.4202,-2.4202,-2.4202,-2.4202,-2.4202,-2.4202,-2.4202,-2.4202,0.0,0.0,-2.4202,-2.4202,-2.4202,-2.4202,-2.4202,-2.4202,-2.4202,-2.4202,-2.4202,0.0,0.0,0.0,0.0,0.0,0.0,-1.594,-1.6026,-1.6244,-1.6866,-1.709,-1.7352,-1.7788,-1.7611,-1.7407,-1.723,0.0,0.0,0.0,0.0,0.0,0.0,0.0,0.0,0.0,0.0,0.0,0.0,0.0,0.0,0.0,0.0,0.0,0.0,0.0,0.0,0.0,0.0,0.0,0.0,0.0,0.0,0.0,0.0,0.0,0.0,0.0,0.0,0.0,0.0,0.0,0.0,0.0,0.0,0.0,0.0,-2.0315,-2.0357,-2.2026,-2.2042,-2.167,-2.2009,-2.1841,-2.125,0.0,0.0,-1.9213,-1.9134,-1.8665,-1.8514,-1.9323,-1.8984,-1.8882,-1.9708,0.0,0.0,0.0,0.0,0.0,0.0,0.0,0.0,0.0,0.0,0.0,0.0,0.0,0.0,0.0,-2.4202,-2.4202,-2.4202,-2.4202,-2.4202,-2.4202,-2.4202,-2.4202,-2.4202,-2.4202,-2.4202,-2.4202,-2.4202,-2.4202,-2.4202,-2.4202,0.0,0.0,-2.4202,-2.4202,-2.4202,-2.4202,-2.4202,-2.4202,-2.4202,-2.4202,-2.4202,0.0,0.0,0.0,0.0,0.0,0.0,0.0,-1.541,-1.5633,-1.6226,-1.6838,-1.7202,-1.7202,-1.7733,-1.7854,-1.7257,0.0,0.0,0.0,0.0,0.0,0.0,0.0,0.0,0.0,0.0,0.0,-1.7217,-1.7217,0.0,0.0,0.0,0.0,0.0,0.0,0.0,0.0,0.0,0.0,0.0,0.0,0.0,0.0,0.0,0.0,0.0,0.0,0.0,0.0,0.0,0.0,0.0,0.0,0.0,0.0,0.0,-1.8959,-1.9383,-2.0134,-2.0049,-1.9752,-1.9883,-1.9494,-1.8962,0.0,0.0,-1.8362,-1.8072,-1.7991,-1.808,-1.8362,-1.8402,-1.8563,-1.8962,-1.9481,0.0,0.0,0.0,0.0,0.0,0.0,0.0,0.0,0.0,0.0,0.0,0.0,0.0,0.0,-2.4202,-2.4202,-2.4202,-2.4202,-2.4202,-2.4202,-2.4202,-2.4202,-2.4202,-2.4202,-2.4202,-2.4202,-2.4202,-2.4202,0.0,0.0,0.0,0.0,-2.4202,-2.4202,-2.4202,-2.4202,-2.4202,-2.4202,-2.4202,-2.4202,-2.4202,0.0,0.0,0.0,0.0,0.0,0.0,0.0,-1.4547,-1.4863,-1.5459,-1.6159,-1.6726,-1.7174,-1.7733,-1.803,-1.7815,0.0,0.0,0.0,0.0,0.0,0.0,0.0,0.0,0.0,0.0,-1.6733,-1.692,-1.692,-1.7032,-1.719,-1.7301,0.0,0.0,0.0,0.0,0.0,0.0,0.0,0.0,0.0,0.0,0.0,0.0,0.0,0.0,0.0,0.0,0.0,0.0,0.0,0.0,0.0,0.0,0.0,-1.6589,0.0,0.0,-1.9407,-1.9508,-1.9172,-1.9745,-1.9653,-1.9262,-1.8643,-1.8282,-1.8121,-1.804,-1.8,-1.804,-1.8112,-1.8121,-1.8241,-1.8563,-1.8594,0.0,0.0,0.0,0.0,0.0,0.0,0.0,0.0,0.0,0.0,0.0,0.0,0.0,0.0,-2.4358,-2.4202,-2.4202,-2.4202,-2.4202,-2.4202,-2.4202,-2.4202,-2.4202,-2.4202,-2.4202,-2.4202,-2.4202,-2.4202,0.0,0.0,0.0,0.0,-2.4202,-2.4202,-2.4202,-2.4202,-2.4202,-2.4202,-2.4202,-2.4202,-2.4202,0.0,0.0,0.0,0.0,0.0,0.0,0.0,-1.4109,-1.4318,-1.4715,-1.5362,-1.6034,-1.6715,-1.7213,-1.7634,-1.792,0.0,0.0,0.0,0.0,0.0,0.0,0.0,0.0,0.0,-1.6676,-1.663,-1.6818,-1.6705,-1.6733,-1.6892,-1.7004,-1.7004,-1.6892,0.0,0.0,0.0,0.0,0.0,0.0,0.0,0.0,-1.4862,0.0,0.0,0.0,0.0,0.0,0.0,0.0,0.0,0.0,0.0,0.0,0.0,0.0,-1.5903,0.0,0.0,-1.8253,-1.8257,-1.8859,-1.9063,0.0,0.0,-1.8193,-1.8,-1.8,-1.8,-1.8,-1.8,-1.8,-1.808,-1.8362,-1.8152,0.0,0.0,0.0,0.0,0.0,0.0,0.0,0.0,0.0,0.0,0.0,0.0,0.0,0.0,-2.4514,-2.45,-2.4661,-2.4358,-2.4202,-2.4202,-2.4202,-2.4202,-2.4202,-2.4102,-2.4053,-2.4053,-2.3954,-2.3954,0.0,0.0,0.0,0.0,-2.4202,-2.4202,-2.4202,-2.4202,-2.4202,-2.4202,-2.4202,-2.4202,-2.4202,0.0,0.0,0.0,0.0,0.0,0.0,0.0,0.0,0.0,0.0,-1.4519,-1.5196,-1.592,-1.6312,-1.6803,0.0,0.0,0.0,0.0,0.0,0.0,0.0,0.0,0.0,0.0,-1.6864,-1.6733,-1.6761,-1.6516,-1.6413,-1.6413,-1.6648,-1.6648,-1.6402,-1.662,-1.6371,-1.5729,-1.4824,-1.4181,-1.3799,-1.404,-1.4426,0.0,0.0,0.0,0.0,0.0,0.0,0.0,0.0,0.0,0.0,0.0,0.0,0.0,0.0,0.0,0.0,0.0,0.0,0.0,0.0,0.0,0.0,0.0,-1.8201,0.0,-1.8,-1.8,-1.8,-1.8,-1.8,-1.808,-1.8313,0.0,0.0,0.0,0.0,0.0,0.0,0.0,0.0,0.0,0.0,0.0,0.0,0.0,0.0,0.0,-2.4623,-2.4968,-2.5274,-2.4565,-2.417,-2.4198,-2.417,-2.4152,-2.4152,-2.3904,-2.3805,-2.3805,-2.3546,-2.3596,0.0,0.0,0.0,0.0,-2.4202,-2.4202,-2.4202,-2.4202,-2.4202,-2.4202,-2.4202,-2.4202,-2.4202,0.0,0.0,0.0,0.0,0.0,0.0,0.0,0.0,0.0,0.0,0.0,-1.5128,-1.5167,-1.6102,0.0,0.0,0.0,0.0,0.0,0.0,0.0,0.0,0.0,0.0,0.0,-1.6142,-1.6134,-1.6488,-1.6441,-1.6413,-1.6413,-1.6459,-1.6459,-1.6384,-1.6087,-1.5459,-1.4567,-1.3992,-1.3662,-1.3571,-1.3631,-1.3744,0.0,0.0,0.0,0.0,-1.56,-1.5805,0.0,0.0,0.0,0.0,0.0,0.0,0.0,0.0,-1.5805,-1.5797,-1.5867,0.0,-1.7054,-1.7424,-1.7808,-1.8072,0.0,-1.804,-1.8,-1.8,0.0,0.0,-1.8,0.0,0.0,0.0,0.0,0.0,0.0,0.0,0.0,0.0,0.0,0.0,0.0,0.0,0.0,0.0,0.0,0.0,0.0,-2.3898,-2.3916,-2.434,-2.3865,-2.3849,-2.4325,-2.3858,-2.3696,-2.3895,-2.3845,-2.3904,-2.4102,-2.4053,-2.4053,0.0,0.0,0.0,-2.4202,-2.4202,-2.4202,-2.4202,-2.4202,-2.4202,-2.4202,-2.4202,-2.4202,-2.4152,0.0,0.0,0.0,0.0,0.0,0.0,0.0,0.0,0.0,0.0,0.0,0.0,0.0,0.0,0.0,0.0,0.0,0.0,0.0,0.0,0.0,0.0,0.0,0.0,-1.6368,-1.5845,-1.5691,-1.5951,-1.6019,-1.6087,-1.6087,-1.6288,-1.6413,-1.6374,-1.5914,-1.5254,-1.4478,-1.4031,-1.37,-1.3511,-1.3511,0.0,0.0,0.0,0.0,0.0,-1.5531,-1.5805,0.0,-1.5805,-1.5805,-1.5805,0.0,0.0,0.0,0.0,-1.5805,-1.5805,-1.5805,-1.6225,-1.6704,-1.6901,-1.7364,-1.7775,-1.7775,0.0,0.0,0.0,0.0,0.0,0.0,0.0,0.0,0.0,0.0,0.0,0.0,0.0,0.0,0.0,0.0,0.0,0.0,0.0,0.0,0.0,0.0,0.0,0.0,-2.3752,-2.3882,-2.4259,-2.3783,-2.3648,-2.3937,-2.3562,-2.3447,-2.3596,-2.3497,-2.3506,-2.3655,-2.3497,-2.3546,0.0,0.0,0.0,-2.3845,-2.3845,-2.3845,-2.3854,-2.3954,-2.3954,-2.3854,-2.3954,-2.3954,-2.3795,0.0,0.0,0.0,0.0,0.0,0.0,0.0,0.0,0.0,0.0,0.0,0.0,0.0,0.0,0.0,0.0,0.0,0.0,0.0,0.0,0.0,0.0,0.0,-1.5235,-1.6169,-1.5546,-1.5235,-1.5323,-1.5585,-1.5701,-1.5701,-1.6173,-1.6316,-1.6134,-1.5672,-1.5167,-1.4647,-1.427,-1.3851,-1.3511,-1.3511,0.0,0.0,0.0,0.0,0.0,0.0,0.0,0.0,-1.5805,-1.5805,-1.5805,-1.5805,0.0,0.0,0.0,0.0,0.0,-1.5805,-1.6064,-1.6313,-1.6319,-1.6858,-1.7437,-1.7497,0.0,0.0,0.0,0.0,0.0,0.0,0.0,0.0,0.0,0.0,0.0,0.0,0.0,0.0,0.0,0.0,0.0,0.0,0.0,0.0,0.0,0.0,0.0,0.0,-2.3513,-2.3843,-2.4111,-2.3607,-2.3309,-2.3167,-2.327,-2.3297,-2.3347,-2.3097,-2.2996,-2.3046,-2.2846,-2.2846,-2.3046,0.0,0.0,-2.3397,-2.3397,-2.3397,-2.3397,-2.3646,-2.3596,-2.3456,-2.3646,-2.3596,-2.3397,0.0,0.0,0.0,0.0,0.0,0.0,0.0,0.0,0.0,0.0,0.0,0.0,0.0,0.0,0.0,0.0,0.0,0.0,0.0,0.0,0.0,0.0,-1.4389,-1.4478,-1.4785,-1.4538,-1.4567,-1.4981,-1.5469,-1.5701,-1.5701,-1.6173,-1.5961,-1.5098,-1.4636,-1.4151,-1.3722,-1.3631,-1.3571,-1.3511,-1.3511,0.0,0.0,0.0,0.0,0.0,0.0,0.0,0.0,-1.5805,-1.5805,-1.5805,-1.5805,0.0,0.0,0.0,0.0,0.0,-1.5805,-1.584,-1.5959,-1.6304,-1.6679,-1.7081,-1.7437,0.0,0.0,0.0,0.0,0.0,0.0,0.0,0.0,0.0,0.0,0.0,0.0,0.0,0.0,0.0,0.0,0.0,0.0,0.0,0.0,0.0,0.0,0.0,0.0,-2.177,-2.1853,-2.1902,-2.2128,-2.224,-2.2229,-2.254,-2.2846,-2.3046,-2.2996,-2.3097,-2.3347,-2.3297,-2.3297,-2.3347,0.0,-2.3347,-2.3397,-2.3397,-2.3397,-2.3397,-2.3456,-2.3447,-2.3397,-2.3456,-2.3447,-2.3356,0.0,0.0,0.0,0.0,0.0,0.0,0.0,0.0,0.0,0.0,0.0,0.0,0.0,0.0,0.0,0.0,0.0,0.0,0.0,0.0,0.0,-1.3821,-1.3821,-1.3971,-1.433,-1.4001,-1.3932,-1.4142,-1.4627,-1.502,-1.5284,-1.5788,-1.5614,-1.4893,-1.4428,-1.407,-1.3851,-1.3601,-1.3511,-1.3511,0.0,0.0,0.0,0.0,0.0,0.0,0.0,0.0,0.0,0.0,-1.5805,-1.5805,-1.5805,0.0,0.0,0.0,0.0,0.0,-1.5805,-1.5805,-1.584,-1.6047,-1.6328,-1.6644,-1.6862,0.0,0.0,0.0,0.0,0.0,0.0,0.0,0.0,0.0,0.0,0.0,0.0,0.0,0.0,0.0,0.0,0.0,0.0,0.0,0.0,0.0,0.0,0.0,0.0,0.0,-2.1413,-2.1413,-2.1585,-2.1679,-2.1679,-2.1343,-2.1678,-2.2795,-2.2795,-2.2846,-2.2946,-2.2946,-2.2946,-2.2946,0.0,-2.2946,-2.2946,-2.2946,-2.2946,-2.2996,-2.3147,-2.3097,-2.2946,-2.2946,-2.2946,-2.292,0.0,0.0,0.0,0.0,0.0,0.0,0.0,0.0,0.0,0.0,0.0,0.0,0.0,0.0,0.0,0.0,0.0,0.0,0.0,0.0,-1.3511,-1.3511,-1.3511,-1.3662,-1.4031,-1.3692,-1.3511,-1.3511,-1.3971,-1.4449,-1.4922,-1.5196,-1.5137,-1.4715,-1.424,-1.404,-1.4001,-1.3662,-1.3511,-1.3511,0.0,0.0,0.0,0.0,0.0,0.0,0.0,0.0,0.0,0.0,0.0,0.0,0.0,0.0,0.0,-1.5805,-1.5805,-1.5805,-1.5805,-1.5805,-1.5805,-1.5805,0.0,-1.6233,-1.6364,0.0,0.0,0.0,0.0,0.0,0.0,0.0,0.0,0.0,0.0,0.0,0.0,0.0,0.0,0.0,0.0,0.0,0.0,0.0,0.0,0.0,0.0,0.0,0.0,0.0,-2.1148,-2.1148,-2.1234,-2.1285,-2.1285,-2.0578,-2.0949,-2.2328,-2.1862,-2.1762,-2.197,-2.1712,-2.1762,-2.197,-2.197,-2.212,-2.2328,-2.2328,-2.2328,-2.2328,-2.2527,-2.2477,-2.2328,-2.2328,-2.2328,-2.2285,0.0,0.0,0.0,0.0,0.0,0.0,0.0,0.0,0.0,0.0,0.0,0.0,0.0,0.0,0.0,0.0,0.0,0.0,0.0,0.0,-1.3511,-1.3511,-1.3511,-1.3511,-1.3541,-1.3511,-1.3511,-1.3511,-1.3971,-1.4449,-1.4893,-1.4478,-1.4279,-1.4219,-1.3761,-1.3541,-1.3541,-1.3502,-1.3511,-1.3511,-1.3511,0.0,0.0,0.0,0.0,0.0,0.0,0.0,0.0,0.0,0.0,0.0,0.0,0.0,-1.5805,-1.5805,-1.5805,-1.5805,-1.5805,-1.5805,-1.5805,-1.5805,-1.5822,0.0,-1.6259,-1.6388,0.0,-1.6884,0.0,0.0,0.0,0.0,0.0,0.0,0.0,0.0,0.0,0.0,0.0,0.0,0.0,0.0,0.0,0.0,0.0,0.0,0.0,0.0,0.0,0.0,0.0,-2.0377,-2.0728,-2.0917,-2.0917,-2.1147,-2.1335,-2.1442,-1.9599,-1.9207,-2.0054,-1.9109,-1.9207,-2.0095,-2.0095,-2.0597,-2.149,-2.149,-2.149,-2.149,-2.149,-2.149,-2.149,-2.149,-2.149,-2.149,0.0,0.0,0.0,0.0,0.0,0.0,0.0,0.0,0.0,0.0,0.0,0.0,0.0,0.0,0.0,0.0,0.0,0.0,0.0,0.0,-1.3511,-1.3511,-1.3511,-1.3511,-1.3511,-1.3511,-1.3511,-1.3511,-1.3971,-1.4151,-1.4013,-1.4151,-1.404,-1.3761,-1.3571,-1.3511,-1.3511,-1.3511,-1.3511,-1.3511,-1.3511,-1.3656,0.0,0.0,0.0,0.0,0.0,0.0,0.0,0.0,-1.5805,-1.5805,-1.5805,-1.5805,-1.5805,-1.5805,-1.5805,-1.5805,-1.5805,-1.5805,-1.5805,-1.5805,-1.5805,0.0,0.0,-1.6182,-1.6501,-1.6841,0.0,0.0,0.0,0.0,0.0,0.0,0.0,0.0,0.0,0.0,0.0,0.0,0.0,0.0,0.0,0.0,0.0,0.0,0.0,0.0,0.0,0.0,0.0,-2.0292,-2.0437,-2.0514,-2.0514,-2.0024,-1.9802,-1.9764,-1.947,-1.9187,-1.8935,-1.8592,-1.8935,-1.9925,-1.9925,-2.0466,-2.1413,-2.1413,-2.1413,-2.1413,-2.1413,-2.1413,-2.1413,-2.1413,-2.1413,-2.1379,0.0,0.0,0.0,0.0,0.0,0.0,0.0,0.0,0.0,0.0,0.0,0.0,0.0,0.0,0.0,0.0,0.0,0.0,0.0,-1.3511,-1.3511,-1.3511,-1.3511,-1.3511,-1.3511,-1.3511,-1.3511,-1.3511,-1.3821,-1.3821,-1.3511,-1.3821,-1.3821,-1.3511,-1.3511,-1.3511,-1.3511,-1.3511,-1.3511,-1.3511,-1.3511,-1.3742,0.0,0.0,0.0,0.0,0.0,0.0,0.0,0.0,-1.562,-1.5461,0.0,-1.562,-1.5426,-1.5426,-1.5611,-1.5726,-1.5497,-1.5611,-1.5805,-1.5805,0.0,0.0,-1.5942,-1.6201,-1.6458,0.0,0.0,0.0,0.0,0.0,0.0,0.0,0.0,0.0,0.0,0.0,0.0,0.0,0.0,0.0,0.0,0.0,0.0,0.0,0.0,0.0,0.0,0.0,0.0,0.0,-1.9537,-1.9472,-1.9472,-1.8705,-1.818,-1.7863,-1.8363,-1.8238,-1.7559,-1.7267,-1.785,-1.9064,-1.9064,-1.9837,-2.1054,-2.1054,-2.1054,-2.1054,-2.1054,-2.1054,-2.1054,-2.1054,-2.1054,-2.102,0.0,0.0,0.0,0.0,0.0,0.0,0.0,0.0,0.0,0.0,0.0,0.0,0.0,0.0,0.0,0.0,0.0,0.0,-1.3511,-1.3511,-1.3511,-1.3511,-1.3511,-1.3511,-1.3511,-1.3511,-1.3511,-1.3511,-1.3511,-1.3511,-1.3511,-1.3511,-1.3511,-1.3511,-1.3511,-1.3511,-1.3511,-1.3511,-1.3511,-1.3511,-1.3511,-1.375,-1.4144,0.0,0.0,0.0,0.0,0.0,0.0,0.0,-1.524,-1.4716,-1.5541,0.0,-1.4601,-1.4601,-1.5161,-1.5611,-1.4832,-1.5196,-1.5805,0.0,0.0,0.0,0.0,-1.6345,-1.639,0.0,0.0,0.0,0.0,0.0,0.0,0.0,0.0,0.0,0.0,0.0,0.0,0.0,0.0,0.0,0.0,0.0,0.0,0.0,0.0,0.0,0.0,0.0,0.0,-1.8079,-1.785,-1.7724,-1.7724,-1.7457,-1.6788,-1.5798,-1.5798,-1.5798,-1.5751,-1.4765,-1.5371,-1.7296,-1.7296,-1.8419,-2.0292,-2.0292,-2.0292,-2.0292,-2.0292,-2.0292,-2.0292,-2.0292,-2.0292,-2.0292,0.0,0.0,0.0,0.0,0.0,0.0,0.0,0.0,0.0,0.0,0.0,0.0,0.0,0.0,0.0,0.0,0.0,0.0,-1.3511,-1.3511,-1.3511,-1.3511,-1.3511,-1.3511,-1.3511,-1.3511,-1.3511,-1.3511,-1.3511,-1.3511,-1.3511,-1.3511,-1.3511,-1.3511,-1.3511,-1.3511,-1.3511,-1.3511,-1.3511,-1.3528,-1.381,-1.4161,-1.4555,0.0,0.0,0.0,0.0,0.0,0.0,0.0,0.0,0.0,-1.4724,0.0,-1.4601,-1.4601,-1.5161,-1.5611,-1.4832,-1.5196,0.0,0.0,0.0,0.0,0.0,0.0,0.0,0.0,0.0,0.0,0.0,0.0,0.0,0.0,0.0,0.0,0.0,0.0,0.0,0.0,0.0,0.0,0.0,0.0,0.0,0.0,0.0,0.0,0.0,0.0,0.0,-1.8072,-1.8027,-1.7976,-1.7976,-1.7882,-1.7245,-1.6071,-1.6071,-1.5628,-1.4717,-1.4442,-1.5003,-1.6264,-1.6264,-1.739,-1.9309,-2.0011,-2.0292,-2.0292,-2.0292,-2.0292,-2.0292,-2.0292,-2.0292,-2.0292,0.0,0.0,0.0,0.0,0.0,0.0,0.0,0.0,0.0,0.0,0.0,0.0,0.0,0.0,0.0,0.0,0.0,0.0,0.0,0.0,-1.3511,-1.3511,-1.3511,-1.3511,-1.3511,-1.3511,-1.342,-1.3307,-1.342,-1.3511,-1.3511,-1.3511,-1.3511,-1.3511,-1.3511,-1.3511,-1.3511,-1.3511,-1.3596,-1.3759,-1.3999,-1.4418,-1.4923,0.0,0.0,0.0,0.0,0.0,0.0,0.0,0.0,0.0,-1.3918,0.0,-1.3709,-1.3709,-1.4258,-1.4697,-1.389,0.0,0.0,0.0,0.0,0.0,0.0,0.0,0.0,0.0,0.0,0.0,0.0,0.0,0.0,0.0,0.0,0.0,0.0,0.0,0.0,0.0,0.0,0.0,0.0,0.0,0.0,0.0,0.0,0.0,0.0,0.0,-1.674,-1.6887,-1.6779,-1.6767,-1.6767,-1.6645,-1.6204,-1.5457,-1.5457,-1.503,-1.4298,-1.4298,-1.486,-1.5846,-1.6217,-1.7063,-1.828,-1.9301,-1.9683,-1.9683,-1.9683,-1.9683,-1.9683,-1.9683,-1.9683,-1.9774,0.0,0.0,0.0,0.0,0.0,0.0,0.0,0.0,0.0,0.0,0.0,0.0,0.0,0.0,0.0,0.0,0.0,0.0,0.0,0.0,-1.3511,-1.3511,-1.3511,-1.348,-1.345,-1.345,-1.3307,-1.295,-1.3329,-1.348,-1.345,-1.348,-1.3511,-1.3511,-1.3511,-1.3511,-1.3511,-1.3511,-1.3733,-1.4101,-1.4072,-1.4475,-1.5112,-1.5078,0.0,0.0,0.0,0.0,0.0,0.0,0.0,0.0,-1.3135,-1.2879,-1.2305,-1.2305,-1.2879,-1.3317,0.0,0.0,0.0,0.0,0.0,0.0,0.0,0.0,0.0,0.0,0.0,0.0,0.0,0.0,0.0,0.0,0.0,0.0,0.0,0.0,0.0,0.0,0.0,0.0,0.0,0.0,0.0,0.0,0.0,0.0,0.0,0.0,-1.5083,-1.5107,-1.4877,-1.4751,-1.4751,-1.4497,-1.4358,-1.4334,-1.4334,-1.4322,-1.4298,-1.4298,-1.4813,-1.5704,-1.6734,-1.7149,-1.7242,-1.8226,-1.865,-1.865,-1.865,-1.865,-1.865,-1.865,-1.865,-1.8788,0.0,0.0,0.0,0.0,0.0,0.0,0.0,0.0,0.0,0.0,0.0,0.0,0.0,0.0,0.0,0.0,0.0,0.0,0.0,0.0,-1.3511,-1.3511,-1.3511,-1.339,-1.3103,-1.3103,-1.295,-1.2613,-1.3208,-1.3359,-1.3103,-1.339,-1.3511,-1.3511,-1.3511,-1.3511,-1.3511,-1.3511,-1.3733,-1.4055,-1.3745,-1.3921,-1.4313,-1.3978,-1.3793,0.0,0.0,0.0,0.0,0.0,0.0,0.0,-1.2298,-1.2445,-1.2305,-1.2305,-1.2879,-1.3317,0.0,0.0,0.0,0.0,0.0,0.0,0.0,0.0,0.0,0.0,0.0,0.0,0.0,0.0,0.0,0.0,0.0,0.0,0.0,0.0,0.0,0.0,0.0,0.0,0.0,0.0,0.0,0.0,0.0,0.0,0.0,-1.4805,-1.4896,-1.5101,-1.5052,-1.5022,-1.5022,-1.4968,-1.4829,0.0,-1.4624,-1.4509,-1.4298,-1.4298,-1.4436,-1.4675,-1.5704,-1.6123,-1.6217,-1.7203,-1.7623,-1.7623,-1.7623,-1.7623,-1.7623,-1.7623,-1.7623,-1.7669,0.0,0.0,0.0,0.0,0.0,0.0,0.0,0.0,0.0,0.0,0.0,0.0,0.0,0.0,0.0,0.0,0.0,0.0,0.0,0.0,0.0,-1.3277,-1.3246,-1.3094,-1.2767,-1.2767,-1.2613,-1.2305,-1.2789,-1.2942,0.0,-1.2942,-1.3025,-1.2995,-1.2842,-1.2781,-1.2789,-1.2765,-1.2981,-1.333,-1.3243,-1.345,-1.3805,-1.3577,-1.3244,-1.2915,-1.2915,0.0,0.0,0.0,0.0,0.0,0.0,0.0,-1.1744,-1.1744,-1.2033,-1.2248,0.0,0.0,0.0,0.0,0.0,0.0,0.0,0.0,0.0,0.0,0.0,0.0,0.0,0.0,0.0,0.0,0.0,0.0,0.0,0.0,0.0,0.0,0.0,0.0,0.0,0.0,0.0,0.0,0.0,0.0,0.0,-1.4515,-1.4576,-1.4714,-1.4721,-1.4721,-1.4721,-1.4721,-1.4648,-1.4515,-1.4515,-1.4437,-1.4298,-1.4298,-1.4298,-1.4346,-1.486,-1.5092,-1.514,-1.617,-1.6593,-1.6593,-1.6593,-1.6593,-1.6593,-1.6593,-1.6593,-1.664,0.0,0.0,0.0,0.0,0.0,0.0,0.0,0.0,0.0,0.0,0.0,0.0,0.0,0.0,0.0,0.0,0.0,0.0,0.0,0.0,0.0,-1.3011,-1.295,-1.2767,-1.2451,-1.2328,-1.2143,-1.1872,-1.2019,0.0,0.0,0.0,0.0,-1.2359,-1.2104,-1.1987,-1.1962,-1.1911,-1.2167,-1.2565,-1.2668,-1.2928,-1.328,-1.3135,-1.2659,-1.2077,-1.2077,-1.1669,-1.1111,-1.1111,0.0,0.0,0.0,0.0,-1.1037,-1.1037,-1.1074,-1.1111,0.0,0.0,0.0,0.0,0.0,0.0,0.0,0.0,0.0,0.0,0.0,0.0,0.0,0.0,0.0,0.0,0.0,0.0,0.0,0.0,0.0,0.0,0.0,0.0,0.0,0.0,0.0,0.0,0.0,0.0,-1.4226,-1.4226,-1.425,-1.4298,-1.4298,-1.4298,-1.4298,-1.4298,-1.4298,-1.4298,-1.4298,-1.4298,-1.4298,-1.4298,-1.4298,-1.4298,-1.4298,-1.4298,-1.434,-1.5188,-1.5561,-1.5561,-1.5561,-1.5561,-1.5561,-1.5561,-1.5561,-1.5656,0.0,0.0,0.0,0.0,0.0,0.0,0.0,0.0,0.0,0.0,0.0,0.0,0.0,0.0,0.0,0.0,0.0,0.0,-1.2665,0.0,0.0,-1.2989,-1.2736,-1.2428,-1.2151,-1.1709,-1.1303,-1.0958,0.0,0.0,0.0,0.0,0.0,-1.1896,0.0,-1.1888,-1.1736,-1.1844,-1.2272,-1.2789,-1.212,-1.2103,-1.2372,-1.17,-1.1335,-1.126,-1.126,-1.1186,-1.1111,-1.1111,-1.0962,0.0,0.0,0.0,-1.085,-1.085,-1.0962,0.0,0.0,0.0,0.0,0.0,0.0,0.0,0.0,0.0,0.0,0.0,0.0,0.0,0.0,0.0,0.0,0.0,0.0,0.0,0.0,0.0,0.0,0.0,0.0,0.0,0.0,0.0,0.0,0.0,0.0,0.0,-1.3948,-1.396,-1.4063,-1.4292,-1.4298,-1.4298,-1.4298,-1.4298,-1.4298,-1.4298,-1.4298,-1.4298,-1.4298,-1.4298,-1.4298,-1.4298,-1.4298,-1.4298,-1.4298,-1.4436,-1.4484,-1.4484,-1.4484,-1.4484,-1.4484,-1.4484,-1.4484,-1.4532,0.0,0.0,0.0,0.0,0.0,0.0,0.0,0.0,0.0,0.0,0.0,0.0,0.0,0.0,0.0,-1.3472,-1.3169,-1.2887,-1.2781,-1.2482,-1.2328,-1.2498,-1.2336,-1.1996,-1.1365,-1.1153,-1.08,-1.0345,0.0,0.0,0.0,-1.0874,-1.1156,0.0,0.0,0.0,0.0,-1.0827,-1.1132,-1.1478,-1.1416,-1.1482,-1.1595,-1.1223,-1.1111,-1.1111,-1.1111,-1.1111,-1.1111,-1.1111,-1.1037,-1.0962,-1.0962,0.0,0.0,0.0,-1.1037,0.0,0.0,0.0,0.0,0.0,0.0,0.0,0.0,0.0,0.0,0.0,0.0,0.0,0.0,0.0,0.0,0.0,0.0,0.0,0.0,0.0,0.0,0.0,0.0,0.0,0.0,0.0,0.0,0.0,0.0,-1.3562,-1.3682,-1.3688,-1.3743,-1.3851,-1.4002,-1.4081,-1.4081,-1.422,-1.4298,-1.4298,-1.4298,-1.4298,-1.4298,-1.4298,-1.4298,-1.4298,-1.4298,-1.4298,-1.4298,-1.4298,-1.4298,-1.4298,-1.4298,-1.4298,-1.4298,-1.4298,-1.4298,-1.4298,0.0,0.0,0.0,0.0,0.0,0.0,0.0,0.0,0.0,0.0,0.0,0.0,0.0,0.0,0.0,0.0,-1.2673,-1.2528,-1.2858,-1.2428,-1.2081,-1.1903,-1.1809,-1.1397,-1.0604,-1.0485,-1.0225,0.0,0.0,0.0,-0.9831,-0.9678,-0.9901,0.0,-0.9779,0.0,0.0,0.0,0.0,0.0,0.0,-1.1111,-1.1111,-1.1111,-1.1111,-1.1111,-1.1111,-1.1074,-1.1037,-1.1037,-1.0962,-1.085,-1.085,-1.085,0.0,0.0,0.0,0.0,0.0,0.0,0.0,0.0,0.0,0.0,0.0,0.0,0.0,0.0,0.0,0.0,0.0,0.0,0.0,0.0,0.0,0.0,0.0,0.0,0.0,0.0,0.0,0.0,0.0,0.0,0.0,0.0,0.0,-1.3338,-1.3411,-1.3417,-1.3447,-1.3513,-1.3707,-1.3809,-1.3809,-1.4063,-1.4201,-1.4201,-1.4262,-1.4298,-1.4298,-1.4298,-1.4298,-1.4298,-1.4298,-1.4298,-1.4298,-1.4298,-1.4298,-1.4298,-1.4298,-1.4298,-1.4298,-1.4298,-1.4298,-1.4298,0.0,0.0,0.0,0.0,0.0,0.0,0.0,0.0,0.0,0.0,0.0,0.0,-1.1664,-1.1571,-1.1679,-1.2042,-1.205,-1.2174,-1.2482,-1.1677,-1.1216,-1.1341,-1.1028,0.0,-1.0053,-0.962,0.0,0.0,0.0,0.0,-0.9338,-0.8829,-0.8861,-0.937,-0.9454,-0.9517,-0.9561,0.0,0.0,0.0,0.0,0.0,0.0,0.0,0.0,0.0,0.0,0.0,-1.0812,-1.0812,-1.055,-1.0255,-1.0255,-1.0255,-1.0255,0.0,0.0,0.0,0.0,0.0,0.0,0.0,0.0,0.0,0.0,0.0,0.0,0.0,0.0,0.0,0.0,0.0,0.0,0.0,0.0,0.0,0.0,0.0,0.0,0.0,0.0,0.0,0.0,0.0,0.0,0.0,0.0,-1.2862,-1.3133,-1.3101,-1.326,-1.3507,-1.3525,-1.3538,-1.3538,-1.3797,-1.3924,-1.393,-1.4177,-1.4298,-1.4298,-1.4298,-1.4298,-1.4298,-1.4298,-1.4298,-1.4298,-1.4298,-1.4298,-1.4298,-1.4298,-1.4298,-1.4298,-1.4298,-1.4298,-1.4298,0.0,0.0,0.0,0.0,0.0,0.0,0.0,0.0,0.0,0.0,0.0,0.0,0.0,-1.1173,-1.1267,-1.181,-1.167,-1.1615,-1.1709,-1.0881,-1.0408,-1.0471,-1.0345,-1.0059,-0.9556,-0.9396,0.0,0.0,0.0,-0.8608,-0.8765,-0.8576,-0.8608,-0.8808,-0.9024,-0.9181,-0.9327,-0.9912,0.0,0.0,0.0,0.0,0.0,0.0,0.0,0.0,0.0,0.0,0.0,-1.0625,-1.0519,-1.0406,-1.0406,-1.0406,-1.0406,-1.0406,-1.0475,0.0,0.0,0.0,0.0,0.0,0.0,0.0,0.0,0.0,0.0,0.0,0.0,0.0,0.0,0.0,0.0,0.0,0.0,0.0,0.0,0.0,0.0,0.0,0.0,0.0,0.0,0.0,0.0,0.0,0.0,0.0,-1.285,-1.2856,-1.2898,-1.2994,-1.3169,-1.3344,-1.3513,-1.361,-1.3652,-1.3658,-1.3924,-1.4045,-1.4051,-1.422,-1.4298,-1.4298,-1.4298,-1.4298,-1.4298,-1.4298,-1.4298,-1.4298,-1.4298,-1.4298,-1.4298,-1.4298,-1.4298,-1.4298,0.0,0.0,0.0,0.0,0.0,0.0,0.0,0.0,0.0,0.0,0.0,0.0,0.0,0.0,-1.0426,-1.0986,-1.0937,-1.085,-1.085,-1.0307,-0.9926,-0.9773,-0.9767,-0.955,-0.9055,-0.9022,0.0,0.0,0.0,0.0,0.0,-0.8517,-0.8554,-0.8641,-0.8906,-0.906,0.0,0.0,0.0,-1.0406,0.0,0.0,-1.0775,0.0,0.0,0.0,0.0,0.0,0.0,0.0,0.0,0.0,-1.0293,-1.0293,-1.0331,-1.0368,0.0,0.0,0.0,0.0,0.0,0.0,0.0,0.0,0.0,0.0,0.0,0.0,0.0,0.0,0.0,0.0,0.0,0.0,0.0,0.0,0.0,0.0,0.0,0.0,0.0,0.0,0.0,0.0,0.0,0.0,0.0,0.0,-1.2705,-1.2705,-1.2705,-1.2705,-1.2886,-1.3067,-1.3242,-1.3338,-1.3387,-1.3387,-1.3646,-1.3773,-1.3779,-1.3954,-1.4032,-1.4039,-1.4129,-1.4214,-1.4298,-1.4298,-1.4298,-1.4298,-1.4298,-1.4298,-1.4298,-1.4298,-1.4298,-1.4298,0.0,0.0,0.0,0.0,0.0,0.0,0.0,0.0,0.0,-1.0243,0.0,0.0,0.0,0.0,0.0,-0.9486,-0.9799,-0.999,-0.999,-0.9952,-0.9735,-0.9306,-0.9274,-0.9022,-0.8517,-0.8517,-0.8517,0.0,0.0,0.0,0.0,0.0,-0.8641,-0.8906,-0.9104,-0.9206,-0.9233,0.0,-1.0013,-1.0218,0.0,-1.0625,-1.0775,0.0,0.0,0.0,-1.055,-1.0368,0.0,0.0,0.0,0.0,0.0,0.0,0.0,0.0,0.0,0.0,0.0,0.0,0.0,0.0,0.0,0.0,0.0,0.0,0.0,0.0,0.0,0.0,0.0,0.0,0.0,0.0,0.0,0.0,0.0,0.0,0.0,0.0,0.0,0.0,0.0,0.0,0.0,0.0,0.0,-1.2705,-1.2705,-1.2705,-1.2705,-1.2705,-1.2705,-1.2705,-1.2705,-1.2976,-1.3109,-1.3071,-1.3381,-1.3501,-1.3507,-1.3513,-1.3513,-1.3525,-1.3785,-1.4039,-1.4274,-1.4292,-1.4298,-1.4298,-1.4298,-1.4298,-1.4298,-1.4298,-1.4298,-1.4298,0.0,0.0,0.0,0.0,0.0,0.0,0.0,0.0,-0.93,0.0,0.0,0.0,-0.8861,-0.9087,-0.9396,-0.9831,-0.9646,-0.9492,-0.9492,-0.9145,-0.8861,-0.8738,-0.8705,-0.8641,-0.8517,-0.8517,-0.8517,0.0,0.0,0.0,0.0,0.0,0.0,0.0,-0.9104,-0.9303,-0.9527,-0.9944,0.0,0.0,-1.0255,-1.0331,0.0,0.0,0.0,0.0,0.0,-1.003,0.0,0.0,-0.9954,-0.9884,0.0,0.0,0.0,0.0,0.0,0.0,-1.0067,0.0,0.0,0.0,0.0,0.0,0.0,0.0,0.0,0.0,0.0,0.0,0.0,0.0,0.0,0.0,0.0,0.0,0.0,0.0,0.0,0.0,0.0,0.0,0.0,0.0,0.0,0.0,-1.2369,-1.2491,-1.2491,-1.2619,-1.2705,-1.2705,-1.2705,-1.2705,-1.2705,-1.2783,-1.2819,-1.2825,-1.3097,-1.323,-1.3236,-1.3429,-1.3513,-1.3519,-1.3592,-1.3664,-1.3761,-1.4141,-1.4298,-1.4298,-1.4298,-1.4298,-1.4298,-1.4298,-1.4298,-1.4298,0.0,0.0,0.0,0.0,0.0,0.0,0.0,0.0,-0.8829,0.0,0.0,0.0,-0.8673,-0.8861,-0.9081,-0.9364,-0.9113,-0.8958,-0.8958,-0.8673,-0.8517,-0.8517,-0.8517,-0.8517,-0.8517,-0.8517,-0.8517,0.0,0.0,0.0,0.0,0.0,0.0,0.0,0.0,0.0,0.0,0.0,0.0,0.0,-1.0067,0.0,0.0,-0.9992,-0.9954,0.0,0.0,0.0,-0.9884,-0.9884,-0.9884,0.0,0.0,0.0,0.0,0.0,0.0,0.0,0.0,0.0,0.0,0.0,0.0,0.0,-0.9884,-0.9884,0.0,0.0,0.0,0.0,0.0,0.0,0.0,0.0,0.0,0.0,0.0,0.0,0.0,0.0,0.0,0.0,0.0,0.0,0.0,-1.1878,-1.2103,-1.2283,-1.2406,-1.2491,-1.2619,-1.2705,-1.2705,-1.2705,-1.2705,-1.2705,-1.2705,-1.2705,-1.2868,-1.2952,-1.2952,-1.3103,-1.3175,-1.3181,-1.3302,-1.335,-1.3387,-1.3797,-1.3972,-1.3978,-1.4093,-1.4135,-1.4147,-1.4256,-1.4298,-1.4298,0.0,0.0,0.0,0.0,0.0,0.0,0.0,0.0,0.0,0.0,-0.8608,-0.8517,-0.8517,-0.8517,-0.8517,-0.8517,-0.8517,-0.8517,-0.8517,-0.8517,-0.8517,-0.8517,-0.8517,-0.8517,-0.8517,-0.8517,-0.8517,0.0,0.0,0.0,0.0,0.0,0.0,0.0,0.0,0.0,0.0,0.0,0.0,-0.9884,-0.9884,-0.9992,0.0,0.0,-0.9992,0.0,-0.996,-0.9884,-0.9884,-0.9884,-0.9884,0.0,0.0,0.0,0.0,0.0,-0.9884,0.0,0.0,0.0,0.0,0.0,0.0,0.0,-0.9884,-0.9884,-0.9884,0.0,0.0,0.0,0.0,0.0,0.0,0.0,0.0,0.0,0.0,0.0,0.0,0.0,0.0,0.0,0.0,-1.1185,-1.1313,-1.1313,-1.1595,-1.1901,-1.2145,-1.2303,-1.2448,-1.2625,-1.2662,-1.2662,-1.2662,-1.2705,-1.2705,-1.2705,-1.2705,-1.2705,-1.2705,-1.2705,-1.2705,-1.2717,-1.297,-1.3079,-1.3053,-1.3332,-1.3459,-1.3538,-1.3773,-1.3882,-1.3936,-1.4165,-1.4268,-1.4298,-0.8484,0.0,0.0,0.0,0.0,0.0,0.0,0.0,0.0,-0.8544,-0.8517,-0.8517,-0.8517,-0.8517,-0.8517,-0.8517,-0.8517,-0.8517,-0.8517,-0.8517,-0.8517,-0.8517,-0.8517,-0.8517,-0.8517,-0.8517,-0.8517,0.0,0.0,0.0,0.0,0.0,0.0,0.0,0.0,0.0,0.0,0.0,0.0,-0.9884,-0.9884,0.0,-0.9954,-0.9922,-0.9916,-0.9954,-0.9922,-0.9884,-0.9884,0.0,-0.9884,-0.9884,0.0,0.0,0.0,0.0,0.0,0.0,0.0,0.0,0.0,0.0,0.0,0.0,-0.9884,-0.9884,-0.9884,0.0,0.0,0.0,0.0,0.0,0.0,0.0,0.0,0.0,0.0,0.0,0.0,0.0,0.0,0.0,0.0,-0.8855,-0.8877,-0.8877,-0.9866,-1.0579,-1.0784,-1.162,-1.208,-1.2123,-1.2369,-1.2448,-1.2448,-1.2619,-1.2705,-1.2705,-1.2705,-1.2705,-1.2705,-1.2705,-1.2705,-1.2705,-1.2765,-1.2783,-1.2789,-1.2837,-1.3121,-1.3519,-1.3568,-1.3719,-1.3912,-1.3966,-1.4117,-1.4298,-0.8447,0.0,0.0,0.0,0.0,0.0,0.0,0.0,0.0,-0.8517,-0.8517,-0.8517,-0.8517,-0.8517,-0.856,-0.8678,-0.8689,-0.8737,-0.8851,-0.8861,-0.8861,-0.8861,-0.8861,-0.8807,-0.8694,-0.8802,-0.8802,0.0,0.0,0.0,0.0,0.0,0.0,0.0,0.0,0.0,0.0,0.0,-0.9884,-0.9884,-0.9884,0.0,-0.9884,-0.9884,-0.9884,-0.9884,-0.9884,-0.9884,-0.9884,-0.9884,-0.9884,0.0,0.0,-0.9884,-0.9884,0.0,-0.9884,-0.9884,0.0,0.0,0.0,-0.9884,0.0,0.0,0.0,-0.9884,-0.9884,0.0,0.0,0.0,0.0,0.0,0.0,0.0,0.0,0.0,0.0,0.0,0.0,0.0,0.0,0.0,0.0,-0.8182,-0.8069,-0.8201,-0.8789,-0.9423,-1.0002,-1.0684,-1.1293,-1.1849,-1.2097,-1.2203,-1.2203,-1.2289,-1.2412,-1.2534,-1.2534,-1.2619,-1.2705,-1.2705,-1.2705,-1.2705,-1.2705,-1.2705,-1.2705,-1.2705,-1.2868,-1.3127,-1.3266,-1.3399,-1.355,-1.3809,-1.399,-1.4123,-0.7987,0.0,0.0,0.0,0.0,0.0,0.0,0.0,0.0,-0.8517,-0.8517,-0.8517,-0.8517,-0.8517,0.0,-0.8879,-0.8895,-0.8992,0.0,0.0,-0.9206,-0.9206,-0.9206,-0.912,-0.8971,-0.9109,-0.9114,-0.8965,0.0,0.0,0.0,0.0,0.0,0.0,0.0,0.0,0.0,0.0,0.0,-0.9884,0.0,-0.9884,-0.9884,-0.9884,-0.9884,-0.9884,-0.9884,-0.9884,-0.9884,-0.9884,0.0,-0.9884,-0.9884,-0.9884,0.0,0.0,0.0,0.0,0.0,0.0,0.0,0.0,0.0,-0.9884,0.0,0.0,0.0,0.0,0.0,0.0,0.0,0.0,0.0,0.0,0.0,0.0,0.0,0.0,0.0,0.0,0.0,0.0,0.0,-0.7567,-0.743,-0.7805,-0.7849,-0.8314,-0.9283,-0.9574,-1.0215,-1.1316,-1.1516,-1.1729,-1.1957,-1.2,-1.2123,-1.2326,-1.2326,-1.2412,-1.2583,-1.2583,-1.2583,-1.2583,-1.2619,-1.2619,-1.2619,-1.2619,-1.2619,-1.2686,-1.2909,-1.3029,-1.3131,-1.3552,-1.3775,-1.3936,-0.6629,-0.7158,0.0,0.0,0.0,0.0,0.0,0.0,0.0,-0.8517,-0.8517,0.0,0.0,0.0,0.0,0.0,0.0,0.0,-0.919,0.0,0.0,-0.9206,-0.9206,-0.9195,-0.9168,-0.919,-0.9195,-0.9163,0.0,0.0,0.0,0.0,0.0,0.0,-0.9906,0.0,0.0,0.0,-0.9884,0.0,-0.9884,-0.9884,0.0,-0.9884,-0.9884,-0.9884,-0.9884,-0.9884,-0.9884,0.0,-0.9884,-0.9884,0.0,-0.9884,0.0,0.0,0.0,0.0,0.0,0.0,0.0,0.0,-0.9884,0.0,0.0,0.0,0.0,0.0,0.0,0.0,0.0,0.0,0.0,0.0,0.0,0.0,0.0,0.0,0.0,0.0,0.0,0.0,0.0,0.0,-0.562,-0.6369,-0.6648,-0.7126,-0.7967,-0.826,-0.8894,-0.9966,-1.0201,-1.0783,-1.1742,-1.1914,-1.2043,-1.2043,-1.2043,-1.2037,-1.208,-1.208,-1.208,-1.208,-1.2326,-1.2448,-1.2448,-1.2448,-1.2448,-1.2448,-1.2655,-1.2904,-1.3089,-1.2972,-1.3326,-1.3865,-0.6859,-0.7293,0.0,0.0,0.0,0.0,0.0,0.0,0.0,-0.8716,-0.8834,0.0,0.0,0.0,0.0,0.0,0.0,-0.9373,0.0,0.0,0.0,0.0,0.0,0.0,-0.9421,-0.955,-0.9556,-0.9421,-0.9556,0.0,0.0,0.0,0.0,0.0,-0.9884,0.0,-0.9884,0.0,0.0,0.0,0.0,0.0,0.0,-0.9728,-0.9884,-0.9884,-0.9884,-0.9614,-0.9198,0.0,-0.9198,0.0,0.0,0.0,0.0,0.0,0.0,0.0,0.0,0.0,0.0,0.0,0.0,0.0,-0.9198,0.0,-0.9884,0.0,0.0,0.0,0.0,0.0,0.0,0.0,0.0,0.0,0.0,0.0,0.0,0.0,0.0,0.0,0.0,0.0,0.0,0.0,-0.5605,-0.6025,-0.6844,-0.7111,-0.7676,-0.8616,-0.8961,-0.9333,-0.9762,-1.0446,-1.0862,-1.1035,-1.1564,-1.1871,-1.2,-1.2,-1.2,-1.2,-1.2123,-1.216,-1.216,-1.216,-1.216,-1.216,-1.2246,-1.2359,-1.2476,-1.2539,-1.2769,-1.3036,-0.6697,0.0,0.0,0.0,0.0,0.0,0.0,0.0,0.0,0.0,0.0,0.0,-0.9206,-0.9206,0.0,0.0,0.0,-0.9674,0.0,0.0,-0.9884,0.0,0.0,0.0,0.0,0.0,-0.9836,-0.9674,0.0,0.0,0.0,0.0,0.0,0.0,0.0,-0.969,-0.9879,0.0,0.0,-0.9576,-0.9576,-0.9079,-0.8428,-0.9036,-0.9382,-0.9539,-0.9306,-0.9003,-0.8665,-0.8428,-0.8389,0.0,-0.8389,0.0,0.0,0.0,0.0,0.0,-0.7655,0.0,0.0,0.0,0.0,0.0,0.0,0.0,0.0,0.0,0.0,0.0,0.0,0.0,0.0,0.0,0.0,0.0,0.0,0.0,0.0,0.0,0.0,0.0,0.0,0.0,0.0,-0.5323,-0.5132,-0.5362,-0.6163,-0.6378,-0.6774,-0.7458,-0.7951,-0.83,-0.8403,-0.9138,-0.9712,-1.0207,-1.0868,-1.1435,-1.1823,-1.1823,-1.1823,-1.1823,-1.1871,-1.1914,-1.1914,-1.1914,-1.1914,-1.1914,-1.1828,-1.1823,-1.1845,-1.2112,-1.2313,-1.2471,-0.5398,-0.6622,0.0,0.0,0.0,0.0,0.0,0.0,0.0,0.0,0.0,0.0,0.0,0.0,0.0,0.0,0.0,-0.9674,-0.9906,0.0,-0.9884,0.0,0.0,-0.9879,0.0,0.0,0.0,0.0,0.0,0.0,0.0,0.0,0.0,0.0,0.0,-0.916,-0.9841,-0.9084,-0.8742,-0.8742,-0.8742,-0.8275,-0.754,0.0,-0.8042,-0.8623,-0.7851,0.0,0.0,-0.7808,-0.754,0.0,0.0,0.0,0.0,0.0,0.0,0.0,0.0,0.0,0.0,-0.7502,0.0,0.0,0.0,0.0,-0.7579,0.0,0.0,0.0,0.0,0.0,0.0,-0.7017,0.0,0.0,0.0,0.0,0.0,0.0,0.0,0.0,0.0,0.0,0.0,-0.6086,-0.5437,-0.5362,-0.6163,-0.6205,-0.6351,-0.6614,-0.739,-0.8004,-0.8399,-0.845,-0.8931,-0.9903,-0.9946,-1.0429,-1.1305,-1.1305,-1.1305,-1.1354,-1.1613,-1.1699,-1.1699,-1.1699,-1.1699,-1.1699,-1.144,-1.1305,-1.1354,-1.1624,-1.1991,-1.2404,0.0,0.0,0.0,0.0,0.0,0.0,0.0,-0.8973,0.0,0.0,0.0,0.0,0.0,0.0,-1.0024,0.0,0.0,-1.027,-1.0351,-0.9732,0.0,0.0,0.0,-0.8304,0.0,0.0,0.0,0.0,0.0,0.0,0.0,0.0,0.0,0.0,0.0,-0.8037,0.0,0.0,0.0,0.0,0.0,-0.6892,-0.67,0.0,0.0,-0.7889,-0.7617,-0.7314,0.0,-0.6738,-0.6623,-0.6623,-0.6623,-0.7042,-0.7387,-0.6815,-0.6623,0.0,0.0,0.0,-0.586,-0.586,0.0,0.0,0.0,0.0,0.0,0.0,0.0,0.0,0.0,0.0,0.0,-0.6478,0.0,0.0,0.0,0.0,0.0,0.0,0.0,0.0,0.0,0.0,0.0,-0.5398,-0.5171,-0.5132,-0.5401,-0.5401,-0.5458,-0.5541,-0.59,-0.6149,-0.6286,-0.7066,-0.7664,-0.7978,-0.8661,-0.9462,-1.0386,-1.0386,-1.0694,-1.1311,-1.1397,-1.144,-1.144,-1.144,-1.144,-1.144,-1.1354,-1.1305,-1.1311,-1.1392,-1.1532,-1.1696,-0.5362,0.0,0.0,0.0,0.0,0.0,0.0,0.0,0.0,0.0,-0.9636,0.0,-0.9792,0.0,-0.9827,0.0,-0.9608,-0.973,-1.01,-0.919,0.0,-0.9089,-0.8091,0.0,0.0,0.0,0.0,0.0,0.0,-0.7502,0.0,0.0,0.0,0.0,0.0,0.0,0.0,0.0,-0.7042,0.0,0.0,-0.5783,0.0,0.0,-0.6777,-0.7007,0.0,-0.6433,-0.6163,-0.5857,-0.5783,-0.5783,-0.5783,-0.6167,-0.6511,-0.5935,-0.5783,-0.5667,-0.5132,-0.5018,0.0,-0.5018,-0.5398,0.0,-0.5783,0.0,0.0,0.0,0.0,0.0,0.0,0.0,0.0,-0.5783,-0.5323,0.0,0.0,-0.5018,0.0,0.0,0.0,0.0,0.0,0.0,-0.5018,-0.5018,-0.5018,-0.5018,0.0,0.0,-0.5285,-0.5018,-0.5359,-0.5459,-0.5186,-0.6005,-0.6606,-0.7001,-0.7676,-0.85,-0.9419,-0.9419,-0.9903,-1.0781,-1.0781,-1.1003,-1.1267,-1.0954,-1.0997,-1.1267,-1.0911,-1.0997,-1.1305,-1.1305,-1.1359,-1.1532,0.0,0.0,0.0,0.0,-0.7539,0.0,0.0,0.0,-0.8932,0.0,-0.9349,-0.8971,-0.8867,-0.9048,-0.8805,-0.7904,-0.7822,0.0,-0.9101,-0.8271,0.0,0.0,-0.8026,-0.7462,-0.7403,0.0,0.0,0.0,0.0,0.0,0.0,0.0,0.0,0.0,-0.6507,0.0,-0.731,-0.6507,-0.6125,-0.6086,-0.5323,-0.5018,-0.5018,-0.5018,-0.5476,-0.6051,-0.5285,-0.5476,-0.6012,-0.5249,-0.5018,-0.5018,-0.5018,-0.5018,-0.5018,-0.5018,-0.5018,-0.5018,-0.5018,-0.5018,-0.5018,-0.5018,0.0,0.0,0.0,0.0,-0.5018,0.0,0.0,0.0,0.0,0.0,0.0,0.0,-0.5018,-0.5018,0.0,0.0,0.0,0.0,0.0,0.0,0.0,-0.5018,-0.5018,-0.5018,-0.5018,0.0,0.0,0.0,-0.5783,-0.5015,-0.5744,-0.5843,-0.5175,-0.5339,-0.5922,-0.6905,-0.697,-0.7526,-0.8412,-0.8412,-0.8938,-0.9811,-0.9811,-1.0342,-1.1084,-1.0212,-1.0342,-1.1089,-1.0164,-1.0386,-1.1176,-1.1267,-1.1445,-1.1715,-0.4963,-0.4933,-0.5073,0.0,-0.6159,-0.6942,0.0,0.0,0.0,0.0,-0.8059,-0.8074,-0.8351,-0.8422,-0.8425,-0.8307,-0.8319,0.0,0.0,0.0,0.0,-0.7514,-0.6526,-0.5912,-0.5775,-0.5772,0.0,-0.5631,0.0,0.0,-0.5631,0.0,0.0,0.0,0.0,0.0,-0.5631,-0.5401,-0.5323,-0.5285,-0.5093,-0.5018,0.0,0.0,-0.5132,-0.5285,-0.5054,-0.5132,-0.5285,-0.5054,-0.5018,-0.5018,-0.5018,-0.5018,-0.5018,-0.5018,-0.5018,-0.5018,-0.5018,-0.5018,-0.5018,-0.5018,-0.5018,-0.5018,0.0,0.0,0.0,0.0,0.0,0.0,0.0,0.0,0.0,0.0,0.0,0.0,0.0,0.0,0.0,-0.5018,0.0,0.0,0.0,-0.5018,-0.5018,-0.5018,-0.5018,0.0,0.0,0.0,0.0,-0.5018,-0.521,-0.5224,-0.5061,-0.5175,-0.5459,-0.5793,-0.5881,-0.6468,-0.7445,-0.7445,-0.7973,-0.8851,-0.8851,-0.8982,-0.92,-0.8982,-0.8982,-0.92,-0.8938,-0.9026,-0.9375,-1.0781,-1.1343,-1.1455,-0.5018,0.0,0.0,-0.5553,0.0,0.0,-0.6883,0.0,0.0,-0.7628,-0.7471,0.0,-0.7569,-0.7655,-0.7606,-0.7305,-0.7272,0.0,0.0,0.0,0.0,-0.7004,-0.599,-0.539,-0.5312,-0.5214,0.0,-0.5091,0.0,0.0,-0.5018,0.0,0.0,0.0,0.0,-0.5018,0.0,-0.5018,-0.5018,-0.5018,-0.5018,0.0,0.0,-0.5018,-0.5018,-0.5018,-0.5018,-0.5018,-0.5018,-0.5018,-0.5018,-0.5018,-0.5018,-0.5018,-0.5018,-0.5018,-0.5018,-0.5018,-0.5018,-0.5018,-0.5018,-0.5018,-0.5018,-0.5018,-0.5018,-0.5018,-0.5018,0.0,0.0,0.0,0.0,0.0,0.0,0.0,0.0,0.0,0.0,0.0,0.0,0.0,0.0,0.0,0.0,0.0,-0.5018,0.0,0.0,0.0,0.0,0.0,0.0,-0.5018,-0.5018,-0.5018,-0.5018,-0.5129,-0.5249,-0.5413,-0.5448,-0.5831,-0.6482,-0.6482,-0.7007,-0.7885,-0.7885,-0.8105,-0.8456,-0.8061,-0.8149,-0.85,-0.85,-0.85,-0.8632,-0.9685,-1.0077,-1.0226,0.0,0.0,0.0,0.0,0.0,0.0,0.0,-0.627,0.0,-0.7398,0.0,-0.6751,-0.6681,-0.6799,-0.6567,-0.5777,0.0,-0.6041,-0.6877,-0.6174,-0.6034,-0.6781,-0.6005,-0.5475,-0.5396,-0.529,0.0,0.0,0.0,0.0,0.0,0.0,0.0,0.0,0.0,0.0,0.0,-0.5018,-0.5018,0.0,-0.5018,-0.5018,-0.5018,-0.5018,-0.5018,-0.5018,-0.5018,-0.5018,-0.5018,-0.5018,-0.5018,-0.5018,-0.5018,-0.5018,-0.5018,-0.5018,-0.5018,-0.5018,-0.5018,-0.5018,-0.5018,-0.5018,-0.5018,-0.5018,-0.5018,-0.5018,-0.5018,-0.5018,-0.5018,-0.5018,0.0,0.0,0.0,0.0,0.0,0.0,0.0,0.0,0.0,0.0,0.0,0.0,0.0,0.0,0.0,0.0,0.0,0.0,0.0,0.0,0.0,-0.5018,-0.5018,-0.5018,-0.5018,0.0,-0.5233,-0.5413,-0.5477,-0.5556,-0.5688,-0.5688,-0.6127,-0.6922,-0.6922,-0.736,-0.8061,-0.7272,-0.7404,-0.8149,-0.8149,-0.8149,-0.8149,-0.8149,-0.8149,-0.8372,0.0,0.0,0.0,0.0,0.0,-0.5413,-0.5639,-0.5611,-0.5671,-0.5883,-0.5835,-0.5803,-0.5863,-0.5941,-0.5866,-0.5733,-0.5688,0.0,0.0,0.0,0.0,-0.5921,-0.5744,-0.5599,-0.5478,-0.5454,-0.5346,0.0,0.0,0.0,0.0,0.0,0.0,0.0,0.0,0.0,-0.5018,-0.5018,0.0,-0.5018,-0.5018,-0.5018,-0.5018,-0.5018,-0.5018,-0.5018,-0.5018,-0.5018,-0.5018,-0.5018,-0.5018,-0.5018,-0.5018,-0.5018,-0.5018,-0.5018,-0.5018,-0.5018,-0.5018,-0.5018,-0.5018,-0.5018,-0.5018,-0.5018,-0.5018,-0.5018,-0.5018,-0.5018,-0.5018,-0.5018,-0.5018,0.0,0.0,0.0,0.0,0.0,0.0,0.0,0.0,0.0,0.0,0.0,0.0,0.0,0.0,0.0,0.0,0.0,0.0,0.0,0.0,0.0,-0.5018,0.0,0.0,0.0,-0.5154,-0.541,-0.5432,-0.5518,-0.5688,-0.5688,-0.5777,-0.5952,-0.5952,-0.6041,-0.6174,-0.5997,-0.6041,-0.6171,-0.6171,-0.6171,-0.6171,-0.6171,-0.6171,-0.6474,0.0,0.0,0.0,0.0,0.0,0.0,0.0,-0.5597,0.0,-0.5594,-0.5602,-0.5623,-0.5683,-0.5688,-0.5688,-0.5688,-0.5688,-0.5688,-0.5688,-0.5688,-0.5688,-0.5688,-0.5688,0.0,-0.5602,-0.554,-0.5451,-0.5377,0.0,0.0,-0.5102,0.0,0.0,0.0,0.0,-0.5018,0.0,0.0,0.0,-0.5018,-0.5018,-0.5018,-0.5018,-0.5018,-0.5018,-0.5018,-0.5018,-0.5018,-0.5018,-0.5018,-0.5018,-0.5018,-0.5018,-0.5018,-0.5018,-0.5018,-0.5018,-0.5018,-0.5018,-0.5018,-0.5018,-0.5018,-0.5018,-0.5018,-0.5018,-0.5018,-0.5018,-0.5018,-0.5018,-0.5018,-0.5018,-0.5018,0.0,0.0,0.0,0.0,0.0,0.0,0.0,0.0,0.0,0.0,0.0,0.0,0.0,0.0,0.0,0.0,0.0,0.0,0.0,0.0,0.0,0.0,0.0,0.0,0.0,-0.541,-0.541,-0.5496,-0.5688,-0.5688,-0.5688,-0.5688,-0.5688,-0.5688,-0.5688,-0.5688,-0.5688,-0.5688,-0.5688,-0.5688,-0.5688,-0.5688,-0.5688,-0.5944,0.0,-0.5409,0.0,0.0,-0.558,0.0,-0.5825,-0.5847,-0.5828,-0.5731,-0.5726,-0.5726,-0.5726,-0.5726,-0.5715,-0.5691,-0.5688,-0.5688,-0.5688,-0.5688,-0.5688,-0.5688,-0.5688,-0.5688,-0.5688,-0.5597,-0.5534,0.0,0.0,0.0,0.0,0.0,0.0,0.0,0.0,0.0,0.0,0.0,-0.5067,-0.5091,-0.5091,-0.5091,-0.5089,-0.5064,-0.5053,-0.505,-0.5026,-0.5018,-0.5018,-0.5018,-0.5018,-0.5018,-0.5018,-0.5018,-0.5018,-0.5018,-0.5018,-0.5018,-0.5018,-0.5018,-0.5018,-0.5018,-0.5018,-0.5018,-0.5018,-0.5018,-0.5018,-0.5018,-0.5018,-0.5018,-0.5018,-0.5018,0.0,0.0,0.0,0.0,0.0,0.0,0.0,0.0,0.0,0.0,0.0,0.0,0.0,0.0,0.0,0.0,0.0,0.0,0.0,0.0,0.0,-0.5018,-0.5018,0.0,-0.5135,-0.541,-0.541,-0.5496,-0.5688,-0.5688,-0.5688,-0.5688,-0.5688,-0.5688,-0.5688,-0.5688,-0.5688,-0.5688,-0.5688,-0.5688,-0.5688,-0.5688,-0.5704,-0.5888,0.0,0.0,0.0,0.0,0.0,0.0,-0.6184,-0.6268,-0.614,-0.5915,-0.5888,-0.5888,-0.5888,-0.5888,-0.5844,-0.5696,-0.5688,-0.5688,-0.5688,-0.5688,-0.5688,-0.5688,-0.5688,-0.5688,-0.5688,-0.5677,-0.5618,0.0,0.0,0.0,0.0,0.0,0.0,0.0,0.0,0.0,0.0,-0.517,-0.5235,-0.5377,-0.5377,-0.5377,-0.5366,-0.5214,-0.517,-0.5156,-0.5053,-0.5018,-0.5018,-0.5018,-0.5018,-0.5018,-0.5018,-0.5018,-0.5018,-0.5018,-0.5018,-0.5018,-0.5018,-0.5018,-0.5018,-0.5018,-0.5018,-0.5018,-0.5018,-0.5018,-0.5018,-0.5018,-0.5018,-0.5018,-0.5018,-0.5018,-0.5018,0.0,0.0,0.0,0.0,0.0,0.0,0.0,0.0,0.0,0.0,-0.5018,0.0,0.0,0.0,0.0,0.0,0.0,0.0,-0.5018,0.0,-0.5018,-0.5018,-0.5018,-0.5135,-0.541,-0.541,-0.5496,-0.5688,-0.5688,-0.5688,-0.5688,-0.5688,-0.5688,-0.5688,-0.5688,-0.5688,-0.5688,-0.5688,-0.5688,-0.5688,-0.5688,-0.5798,-0.5907,0.0,0.0,0.0,0.0,0.0,0.0,0.0,-0.6325,-0.6361,-0.6336,-0.6268,-0.6222,-0.6222,-0.6162,-0.6105,-0.6059,-0.592,-0.5836,-0.5836,-0.5726,-0.5688,-0.5688,-0.5688,-0.5688,-0.5688,-0.5688,-0.5664,0.0,0.0,0.0,0.0,0.0,0.0,0.0,0.0,-0.4928,-0.5095,-0.5095,-0.5204,-0.541,-0.541,-0.541,-0.5405,-0.5355,-0.5252,-0.5181,-0.5135,-0.5075,-0.5018,-0.5018,-0.5018,-0.5018,-0.5018,-0.5018,-0.5018,-0.5018,-0.5018,-0.5018,-0.5018,-0.5018,-0.5018,-0.5018,-0.5018,-0.5018,-0.5018,-0.5018,-0.5018,-0.5018,-0.5018,-0.5018,-0.5018,-0.5018,-0.5018,0.0,0.0,0.0,0.0,0.0,0.0,0.0,0.0,0.0,0.0,0.0,0.0,0.0,0.0,0.0,0.0,0.0,0.0,-0.5018,0.0,-0.5018,-0.5018,-0.5018,-0.5135,-0.541,-0.541,-0.5496,-0.5688,-0.5688,-0.5688,-0.5688,-0.5688,-0.5688,-0.5688,-0.5688,-0.5688,-0.5688,-0.5688,-0.5688,-0.5688,-0.5688,-0.5806,-0.592,-0.5769,0.0,-0.592,0.0,-0.6069,-0.6148,-0.6216,-0.6291,-0.6383,-0.65,-0.6443,-0.6405,-0.6452,-0.6239,-0.611,-0.6171,-0.5887,-0.5757,-0.5769,-0.5602,-0.5544,-0.5599,-0.5552,0.0,-0.5508,-0.5508,-0.5508,-0.5508,-0.538,0.0,0.0,0.0,0.0,0.0,-0.4703,-0.4804,-0.4922,-0.4922,-0.5064,-0.5302,-0.5302,-0.5302,-0.5299,-0.5307,-0.5243,-0.5079,-0.5092,-0.5015,-0.4865,-0.4912,-0.4859,-0.4859,-0.4976,-0.5018,-0.5018,-0.5018,-0.5018,-0.5018,-0.5018,-0.5018,-0.5018,-0.5018,-0.5018,-0.5018,-0.5018,-0.5018,-0.5018,-0.5018,-0.5018,-0.5018,-0.5018,-0.4937,-0.4937,-0.4979,0.0,0.0,0.0,0.0,0.0,0.0,-0.4859,-0.4859,-0.4979,0.0,0.0,0.0,0.0,0.0,0.0,0.0,0.0,0.0,0.0,0.0,0.0,-0.505,-0.517,-0.541,-0.5407,-0.5532,-0.5688,-0.5688,-0.5688,-0.5688,-0.5688,-0.5688,-0.5688,-0.5688,-0.5688,-0.5688,-0.5688,-0.5688,-0.5688,-0.5688,-0.5828,-0.5969,-0.5463,-0.5387,-0.5452,-0.5651,-0.5686,-0.581,-0.6074,-0.6108,-0.6146,-0.6311,-0.6323,-0.6364,-0.6554,-0.6009,-0.57,-0.5881,-0.553,-0.5378,-0.5504,-0.5262,-0.5213,0.0,0.0,-0.501,-0.501,-0.501,-0.501,-0.501,0.0,0.0,-0.4703,0.0,-0.456,-0.4703,-0.4703,-0.4718,-0.4815,-0.4815,-0.4872,-0.5006,-0.5006,-0.5006,-0.5038,-0.5152,-0.5028,-0.483,-0.4869,-0.4746,-0.4525,-0.4658,-0.4582,-0.4462,-0.4859,-0.5018,-0.5018,-0.5018,-0.5018,-0.5018,-0.5018,-0.5018,-0.5018,-0.5018,-0.5018,-0.5018,-0.5018,-0.5018,-0.5018,-0.5018,-0.5018,-0.5018,-0.5018,-0.482,-0.4779,-0.4976,0.0,0.0,0.0,0.0,0.0,0.0,-0.454,-0.4582,-0.4976,0.0,0.0,0.0,0.0,0.0,0.0,0.0,0.0,-0.5018,-0.5018,0.0,-0.5018,-0.5129,-0.5246,-0.5413,-0.5448,-0.557,-0.5688,-0.5688,-0.5688,-0.5688,-0.5688,-0.5688,-0.5688,-0.5688,-0.5688,-0.5688,-0.5688,-0.5688,-0.5688,-0.5688,-0.5882,-0.6083,-0.5638,-0.5653,-0.5775,-0.5839,-0.5912,-0.5983,-0.6105,-0.6177,-0.6236,-0.627,-0.6105,-0.6065,-0.6352,-0.6071,-0.5895,0.0,-0.5629,-0.5473,0.0,-0.5251,-0.5107,-0.5213,-0.5049,-0.501,-0.501,-0.501,-0.501,-0.501,0.0,0.0,0.0,-0.4665,-0.458,-0.4432,-0.4432,-0.454,-0.4747,-0.4747,-0.4851,-0.501,-0.501,-0.501,-0.5006,-0.5061,-0.4964,-0.481,-0.4827,-0.4757,-0.4634,-0.457,-0.4534,-0.448,-0.4565,-0.4701,-0.4818,-0.4976,-0.5018,-0.4976,-0.482,-0.4779,-0.4779,-0.4621,-0.4701,-0.4779,-0.4779,-0.4898,-0.5018,-0.5018,-0.4898,-0.4779,-0.4779,-0.474,-0.4659,-0.4621,-0.4701,0.0,0.0,0.0,0.0,0.0,-0.4423,-0.4501,0.0,-0.474,0.0,0.0,0.0,0.0,0.0,0.0,0.0,0.0,-0.5018,0.0,-0.5018,-0.5129,-0.5249,-0.5413,-0.5448,-0.5572,-0.5688,-0.5688,-0.5688,-0.5688,-0.5688,-0.5688,-0.5688,-0.5688,-0.5688,-0.5688,-0.5688,-0.5688,-0.5699,-0.582,-0.595,-0.6097,-0.5538,-0.5596,-0.5652,-0.569,-0.5802,-0.5845,-0.5845,-0.5899,-0.594,-0.594,-0.577,-0.5699,-0.5888,-0.5737,0.0,-0.5847,-0.545,-0.5281,-0.5343,-0.5077,-0.4973,-0.4991,-0.4833,-0.4782,-0.4743,-0.4743,0.0,-0.4743,-0.4743,-0.4656,-0.4569,-0.4569,-0.4478,-0.43,-0.43,-0.4389,-0.4569,-0.4569,-0.4612,-0.4743,-0.4743,-0.4743,-0.4743,-0.4835,-0.4751,-0.4607,-0.4658,-0.4604,-0.4493,-0.4431,-0.4372,-0.429,-0.4386,-0.4457,-0.4506,-0.4701,-0.4779,-0.474,-0.4621,-0.4582,-0.4543,-0.4423,-0.4501,-0.4582,-0.4582,-0.4701,-0.4779,-0.4779,-0.4659,-0.4582,-0.4582,-0.4543,-0.4467,-0.4423,-0.4465,-0.4506,-0.4309,0.0,0.0,0.0,0.0,0.0,0.0,-0.4621,-0.4701,0.0,0.0,0.0,0.0,0.0,0.0,-0.5018,-0.5018,0.0,-0.5018,-0.5175,-0.5333,-0.5413,-0.554,-0.5615,-0.5688,-0.5688,-0.5688,-0.5688,-0.5688,-0.5688,-0.5688,-0.5688,-0.5688,-0.5688,-0.5688,-0.5688,-0.5702,-0.586,-0.598,-0.6102,-0.5237,-0.5198,-0.5227,0.0,-0.5382,0.0,-0.5382,-0.5382,-0.5382,-0.5382,-0.5382,-0.5347,-0.52,-0.5163,-0.521,-0.5519,0.0,0.0,0.0,-0.4857,-0.4731,-0.4789,-0.4535,-0.435,-0.431,-0.4302,-0.43,-0.43,-0.43,-0.43,-0.43,-0.43,-0.43,-0.43,-0.43,-0.43,-0.43,-0.43,-0.43,-0.43,-0.43,-0.43,-0.4344,-0.4569,-0.4525,-0.4332,-0.4424,-0.435,-0.421,-0.4282,-0.4109,-0.3999,-0.4356,-0.4285,-0.4127,-0.4348,-0.4384,-0.4384,-0.4384,-0.4384,-0.4384,-0.4345,-0.4384,-0.4384,-0.4384,-0.4384,-0.4384,-0.4384,-0.4384,-0.4384,-0.4384,-0.4233,-0.4155,-0.4345,-0.4075,-0.388,-0.404,0.0,0.0,0.0,0.0,0.0,0.0,-0.4504,-0.4543,0.0,0.0,0.0,0.0,0.0,-0.5018,-0.5018,-0.5018,-0.5021,-0.5029,-0.5254,-0.5418,-0.544,-0.5624,-0.5688,-0.5688,-0.5688,-0.5688,-0.5688,-0.5688,-0.5688,-0.5688,-0.5688,-0.5688,-0.5688,-0.5688,-0.5688,-0.5702,-0.5871,-0.5988,-0.6105,0.0,0.0,-0.5357,-0.5377,-0.5382,-0.5382,-0.5382,-0.5382,-0.5382,-0.5382,-0.5382,-0.5347,-0.52,-0.5163,-0.5132,-0.5164,-0.4951,-0.4826,-0.4856,-0.4743,-0.4689,-0.4743,-0.451,-0.4378,-0.4358,-0.4334,-0.43,-0.43,-0.43,-0.43,-0.43,-0.43,-0.43,-0.43,-0.43,-0.43,-0.43,-0.43,-0.43,-0.43,-0.43,-0.43,-0.43,-0.4389,-0.4344,-0.4295,-0.4319,-0.4311,-0.4257,-0.4255,-0.4167,-0.4138,-0.4107,-0.4022,-0.4014,-0.433,-0.4384,-0.4384,-0.4233,-0.4155,-0.4116,-0.3997,-0.4077,-0.4194,-0.4384,-0.4384,-0.4384,-0.4384,-0.427,-0.4155,-0.4155,-0.4118,-0.4077,-0.3958,-0.4114,-0.4151,-0.3919,-0.396,0.0,0.0,-0.3841,-0.3919,-0.4196,-0.4196,-0.4272,0.0,0.0,0.0,0.0,-0.4898,-0.5018,-0.5018,-0.5018,-0.5059,-0.5146,-0.5336,-0.5464,-0.5648,-0.5661,-0.5688,-0.5688,-0.5688,-0.5688,-0.5688,-0.5688,-0.5688,-0.5688,-0.5688,-0.5688,-0.5688,-0.5688,-0.5688,-0.5715,-0.5966,-0.6062,-0.6116,-0.5382,-0.5382,-0.5382,-0.5382,-0.5382,-0.5382,-0.5382,-0.5382,-0.5382,-0.5382,-0.5382,-0.5347,-0.52,-0.5163,-0.5071,-0.5031,-0.4888,-0.4784,-0.4784,-0.4742,-0.4749,-0.471,-0.4573,-0.4479,-0.439,-0.4346,-0.43,-0.43,-0.43,-0.43,-0.43,-0.43,-0.43,-0.43,-0.43,-0.43,-0.43,-0.43,-0.43,-0.43,-0.43,-0.43,-0.43,-0.43,-0.43,-0.43,-0.43,-0.43,-0.4291,-0.4246,-0.4204,-0.4208,-0.4114,-0.4036,-0.3985,-0.413,-0.4147,-0.4112,-0.3999,-0.396,-0.3921,-0.3841,-0.3882,-0.3999,-0.4112,-0.4114,-0.4114,-0.4114,-0.4036,-0.396,-0.396,-0.396,-0.3804,-0.3294,-0.337,-0.3329,-0.2741,-0.2743,0.0,-0.2665,-0.2665,-0.2743,-0.294,-0.294,-0.3212,-0.3759,-0.399,0.0,-0.4659,-0.4898,-0.5018,-0.5018,-0.5018,-0.5072,-0.5184,-0.5363,-0.5548,-0.5688,-0.5688,-0.5688,-0.5688,-0.5688,-0.5688,-0.5688,-0.5688,-0.5688,-0.5688,-0.5688,-0.5688,-0.5688,-0.5688,-0.5721,-0.5833,-0.6018,-0.6121,-0.6195,-0.5382,-0.5382,-0.5382,-0.5382,-0.5382,-0.5382,-0.5382,-0.5382,-0.5382,-0.5382,-0.5382,-0.5347,-0.52,-0.5163,-0.5071,-0.5031,-0.4888,-0.4784,-0.4784,-0.4784,-0.4754,-0.473,-0.464,-0.4551,-0.4413,-0.4353,-0.43,-0.43,-0.43,-0.43,-0.43,-0.43,-0.43,-0.43,-0.43,-0.43,-0.43,-0.43,-0.43,-0.43,-0.43,-0.43,-0.43,-0.43,-0.43,-0.43,-0.43,-0.43,-0.43,-0.43,-0.4253,-0.4191,-0.4061,-0.4001,-0.3998,-0.3796,-0.3784,-0.382,-0.3806,-0.3684,-0.3567,-0.3448,-0.3409,-0.3409,-0.3409,-0.3409,-0.3409,-0.3409,-0.3528,-0.3567,-0.3448,-0.3645,-0.3528,-0.2628,-0.2511,-0.2275,-0.1568,0.0,-0.1293,-0.1293,-0.1293,-0.1371,-0.1528,-0.1568,-0.192,-0.2779,-0.3127,-0.3636,-0.4426,-0.4781,-0.4987,-0.5042,-0.5042,-0.5108,-0.5241,-0.5424,-0.5586,-0.5688,-0.5688,-0.5688,-0.5688,-0.5688,-0.5688,-0.5688,-0.5688,-0.5688,-0.5644,-0.5688,-0.5644,-0.5599,-0.5644,-0.5703,-0.5802,-0.5941,-0.6056,-0.6163,-0.5382,-0.5382,-0.5382,-0.5382,-0.5382,-0.5382,-0.5382,-0.5382,-0.5382,-0.5382,-0.5382,-0.5347,-0.52,-0.5163,-0.5071,-0.5031,-0.4888,-0.4784,-0.4784,-0.4784,-0.4778,-0.4766,-0.4732,-0.4645,-0.4553,-0.4385,-0.43,-0.43,-0.43,-0.43,-0.43,-0.43,-0.43,-0.43,-0.43,-0.43,-0.43,-0.43,-0.43,-0.43,-0.43,-0.43,-0.43,-0.43,-0.43,-0.43,-0.43,-0.43,-0.43,-0.43,-0.4291,-0.4146,-0.3344,-0.3605,-0.4017,-0.314,-0.338,-0.3863,-0.3824,-0.3255,-0.2549,-0.1842,-0.1684,-0.1684,-0.1684,-0.1684,-0.1684,-0.1684,-0.2234,-0.2508,-0.1802,-0.286,-0.3528,-0.2628,-0.2511,-0.247,-0.2314,0.0,-0.1293,-0.1293,-0.1293,-0.1293,-0.1332,-0.1332,-0.141,-0.1567,-0.2387,-0.3012,-0.3327,-0.4229,-0.4862,-0.5156,-0.5159,-0.5268,-0.5448,-0.5591,-0.5672,-0.5688,-0.5688,-0.5688,-0.5688,-0.5688,-0.5688,-0.5688,-0.5688,-0.5599,-0.5463,-0.5644,-0.5463,-0.5144,-0.5371,-0.5337,-0.5148,-0.5349,-0.5434,-0.5477,-0.5382,-0.5382,-0.5382,-0.5382,-0.5382,-0.5382,-0.5382,-0.5382,-0.5382,-0.5382,-0.5382,-0.5365,-0.5322,-0.5237,-0.4876,-0.4264,-0.4083,-0.3767,-0.3126,-0.418,-0.4784,-0.4784,-0.4753,-0.4402,-0.3752,-0.3588,-0.3532,-0.3537,-0.403,-0.43,-0.43,-0.43,-0.43,-0.43,-0.43,-0.403,-0.3537,-0.3537,-0.3223,-0.2773,-0.3314,-0.3562,-0.3639,-0.4137,-0.433,-0.4274,-0.3733,-0.3537,-0.3448,-0.2908,-0.2728,-0.264,-0.2238,-0.2356,-0.2599,-0.209,-0.2523,-0.3189,-0.3117,-0.2508,-0.1763,-0.141,-0.1293,-0.1293,-0.1293,-0.1293,-0.1293,-0.1293,-0.1607,-0.1724,-0.1371,-0.1919,-0.2154,-0.1293,-0.1136,0.0,0.0,-0.0118,0.0118,0.0118,0.0118,0.0118,0.0118,0.0118,-0.0078,-0.0548,-0.1135,-0.1879,-0.2896,-0.3567,-0.4212,-0.4821,-0.519,-0.5394,-0.5505,-0.5626,-0.5688,-0.5688,-0.5688,-0.5688,-0.5688,-0.5688,-0.5644,-0.5552,-0.5552,-0.5416,-0.5191,-0.528,-0.5191,-0.501,-0.5144,-0.5136,-0.5108,-0.5206,-0.5279,-0.5351,-0.4538,-0.4538,-0.4538,-0.4538,-0.4538,-0.4538,-0.4538,-0.4538,-0.4538,-0.4538,-0.4538,-0.4538,-0.4538,-0.4469,-0.4018,-0.3162,-0.3042,-0.2573,-0.1675,-0.313,-0.4079,-0.4079,-0.4009,-0.3673,-0.3047,-0.2879,-0.2935,-0.3249,-0.395,-0.43,-0.43,-0.4074,-0.3985,-0.3985,-0.3715,-0.3223,-0.2552,-0.2552,-0.2104,-0.1477,-0.2238,-0.2585,-0.2721,-0.3358,-0.3655,-0.3574,-0.2788,-0.2536,-0.2435,-0.1668,-0.1393,-0.1342,-0.1164,-0.1208,-0.1338,-0.1099,-0.1489,-0.1966,-0.1951,-0.1456,-0.094,-0.0745,-0.0705,-0.0705,-0.0705,-0.0705,-0.0705,-0.0705,-0.0862,-0.094,-0.0744,-0.1019,-0.1019,-0.0157,0.0,0.0,0.0,0.1178,0.1296,0.1296,0.1296,0.1296,0.1296,0.1296,0.1021,0.0353,-0.0039,-0.0824,-0.2131,-0.265,-0.3219,-0.3911,-0.4857,-0.5346,-0.5372,-0.5507,-0.5552,-0.5552,-0.5552,-0.5552,-0.5552,-0.5552,-0.5463,-0.5327,-0.5327,-0.5146,-0.4921,-0.4966,-0.4921,-0.4832,-0.4921,-0.497,-0.5,-0.5023,-0.5083,-0.5166,-0.2071,-0.2071,-0.2071,-0.2071,-0.2071,-0.2071,-0.2071,-0.2071,-0.2071,-0.2071,-0.2071,-0.2071,-0.2071,-0.1984,-0.1908,-0.1852,-0.1795,-0.1706,-0.1601,-0.1729,-0.1815,-0.1815,-0.1782,-0.2152,-0.3071,-0.2918,-0.3278,-0.4286,-0.4295,-0.43,-0.43,-0.3403,-0.3001,-0.2956,-0.2013,-0.1566,-0.1522,-0.1522,-0.1477,-0.1387,-0.1477,-0.1495,-0.1523,-0.1566,-0.1586,-0.1519,-0.1422,-0.1451,-0.152,-0.1428,-0.141,-0.1253,-0.0358,-0.0717,-0.1208,-0.0358,-0.0132,-0.0171,-0.0205,-0.0159,0.0118,0.0903,0.11,0.11,0.11,0.11,0.11,0.11,0.047,0.0157,0.0942,-0.0196,-0.1019,-0.0157,0.0,0.0,0.0078,0.0785,0.1296,0.1296,0.1296,0.1296,0.1296,0.1296,0.1257,0.1218,0.0431,-0.0158,-0.0485,-0.1215,-0.1818,-0.2154,-0.3939,-0.4906,-0.5043,-0.505,-0.5055,-0.5055,-0.5055,-0.5055,-0.5055,-0.5055,-0.5055,-0.501,-0.501,-0.4924,-0.475,-0.4924,-0.4743,-0.4389,-0.4614,-0.4574,-0.4365,-0.4449,-0.4484,-0.4505,-0.1791,-0.1791,-0.1791,-0.1791,-0.1791,-0.1791,-0.1791,-0.1791,-0.1791,-0.1791,-0.1791,-0.1791,-0.1791,-0.1781,-0.1436,-0.0711,-0.0641,-0.0367,0.0415,0.0408,-0.0202,-0.1563,-0.0951,-0.0744,-0.1175,-0.1062,-0.1231,-0.1662,-0.2244,-0.2492,-0.2505,-0.2149,-0.197,-0.197,-0.1566,-0.1074,-0.0537,-0.0537,-0.0179,0.0269,-0.0318,-0.0555,-0.0658,-0.1129,-0.1381,-0.1355,-0.067,-0.0427,-0.0376,0.0186,0.0414,0.0456,0.0765,0.0628,0.0403,0.0762,0.0883,0.0865,0.0851,0.0825,0.088,0.1222,0.1296,0.1296,0.1296,0.1296,0.1296,0.1296,0.1021,0.0903,0.1257,0.0746,0.0431,0.0746,0.0,0.0824,0.0824,0.1099,0.1296,0.1296,0.1296,0.1296,0.1296,0.1296,0.1296,0.1296,0.0995,0.0523,-0.0081,-0.0917,-0.1459,-0.1634,-0.2299,-0.3149,-0.4115,-0.4115,-0.4427,-0.501,-0.501,-0.501,-0.501,-0.501,-0.4921,-0.4837,-0.4837,-0.4659,-0.4478,-0.452,-0.4476,-0.43,-0.4433,-0.4389,-0.4304,-0.4338,-0.4351,-0.4363,-0.0672,-0.0672,-0.0672,-0.0672,-0.0672,-0.0672,-0.0672,-0.0672,-0.0672,-0.0672,-0.0672,-0.0672,-0.0672,-0.0672,-0.0335,0.0496,0.0542,0.0853,0.1625,0.1639,0.0959,-0.0555,0.0101,0.0351,0.0,0.0049,-0.0097,-0.0471,-0.1115,-0.142,-0.1401,-0.1078,-0.094,-0.094,-0.0671,-0.0179,0.0448,0.0448,0.0807,0.1348,0.0734,0.0421,0.0333,-0.0192,-0.0438,-0.0444,0.0293,0.058,0.0672,0.1327,0.1503,0.149,0.1459,0.1398,0.1391,0.1391,0.1421,0.1402,0.1393,0.1361,0.1321,0.1321,0.1304,0.1296,0.1296,0.1296,0.1296,0.1296,0.1296,0.1296,0.1296,0.1296,0.1296,0.1296,0.1296,0.1296,0.1296,0.1296,0.1296,0.1296,0.1296,0.1296,0.1296,0.1305,0.1311,0.1311,0.13,0.1031,0.0456,-0.0129,-0.0486,-0.0537,-0.0537,-0.1164,-0.246,-0.2773,-0.34,-0.434,-0.434,-0.4474,-0.4788,-0.4788,-0.4701,-0.4569,-0.4569,-0.448,-0.43,-0.43,-0.43,-0.43,-0.43,-0.43,-0.43,-0.43,-0.43,-0.4308,0.1795,0.1795,0.1795,0.1795,0.1795,0.1795,0.1795,0.1795,0.1795,0.1795,0.1795,0.1795,0.1795,0.1795,0.1795,0.1795,0.1822,0.1791,0.1706,0.165,0.1617,0.1617,0.1617,0.1111,0.005,0.0099,-0.0392,-0.147,-0.1413,-0.1385,-0.1338,-0.0407,0.0,0.0045,0.0987,0.1391,0.1391,0.1391,0.1391,0.1393,0.1469,0.1499,0.153,0.156,0.1591,0.1617,0.1617,0.1597,0.1621,0.162,0.1551,0.1521,0.1491,0.146,0.1391,0.1391,0.1391,0.1384,0.1399,0.1391,0.1376,0.1318,0.132,0.1297,0.1297,0.1296,0.1296,0.1296,0.1296,0.1296,0.1296,0.1296,0.1296,0.1296,0.1296,0.1296,0.1296,0.1296,0.1296,0.1297,0.1297,0.1297,0.1297,0.1285,0.1303,0.1303,0.129,0.1318,0.1388,0.1418,0.1391,0.1391,0.1391,0.0942,0.0,-0.094,-0.1879,-0.2867,-0.2867,-0.336,-0.4297,-0.4297,-0.43,-0.43,-0.43,-0.43,-0.43,-0.43,-0.43,-0.43,-0.43,-0.43,-0.43,-0.43,-0.43,-0.4297,0.1795,0.1795,0.1795,0.1795,0.1795,0.1795,0.1795,0.1795,0.1795,0.1795,0.1795,0.1795,0.1795,0.1795,0.1795,0.1795,0.1822,0.1783,0.1678,0.1639,0.1617,0.1617,0.1617,0.1465,0.1111,0.1155,0.0994,0.0687,0.0679,0.0665,0.0647,0.0919,0.1046,0.0987,0.1256,0.1391,0.1391,0.1391,0.1447,0.147,0.15,0.153,0.1562,0.1592,0.1609,0.1617,0.1617,0.1611,0.16,0.1579,0.1566,0.1553,0.1522,0.1491,0.1467,0.1467,0.1452,0.1388,0.1379,0.1406,0.1381,0.1302,0.1311,0.1289,0.1289,0.1312,0.1296,0.1296,0.1296,0.1296,0.1296,0.1296,0.1296,0.1296,0.1296,0.1296,0.1296,0.1296,0.1305,0.1286,0.1289,0.1297,0.1319,0.1288,0.1292,0.1292,0.1361,0.139,0.1421,0.1385,0.1391,0.1391,0.1391,0.1256,0.0987,0.0045,-0.0896,-0.1835,-0.1835,-0.2013,-0.2282,-0.2282,-0.264,-0.3315,-0.3315,-0.3673,-0.43,-0.43,-0.3896,-0.3405,-0.403,-0.3446,-0.2371,-0.3044,-0.2865,-0.2282,0.1795,0.1795,0.1795,0.1795,0.1795,0.1795,0.1795,0.1795,0.1795,0.1795,0.1795,0.1795,0.1795,0.1795,0.1795,0.1795,0.1756,0.1717,0.1681,0.164,0.1617,0.1617,0.1617,0.1617,0.1617,0.1617,0.1608,0.159,0.1577,0.1601,0.1516,0.1492,0.1471,0.1453,0.1395,0.1391,0.1391,0.1391,0.1453,0.1483,0.1514,0.1544,0.1624,0.1605,0.1617,0.1617,0.1617,0.1617,0.1614,0.1596,0.1581,0.1617,0.155,0.1523,0.1496,0.1484,0.1468,0.1451,0.1393,0.1422,0.1403,0.1343,0.1309,0.132,0.132,0.1307,0.129,0.1318,0.1314,0.1314,0.1314,0.1314,0.1319,0.1291,0.1293,0.1293,0.1293,0.1293,0.13,0.1318,0.132,0.1286,0.1304,0.1315,0.1327,0.1339,0.1398,0.1416,0.1389,0.1391,0.1391,0.1391,0.1391,0.1391,0.1391,0.0852,0.009,-0.0851,-0.0851,-0.1029,-0.1387,-0.1387,-0.1745,-0.2329,-0.2329,-0.264,-0.3132,-0.3132,-0.2819,-0.2373,-0.291,-0.2416,-0.1477,-0.2104,-0.1925,-0.1387,0.1795,0.1795,0.1795,0.1795,0.1795,0.1795,0.1795,0.1795,0.1795,0.1795,0.1795,0.1795,0.1795,0.1795,0.1795,0.1795,0.174,0.1704,0.1704,0.165,0.1617,0.1617,0.1617,0.1617,0.1617,0.1617,0.1617,0.1617,0.159,0.1624,0.162,0.1515,0.1486,0.148,0.1452,0.1393,0.1391,0.1391,0.1455,0.1487,0.1515,0.1546,0.1579,0.1607,0.1617,0.1617,0.1617,0.1617,0.1617,0.1617,0.1598,0.1576,0.1576,0.1555,0.1525,0.1497,0.1487,0.1478,0.1447,0.1395,0.1394,0.1391,0.1352,0.1313,0.131,0.1307,0.1298,0.1312,0.1307,0.1307,0.1307,0.1307,0.1316,0.1302,0.1305,0.1305,0.1305,0.1305,0.1307,0.1309,0.1309,0.1311,0.1313,0.1379,0.1406,0.1388,0.1391,0.1391,0.1391,0.1391,0.1391,0.1391,0.1391,0.1391,0.1391,0.1391,0.0987,0.0134,0.0134,-0.0314,-0.1164,-0.1164,-0.1208,-0.1253,-0.1253,-0.1343,-0.1387,-0.1387,-0.1342,-0.1298,-0.1387,-0.1297,-0.1164,-0.1253,-0.1208,-0.1164,0.1795,0.1795,0.1795,0.1795,0.1795,0.1795,0.1795,0.1795,0.1795,0.1795,0.1795,0.1795,0.1795,0.1795,0.1795,0.1795,0.174,0.1704,0.1704,0.165,0.1617,0.1617,0.1617,0.1617,0.1617,0.1617,0.1617,0.1617,0.161,0.1595,0.162,0.1606,0.1526,0.148,0.1474,0.1457,0.1391,0.1391,0.1421,0.1517,0.1523,0.1558,0.1608,0.1614,0.1617,0.1617,0.1617,0.1617,0.1617,0.1617,0.1612,0.1607,0.1607,0.1586,0.156,0.1602,0.1535,0.151,0.1479,0.1471,0.1465,0.1396,0.1381,0.1366,0.1386,0.1321,0.1304,0.1298,0.1296,0.1296,0.1296,0.1296,0.1298,0.1305,0.1305,0.1305,0.1305,0.1305,0.1313,0.1378,0.1381,0.139,0.137,0.1377,0.1383,0.139,0.1391,0.1391,0.1391,0.1391,0.1391,0.1391,0.1391,0.1391,0.1391,0.1391,0.13,0.1076,0.1076,0.0986,0.0807,0.0807,0.0403,-0.0314,-0.0314,-0.0717,-0.1387,-0.1387,-0.0985,-0.0358,-0.1119,-0.0492,0.0717,-0.0045,0.0179,0.0807,0.1795,0.1795,0.1795,0.1795,0.1795,0.1795,0.1795,0.1795,0.1795,0.1795,0.1795,0.1795,0.1795,0.1795,0.1795,0.1795,0.174,0.1704,0.1704,0.165,0.1617,0.1617,0.1617,0.1617,0.1617,0.1617,0.1617,0.1617,0.1617,0.1609,0.1593,0.1578,0.1603,0.1523,0.1493,0.1472,0.1456,0.1397,0.1416,0.1506,0.152,0.1554,0.1597,0.1611,0.1617,0.1617,0.1617,0.1617,0.1617,0.1617,0.1617,0.1614,0.16,0.1584,0.1615,0.1584,0.1517,0.1498,0.1468,0.1459,0.1455,0.1394,0.1391,0.1386,0.1415,0.1356,0.1342,0.1328,0.1368,0.1368,0.1368,0.1368,0.133,0.1344,0.1346,0.1346,0.1346,0.1346,0.1352,0.141,0.1412,0.1418,0.1389,0.1391,0.1391,0.1391,0.1391,0.1391,0.1391,0.1391,0.1391,0.1391,0.1391,0.1391,0.1391,0.1391,0.1391,0.1391,0.1391,0.1391,0.1391,0.1391,0.1121,0.0673,0.0673,0.0403,-0.0045,-0.0045,0.0224,0.0628,0.0134,0.0538,0.1345,0.0852,0.0987,0.1391,0.1795,0.1795,0.1795,0.1795,0.1795,0.1795,0.1795,0.1795,0.1795,0.1795,0.1795,0.1795,0.1795,0.1795,0.1795,0.1795,0.174,0.1704,0.1704,0.165,0.1617,0.1617,0.1617,0.1617,0.1617,0.1617,0.1617,0.1617,0.1617,0.1617,0.1616,0.1591,0.1577,0.1618,0.1513,0.1485,0.1478,0.1448,0.1453,0.1483,0.1508,0.1536,0.1567,0.1598,0.1609,0.161,0.1615,0.1617,0.1616,0.1611,0.1609,0.1604,0.1573,0.1564,0.1553,0.1504,0.1488,0.1482,0.1451,0.1398,0.1397,0.1392,0.1391,0.1391,0.1391,0.1391,0.1383,0.1403,0.1397,0.1397,0.1397,0.1397,0.1406,0.1386,0.1391,0.1391,0.1391,0.1391,0.1391,0.1391,0.1391,0.1391,0.1391,0.1391,0.1391,0.1391,0.1391,0.1391,0.1391,0.1391,0.1391,0.1391,0.1391,0.1391,0.1391,0.1391,0.1391,0.1391,0.1391,0.1391,0.1391,0.1391,0.1391,0.1391,0.1391,0.1391,0.1391,0.1391,0.1391,0.1391,0.1391,0.1391,0.1391,0.1391,0.1391,0.1391,0.1795,0.1795,0.1795,0.1795,0.1795,0.1795,0.1795,0.1795,0.1795,0.1795,0.1795,0.1795,0.1795,0.1795,0.1795,0.1795,0.174,0.1704,0.1704,0.165,0.1617,0.1617,0.1617,0.1617,0.1617,0.1617,0.1617,0.1617,0.1617,0.1617,0.1617,0.1613,0.1596,0.1619,0.1536,0.1506,0.1478,0.1448,0.1453,0.1481,0.1485,0.1505,0.1536,0.1566,0.1578,0.1581,0.1607,0.1617,0.1613,0.1586,0.1578,0.1572,0.1542,0.1532,0.153,0.1522,0.152,0.1513,0.1483,0.1474,0.1468,0.1397,0.1391,0.1391,0.1391,0.1391,0.1389,0.1385,0.1384,0.1384,0.1384,0.1384,0.1385,0.139,0.1391,0.1391,0.1391,0.1391,0.1391,0.1391,0.1391,0.1391,0.1391,0.1391,0.1391,0.1391,0.1391,0.1391,0.1391,0.1391,0.1391,0.1391,0.1391,0.1391,0.1391,0.1391,0.1391,0.1391,0.1391,0.1391,0.1391,0.1391,0.1391,0.1391,0.1391,0.1391,0.1391,0.1391,0.1391,0.1391,0.1391,0.1391,0.1391,0.1391,0.1391,0.1391,0.1795,0.1795,0.1795,0.1795,0.1795,0.1795,0.1795,0.1795,0.1795,0.1795,0.1795,0.1795,0.1795,0.1795,0.1795,0.1795,0.174,0.1704,0.1704,0.165,0.1617,0.1617,0.1617,0.1617,0.1617,0.1617,0.1617,0.1617,0.1617,0.1617,0.1617,0.1617,0.1609,0.1596,0.1565,0.1534,0.1504,0.1474,0.1459,0.1457,0.1474,0.1489,0.1504,0.1534,0.1546,0.1548,0.1562,0.1566,0.1564,0.1551,0.1546,0.154,0.151,0.15,0.1498,0.1434,0.1429,0.1426,0.1459,0.1455,0.1452,0.1394,0.1391,0.1391,0.1391,0.1391,0.1391,0.1391,0.1391,0.1391,0.1391,0.1391,0.1391,0.1391,0.1391,0.1391,0.1391,0.1391,0.1391,0.1391,0.1391,0.1391,0.1391,0.1391,0.1391,0.1391,0.1391,0.1391,0.1391,0.1391,0.1391,0.1391,0.1391,0.1391,0.1391,0.1391,0.1391,0.1391,0.1391,0.1391,0.1391,0.1391,0.1399,0.1461,0.1461,0.147,0.144,0.144,0.144,0.144,0.144,0.1475,0.1461,0.1461,0.145,0.1391]}]]